     2.11           OBSERVATION DATA    G (GPS)             RINEX VERSION / TYPE
teqc 2010Oct21 OPUS Account 20111026 20:36:38UTC            PGM / RUN BY / DATE
V 1522                                                      MARKER NAME
1175                                                        MARKER NUMBER
CSMIDDLETON NGS                                             OBSERVER / AGENCY
0220320152 TRIMBLE 5700 2.01                                REC # / TYPE / VERS
12214372 TRM41249.00 NONE                                   ANT # / TYPE
  -741038.7202 -5502475.0603  3128887.6427                  APPROX POSITION XYZ
        2.0000        0.0000        0.0000                  ANTENNA: DELTA H/E/N
     1     1                                                WAVELENGTH FACT L1/2
     5    L1    L2    C1    P1    P2                        # / TYPES OF OBSERV
    15                                                      LEAP SECONDS
  2011     8    10    16    11   30.0000000     GPS         TIME OF FIRST OBS
                                                            END OF HEADER
 11  8 10 16 11 30.0000000  0  9G03G06G07G10G13G16G19G23G20
    -72575.83257    -53923.85556  20768984.6414                   20768981.8284
      3331.34057     -1788.02055  22054727.7194                   22054725.0704
   -176821.46557   -135869.12555  22911045.8444                   22911043.1764
    -95007.34056    -74959.87953  23863930.7424                   23863927.7114
   -165480.37158   -122556.55156  20356420.8754                   20356417.6684
    151608.76257    103612.58255  21913053.9384                   21913050.2074
   -231297.62957   -172992.79355  21886837.8444                   21886833.7384
    -25848.93058    -22781.06657  19942461.8054                   19942456.5554
    166296.22756    115784.09454  23765923.2584                   23765922.1254
 11  8 10 16 12  0.0000000  0  9G03G06G07G10G13G16G19G23G20
   -102437.60948    -77192.77746  20763302.1884                   20763299.5314
      5333.73047      -227.72745  22055109.1334                   22055106.2734
   -257069.48047   -198400.03145  22895775.1884                   22895772.2544
   -137498.55146   -108069.93443  23855844.2814                   23855841.8834
   -231368.25848   -173897.76646  20343882.3914                   20343879.3714
    212048.10248    150708.13745  21924555.0784                   21924551.5944
   -324657.28947   -245740.52345  21869072.2034                   21869068.3134
    -35650.22348    -30418.46547  19940596.8364                   19940591.5084
    233322.75846    168012.42644  23778677.7894                   23778677.5044
 11  8 10 16 12 30.0000000  0  9G03G06G07G10G13G16G19G23G20
   -131881.31648   -100135.93446  20757699.0234                   20757696.8634
      7678.38747      1599.25445  22055555.1094                   22055552.6174
   -337507.03947   -261078.61345  22880468.0704                   22880465.7194
   -179685.23447   -140942.70343  23847816.4924                   23847814.6174
   -297011.18048   -225048.10246  20331391.1804                   20331387.7074
    272471.89147    197791.59445  21936053.8834                   21936049.8714
   -417847.33247   -318356.08645  21851338.6024                   21851334.4964
    -45099.99648    -37781.95347  19938798.7664                   19938793.5594
    300134.85946    220073.65644  23791392.6804                   23791391.5904
 11  8 10 16 13  0.0000000  0  9G03G06G07G10G13G16G19G23G20
   -160892.20748   -122741.84046  20752178.3984                   20752176.3914
     10378.47347      3703.20345  22056069.2584                   22056066.6684
   -418120.37147   -323894.20745  22865128.0314                   22865125.1334
   -221553.89546   -173567.65243  23839849.3594                   23839846.6604
   -362393.34448   -275995.24646  20318949.5864                   20318945.9884
    332891.53947    244871.81345  21947550.9064                   21947547.2814
   -510850.93047   -390826.37545  21833640.2734                   21833636.5904
    -54183.53948    -44860.06247  19937070.0004                   19937064.7464
    366743.64846    271976.45744  23804067.6724                   23804066.9454
 11  8 10 16 13 30.0000000  0  9G03G06G07G10G13G16G19G23G20
   -189469.62147   -145009.97346  20746740.4304                   20746738.1024
     13433.41047      6083.65245  22056650.5394                   22056647.9574
   -498909.72347   -386846.93045  22849754.3834                   22849751.8094
   -263104.47347   -205944.75843  23831942.7814                   23831939.8284
   -427512.15648   -326737.18746  20306557.7194                   20306553.9774
    393304.11747    291946.52345  21959047.3834                   21959043.4384
   -603665.25848   -463149.19546  21815979.1804                   21815974.0204
    -62900.83648    -51652.78947  19935411.1484                   19935406.1134
    433146.33246    323718.68043  23816703.9454                   23816702.3594
 11  8 10 16 14  0.0000000  0  9G03G06G07G10G13G16G19G23G20
   -217622.93447   -166947.63746  20741382.9304                   20741380.1804
     16832.77047      8732.49645  22057297.5634                   22057294.2384
   -579884.81247   -449944.35945  22834344.8524                   22834342.6604
   -304346.74246   -238081.62143  23824093.8444                   23824092.3634
   -492375.50848   -377280.06646  20294214.8364                   20294211.1374
    453697.07047    339005.94145  21970539.8054                   21970535.9654
   -696297.35948   -535330.02745  21798351.5004                   21798346.9104
    -71261.37548    -58167.51647  19933820.1884                   19933814.9344
    499330.19446    375290.38343  23829297.7034                   23829296.5514
 11  8 10 16 14 30.0000000  0  9G03G06G07G10G13G16G19G23G20
   -245350.94948   -188553.89546  20736106.3524                   20736103.4884
     20576.09447     11649.35545  22058009.4384                   22058006.9734
   -661044.91847   -513185.96945  22818900.8134                   22818898.5984
   -345280.35547   -269977.94143  23816304.5084                   23816302.9304
   -556980.75448   -427621.82446  20281920.5394                   20281917.0084
    514069.14147    386049.08645  21982027.8914                   21982024.4884
   -788743.42247   -607365.89546  21780759.7584                   21780755.4264
    -79264.10248    -64403.43447  19932296.9694                   19932292.5204
    565293.20746    426690.03143  23841850.5164                   23841848.9734
 11  8 10 16 15  0.0000000  0  9G03G06G07G10G13G16G19G23G20
   -272642.46147   -209820.00846  20730912.9224                   20730910.2504
     24673.75047     14842.30545  22058789.6174                   22058786.9694
   -742379.60247   -576563.60945  22803423.2274                   22803420.8524
   -385894.48047   -301625.35943  23808576.2034                   23808575.3674
   -621314.53548   -477752.04746  20269678.1094                   20269674.7464
    574427.80947    433081.78545  21993513.6804                   21993510.2544
   -880989.56247   -679245.96546  21763205.8444                   21763201.1484
    -86898.10248    -70352.02047  19930844.7034                   19930839.4264
    631043.12146    477923.58643  23854361.4064                   23854360.7384
 11  8 10 16 15 30.0000000  0  9G03G06G07G10G13G16G19G23G20
   -299487.13747   -230737.95346  20725804.8914                   20725802.6844
     29134.68447     18318.32845  22059638.5634                   22059635.4654
   -823878.71947   -640069.40245  22787914.8204                   22787911.9384
   -426179.59847   -333016.39844  23800910.7344                   23800909.4414
   -685365.60548   -527661.98446  20257489.7194                   20257486.0984
    634780.80147    480110.05945  22004998.5234                   22004995.1524
   -973023.13347   -750960.43046  21745692.1024                   21745688.0004
    -94152.97748    -76005.19947  19929464.3754                   19929459.1414
    696586.96546    528996.55943  23866835.3204                   23866834.5274
 11  8 10 16 16  0.0000000  0  9G03G06G07G10G13G16G19G23G20
   -325878.09448   -251302.35546  20720783.0394                   20720780.2774
     33964.92647     22082.11745  22060557.7114                   22060555.3524
   -905535.77347   -703698.25445  22772376.1094                   22772373.3874
   -466129.40647   -364146.15244  23793308.4534                   23793307.2304
   -749124.72748   -577344.42646  20245356.9304                   20245353.2934
    695132.12947    527137.03145  22016483.3674                   22016479.6414
  -1064834.36347   -822501.62546  21728221.2504                   21728217.0234
   -101021.82848    -81357.57847  19928156.9774                   19928152.0084
    761928.41846    579911.80544  23879269.6804                   23879268.4884
 11  8 10 16 16 30.0000000  0  9G03G06G07G10G13G16G19G23G20
   -351812.01247   -271510.61346  20715847.7974                   20715845.0554
     39166.20347     26135.03945  22061547.4144                   22061545.3134
   -987348.15247   -767448.12945  22756807.5394                   22756805.2814
   -505741.36347   -395012.63344  23785770.7114                   23785768.6604
   -812587.44548   -626795.90246  20233279.9844                   20233276.5904
    755481.79347    574162.71145  22027967.0004                   22027964.0554
  -1156418.17647   -893865.61346  21710792.9924                   21710788.8014
   -107501.66448    -86406.82847  19926923.9534                   19926918.8244
    827067.31346    630669.25043  23891665.0084                   23891663.8914
 11  8 10 16 17  0.0000000  0  9G03G06G07G10G13G16G19G23G20
   -377282.40648   -291357.69146  20711000.7664                   20710998.4024
     44744.08247     30481.41845  22062609.1174                   22062606.3754
  -1069309.50447   -831314.08245  22741210.6804                   22741208.0704
   -545009.30547   -425611.07044  23778298.1484                   23778296.3484
   -875745.24248   -676009.77346  20221261.7734                   20221258.1454
    815833.75047    621190.18845  22039452.2734                   22039448.4144
  -1247765.35947   -965045.23046  21693410.4064                   21693405.8794
   -113585.87548    -91147.79747  19925766.2114                   19925761.3484
    892007.42646    681271.79743  23904023.3364                   23904022.1644
 11  8 10 16 17 30.0000000  0  9G03G06G07G10G13G16G19G23G20
   -402279.57047   -310836.01646  20706243.7974                   20706241.6484
     50707.29747     35128.05145  22063743.8444                   22063741.5984
  -1151410.52047   -895288.87945  22725587.3364                   22725584.7934
   -583924.06247   -455934.28544  23770892.8754                   23770891.1174
   -938586.39848   -724976.91446  20209303.4694                   20209299.9964
    876195.13347    668224.98845  22050938.7114                   22050934.8754
  -1338863.42247  -1036030.71946  21676075.1484                   21676070.6334
   -119265.06248    -95573.16447  19924685.5314                   19924680.2154
    956755.24246    731724.48443  23916344.8134                   23916343.0984
 11  8 10 16 18  0.0000000  0  9G03G06G07G10G13G16G19G23G20
   -426792.45747   -329936.98046  20701579.2274                   20701577.1884
     57065.44947     40082.42245  22064952.9534                   22064951.2814
  -1233640.35547   -959364.05945  22709939.6804                   22709937.0274
   -622475.26247   -485974.21543  23763556.6334                   23763555.3484
  -1001098.28148   -773687.47746  20197407.8364                   20197404.5354
    936573.68847    715273.19545  22062427.7734                   22062424.6764
  -1429698.98447  -1106811.66046  21658789.6024                   21658785.5234
   -124528.27348    -99674.39147  19923683.9064                   19923678.6374
   1021318.45346    782033.33643  23928630.1564                   23928629.6684
 11  8 10 16 18 30.0000000  0  9G03G06G07G10G13G16G19G23G20
   -450813.54348   -348654.71546  20697008.4304                   20697005.8244
     63825.08647     45349.66045  22066239.8984                   22066237.4534
  -1315991.45347  -1023533.73845  22694268.4774                   22694266.0904
   -660655.68447   -515725.23043  23756291.0474                   23756290.2234
  -1063271.56248   -822134.19946  20185576.7974                   20185573.1524
    996974.51247    762338.72745  22073922.0784                   22073918.5474
  -1520261.36347  -1177379.73046  21641556.1884                   21641551.3054
   -129368.01648   -103445.64547  19922762.9534                   19922758.2344
   1085702.00046    832202.23443  23940881.9384                   23940880.7934
 11  8 10 16 19  0.0000000  0  9G03G06G07G10G13G16G19G23G20
   -474336.29348   -366984.14546  20692531.9844                   20692529.8364
     70991.31647     50933.71545  22067603.2274                   22067601.3094
  -1398457.90647  -1087793.30145  22678575.6564                   22678573.5784
   -698459.87947   -545183.07043  23749097.5084                   23749096.5434
  -1125098.33248   -870310.90646  20173811.4844                   20173808.0004
   1057400.82447    809424.13345  22085420.8204                   22085416.9104
  -1610541.97347  -1247728.23846  21624376.4224                   21624372.3244
   -133778.27748   -106882.23447  19921923.7194                   19921918.6454
   1149909.03546    882233.55543  23953100.6334                   23953098.7424
 11  8 10 16 19 30.0000000  0  9G03G06G07G10G13G16G19G23G20
   -497350.65648   -384917.43046  20688152.4614                   20688149.9884
     78572.99247     56841.50045  22069046.5634                   22069044.3134
  -1481030.12147  -1152135.27345  22662863.0634                   22662860.4414
   -735878.25447   -574340.25444  23741976.5234                   23741975.9964
  -1186566.66848   -918208.31646  20162114.2194                   20162110.5124
   1117860.23047    856535.32845  22096925.5394                   22096922.3444
  -1700528.22747  -1317847.36346  21607252.2814                   21607248.3984
   -137748.82048   -109976.18447  19921168.1884                   19921163.0124
   1213946.72746    932132.91443  23965286.5704                   23965285.5124
 11  8 10 16 20  0.0000000  0  9G03G06G07G10G13G16G19G23G20
   -519846.76648   -402446.87946  20683871.7504                   20683869.3954
     86578.76247     63079.74645  22070569.4304                   22070567.1294
  -1563698.00047  -1216551.77745  22647131.7894                   22647129.3164
   -772901.81246   -603189.79743  23734930.7424                   23734930.5474
  -1247664.99248   -965817.39846  20150487.8364                   20150484.3984
   1178359.68447    903677.73845  22108438.4454                   22108435.3164
  -1790207.91047  -1387727.61746  21590186.9384                   21590183.0514
   -141270.14548   -112720.09847  19920498.0234                   19920492.6484
   1277821.69946    981905.44544  23977441.3984                   23977441.6484
 11  8 10 16 20 30.0000000  0  9G03G06G07G10G13G16G19G23G20
   -541820.89848   -419569.59846  20679690.0704                   20679687.4884
     95011.72347     69650.85945  22072174.3834                   22072172.0984
  -1646457.78146  -1281039.91045  22631382.6094                   22631380.4884
   -809527.18747   -631729.06244  23727962.0474                   23727960.5784
  -1308387.20348  -1013133.41846  20138932.9224                   20138929.0664
   1238900.60247    950852.46545  22119959.0394                   22119955.5044
  -1879574.15247  -1457363.62946  21573180.8524                   21573176.2344
   -144338.21148   -115110.81647  19919914.1804                   19919909.1604
   1341534.76646   1031551.84844  23989566.1484                   23989565.8444
 11  8 10 16 21  0.0000000  0  9G03G06G07G10G13G16G19G23G20
   -563264.53548   -436278.94546  20675609.6484                   20675606.9844
    103879.05547     76560.44145  22073861.8524                   22073859.9264
  -1729301.25447  -1345593.23845  22615618.2114                   22615615.6294
   -845746.08247   -659951.57443  23721069.7584                   23721068.8674
  -1368722.56247  -1060147.98446  20127451.0554                   20127447.7664
   1299489.09847    998064.23445  22131488.6954                   22131485.3714
  -1968615.89147  -1526746.78546  21556236.8594                   21556232.8914
   -146944.62548   -117141.81647  19919418.4064                   19919413.1994
   1405091.74246   1081076.62144  24001660.2584                   24001660.5044
 11  8 10 16 21 30.0000000  0  9G03G06G07G10G13G16G19G23G20
   -584174.61348   -452572.53146  20671630.5784                   20671628.5004
    113182.52047     83809.86345  22075632.0314                   22075630.4924
  -1812225.34447  -1410209.38345  22599838.1724                   22599835.5044
   -881556.24647   -687855.62544  23714255.1094                   23714254.4494
  -1428667.45348  -1106858.29346  20116044.1804                   20116040.4774
   1360125.08247   1045313.02745  22143027.3284                   22143024.0394
  -2057327.57447  -1595872.75846  21539355.3674                   21539351.6844
   -149086.80948   -118811.07047  19919010.4774                   19919005.4694
   1468492.80946   1130479.89143  24013725.3674                   24013725.5824
 11  8 10 16 22  0.0000000  0  9G03G06G07G10G13G16G19G23G20
   -604548.74248   -468448.48846  20667753.5004                   20667751.0864
    122923.64847     91400.34045  22077485.9924                   22077483.7814
  -1895227.56647  -1474886.43445  22584043.6174                   22584040.5864
   -916955.44147   -715439.41843  23707518.9534                   23707517.8134
  -1488216.84448  -1153260.41446  20104711.9924                   20104708.5704
   1420808.94947   1092599.12945  22154574.9614                   22154571.9184
  -2145703.65247  -1664737.22746  21522538.1334                   21522533.4614
   -150762.05548   -120116.48047  19918691.9144                   19918686.6524
   1531737.98845   1179761.69543  24025760.0234                   24025761.0044
 11  8 10 16 22 30.0000000  0  9G03G06G07G10G13G16G19G23G20
   -624381.99248   -483902.98046  20663979.2274                   20663976.9184
    133106.17647     99334.75445  22079424.0944                   22079421.5554
  -1978302.95747  -1539620.46945  22568234.6804                   22568232.4774
   -951939.46147   -742699.73044  23700861.8204                   23700860.5634
  -1547364.24248  -1199349.30546  20093456.9454                   20093453.2584
   1481542.94947   1139924.28545  22166131.8914                   22166129.4304
  -2233736.63747  -1733334.35946  21505785.8754                   21505781.6994
   -151965.82048   -121054.50047  19918462.8984                   19918457.7774
   1594828.83246   1228923.21143  24037766.9614                   24037766.7934
 11  8 10 16 23  0.0000000  0  9G03G06G07G10G13G16G19G23G20
   -643669.46148   -498932.18046  20660308.9694                   20660306.7624
    143733.74647    107615.96945  22081445.9924                   22081443.9804
  -2061446.46147  -1604407.59845  22552413.0234                   22552410.6094
   -986503.95346   -769633.12944  23694284.8754                   23694283.5084
  -1606102.64148  -1245119.48846  20082279.2034                   20082275.9024
   1542329.57447   1187290.45745  22177699.8204                   22177697.0784
  -2321419.27747  -1801658.46946  21489100.9844                   21489096.6334
   -152693.00048   -121621.16447  19918324.2194                   19918319.4144
   1657767.90645   1277966.46143  24049742.8834                   24049743.3754
 11  8 10 16 23 30.0000000  0  9G03G06G07G10G13G16G19G23G20
   -662411.57448   -513536.43446  20656742.4144                   20656740.3364
    154804.94947    116242.85245  22083552.5084                   22083550.2664
  -2144658.37947  -1669248.02345  22536578.5554                   22536575.8404
  -1020650.17647   -796240.60944  23687787.1564                   23687785.7814
  -1664430.49247  -1290569.77046  20071179.8674                   20071176.1644
   1603165.85247   1234695.31645  22189276.8984                   22189273.4384
  -2408749.07047  -1869707.65646  21472482.7274                   21472477.7974
   -152944.39148   -121817.07847  19918276.8984                   19918271.7034
   1720551.88745   1326888.88743  24061690.9774                   24061690.5004
 11  8 10 16 24  0.0000000  0  9G03G06G07G10G13G16G19G23G20
    894816.77748    699888.25446  20953073.0704                   20953070.8284
   1741742.94947   1352817.91045  22385537.0084                   22385534.8244
   -652511.37547   -506536.05545  22820524.6804                   22820521.8204
    521047.30547    405082.10244  23981162.1174                   23981161.0434
   -146919.48847   -108093.67246  20359952.6414                   20359949.0234
   3239472.28547   2509739.27745  22500655.2894                   22500651.9184
   -920295.45747   -709873.65246  21755725.5784                   21755721.0664
   1422704.89548   1105961.56347  20218112.6334                   20218107.8404
   3358600.78145   2603290.44543  24373401.2114                   24373400.2384
 11  8 10 16 24 30.0000000  0  9G03G06G07G10G13G16G19G23G20
    877178.39548    686144.05946  20949716.8594                   20949714.4924
   1753711.55947   1362144.07845  22387814.8754                   22387812.3204
   -735846.25847   -571472.31245  22804666.0634                   22804663.9144
    487750.02046    379136.12144  23974825.6414                   23974824.6644
   -204407.44547   -152889.48446  20349012.9774                   20349009.2464
   3300414.59047   2557226.75445  22512252.3524                   22512249.2154
  -1006897.86347   -777356.02346  21739245.7664                   21739241.3834
   1423418.93848   1106517.94147  20218248.5554                   20218243.8634
   3421080.14846   2651975.52743  24385291.4144                   24385289.9144
 11  8 10 16 25  0.0000000  0  9G03G06G07G10G13G16G19G23G20
    860092.33248    672830.23846  20946465.3444                   20946463.0864
   1766127.84047   1371819.09845  22390176.9774                   22390175.3714
   -819241.94147   -636455.93445  22788796.9844                   22788794.2114
    454877.05546    353520.82444  23968570.5474                   23968569.4804
   -261471.52747   -197355.00846  20338153.9534                   20338150.4454
   3361406.76647   2604753.09845  22523858.2814                   22523855.5164
  -1093131.79747   -844551.28946  21722835.9844                   21722832.2854
   1424615.87548   1107450.59447  20218476.4844                   20218471.4304
   3483404.06646   2700539.44543  24397151.9694                   24397150.4804
 11  8 10 16 25 30.0000000  0  9G03G06G07G10G13G16G19G23G20
    843561.75048    659949.25446  20943319.7274                   20943317.4144
   1778993.64847   1381844.37545  22392625.5234                   22392623.3874
   -902695.20347   -701484.43045  22772916.2424                   22772913.3594
    422430.92646    328238.11744  23962395.5784                   23962394.9144
   -318107.18047   -241486.69946  20327376.8594                   20327373.0314
   3422449.52047   2652318.84845  22535474.5314                   22535471.3634
  -1178991.59047   -911454.99646  21706497.5864                   21706493.0824
   1426298.62948   1108761.80546  20218796.5234                   20218791.3284
   3545572.47746   2748982.20343  24408981.7894                   24408981.7894
 11  8 10 16 26  0.0000000  0  9G03G06G07G10G13G16G19G23G20
    827589.83648    647503.59046  20940280.3914                   20940277.4614
   1792311.09447   1392221.57845  22395159.8054                   22395157.7194
   -986202.46947   -766555.00045  22757025.3834                   22757022.0314
    390413.90246    303289.78943  23956303.0864                   23956301.8984
   -374309.30147   -285280.56246  20316681.8524                   20316678.2274
   3483543.95347   2699924.87545  22547100.3524                   22547097.3554
  -1264471.30547   -978062.55146  21690231.1954                   21690226.5784
   1428470.48848   1110454.14846  20219209.7344                   20219204.7034
   3607586.38746   2797304.55543  24420783.1484                   24420781.6454
 11  8 10 16 26 30.0000000  0  9G03G06G07G10G13G16G19G23G20
    812176.68048    635493.32846  20937347.4614                   20937344.7504
   1806079.32047   1402950.03945  22397779.8444                   22397777.6334
  -1069763.04447   -831667.14845  22741123.8524                   22741121.0234
    358826.00046    278675.84443  23950292.5394                   23950290.3484
   -430075.50847   -328734.76646  20306069.8674                   20306066.4304
   3544687.98447   2747569.54745  22558736.0554                   22558732.3594
  -1349567.88747  -1044371.55146  21674037.7424                   21674033.8754
   1431131.65248   1112527.75446  20219716.4614                   20219710.8324
   3669443.33646   2845504.59043  24432554.2814                   24432553.0164
 11  8 10 16 27  0.0000000  0  9G03G06G07G10G13G16G19G23G20
    797323.90248    623919.71946  20934521.0004                   20934518.5354
   1820298.78547   1414030.11345  22400485.6254                   22400483.2544
  -1153375.26247   -896819.46145  22725213.2664                   22725210.3714
    327668.10946    254396.91043  23944363.7814                   23944361.1374
   -485402.38747   -371846.61746  20295541.3754                   20295537.6524
   3605881.09847   2795252.44945  22570380.9844                   22570377.6054
  -1434277.18747  -1110378.77346  21657917.8914                   21657914.0514
   1434283.32447   1114983.57447  20220316.1884                   20220311.2774
   3731142.38346   2893581.67643  24444295.1414                   24444293.7774
 11  8 10 16 27 30.0000000  0  9G03G06G07G10G13G16G19G23G20
    783035.01248    612785.50846  20931801.9694                   20931799.6024
   1834972.32847   1425464.00845  22403278.5554                   22403276.3834
  -1237034.66847   -962008.58645  22709293.4064                   22709290.8244
    296943.47346    230455.62143  23938516.2114                   23938514.9494
   -540283.93447   -414611.47746  20285097.7274                   20285094.3674
   3667124.94547   2842974.90645  22582035.1884                   22582031.9924
  -1518592.32447  -1176078.85546  21641873.4924                   21641869.2074
   1437929.44548   1117824.68847  20221009.8594                   20221004.7194
   3792685.40246   2941537.09043  24456006.3834                   24456004.3914
 11  8 10 16 28  0.0000000  0 10G03G06G07G10G13G16G19G08G23G20
    769308.59048    602089.58646  20929189.7034                   20929187.3444
   1850097.10547   1437249.51645  22406156.4224                   22406154.2464
  -1320742.82447  -1027235.69545  22693363.7894                   22693361.4064
    266650.41046    206850.61743  23932751.8914                   23932750.1684
   -594720.25447   -457029.39546  20274738.8984                   20274735.4614
   3728415.66447   2890733.88345  22593697.9304                   22593694.9024
  -1602512.05547  -1241470.82046  21625903.9774                   21625900.1024
   1430742.14156   1132864.99254  24753145.4224                   24753145.4614
   1442068.41448   1121049.83246  20221797.5784                   20221792.2814
   3854067.77746   2989367.41043  24467686.6954                   24467685.2624
 11  8 10 16 28 30.0000000  0 10G03G06G07G10G13G16G19G08G23G20
    756139.18848    591827.71146  20926683.5864                   20926681.6174
   1865666.92247   1449381.80945  22409118.8914                   22409116.7774
  -1404504.14147  -1092504.25045  22677425.0474                   22677421.9884
    236782.98846    183577.27743  23927068.5394                   23927066.2774
   -648713.91447   -499102.37546  20264464.3594                   20264460.5594
   3789745.83247   2938523.58645  22605368.6094                   22605366.0204
  -1686038.71547  -1306556.51246  21610009.5084                   21610005.1724
   1338709.16446   1061151.03943  24735632.3054                   24735632.0164
   1446694.62948   1124654.65246  20222677.7894                   20222672.8594
   3915282.18046   3037066.80943  24479334.7894                   24479334.0784
 11  8 10 16 29  0.0000000  0 10G03G06G07G10G13G16G19G08G23G20
    743525.62948    581998.94546  20924283.3754                   20924281.4694
   1881679.89147   1461859.43045  22412166.0474                   22412164.1024
  -1488319.28547  -1157814.73045  22661475.0164                   22661472.1564
    207339.60946    160634.35244  23921465.4844                   23921463.6294
   -702264.09447   -540829.80546  20254274.0084                   20254270.5164
   3851112.82847   2986341.98045  22617046.8284                   22617043.7464
  -1769170.85547  -1371334.76646  21594189.8364                   21594185.6254
   1246547.65246    989336.94544  24718094.6254                   24718094.3244
   1451807.43048   1128638.62547  20223651.0314                   20223645.9224
   3976325.34846   3084632.73843  24490952.4844                   24490950.8094
 11  8 10 16 29 30.0000000  0 10G03G06G07G10G13G16G19G08G23G20
    731469.71548    572604.71146  20921989.4064                   20921987.0554
   1898136.18447   1474682.47745  22415298.1094                   22415295.7114
  -1572186.36346  -1223165.69145  22645516.0234                   22645513.0164
    178321.10246    138022.49243  23915943.4924                   23915941.8594
   -755367.58647   -582209.15646  20244168.7974                   20244165.1564
   3912515.82847   3034188.42645  22628731.6884                   22628727.8364
  -1851904.14847  -1435802.23446  21578446.0704                   21578442.2584
   1154259.16846    917423.94144  24700533.1644                   24700532.2974
   1457407.90647   1133002.60547  20224716.8204                   20224711.1564
   4037196.14846   3132064.34843  24502535.5634                   24502536.1724
 11  8 10 16 30  0.0000000  0 10G03G06G07G10G13G16G19G08G23G20
    719975.42248    563648.10946  20919802.0634                   20919799.8794
   1915038.82447   1487853.34445  22418514.4384                   22418512.4064
  -1656100.65247  -1288553.44145  22629547.4454                   22629545.3674
    149731.42646    115744.80543  23910503.5474                   23910500.7814
   -808018.26647   -623235.67246  20234149.9224                   20234146.0234
   3973956.96947   3082064.60545  22640423.5084                   22640420.0004
  -1934231.30147  -1499953.23846  21562779.6174                   21562775.2774
   1061847.61747    845414.99243  24682947.4384                   24682946.4414
   1463500.14848   1137749.78547  20225875.9774                   20225870.8634
   4097896.54746   3179363.18043  24514086.2344                   24514087.2154
 11  8 10 16 30 30.0000000  0 10G03G06G07G10G13G16G19G08G23G20
    709045.03948    555130.91046  20917721.8984                   20917719.9494
   1932389.37947   1501373.22745  22421815.9614                   22421813.7384
  -1740058.85947  -1353975.39845  22613571.0314                   22613568.2194
    121572.33647     93802.62144  23905144.6484                   23905142.9884
   -860211.78147   -663905.94546  20224217.6174                   20224214.2034
   4035436.93447   3129971.04745  22652122.7584                   22652119.3094
  -2016147.13747  -1563783.74246  21547191.9224                   21547187.4734
    969315.66047    773312.25443  24665339.3754                   24665338.3244
   1470086.65248   1142882.09046  20227129.3594                   20227124.3914
   4158426.82446   3226529.41043  24525604.2504                   24525604.8444
 11  8 10 16 31  0.0000000  0 10G03G06G07G10G13G16G19G08G23G20
    698684.17248    547057.49246  20915750.3364                   20915748.3874
   1950192.49647   1515245.75845  22425204.0474                   22425201.4964
  -1824054.96547  -1419426.88345  22597586.9384                   22597584.0124
     93849.15647     72200.13744  23899869.4774                   23899867.4804
   -911939.82047   -704213.53146  20214374.1564                   20214370.6684
   4096959.22747   3177910.46545  22663830.0004                   22663826.5824
  -2097643.21547  -1627287.15646  21531683.7344                   21531679.6724
    876669.07847    701120.11343  24647709.0784                   24647707.6294
   1477172.85548   1148403.78146  20228478.0164                   20228472.7194
   4218790.35945   3273565.75042  24537090.6484                   24537092.5084
 11  8 10 16 31 30.0000000  0  9G03G06G07G10G13G16G19G08G23
    688893.51248    539428.39846  20913886.7664                   20913885.2854
   1968448.14547   1529470.92245  22428677.4694                   22428675.8634
  -1908087.09047  -1484906.44945  22581596.0864                   22581593.3204
     66562.51647     50937.78944  23894676.6484                   23894675.0824
   -963199.73047   -744156.32046  20204619.7734                   20204616.0784
   4158523.14547   3225882.31345  22675545.2274                   22675541.8914
  -2178715.63347  -1690460.44546  21516255.9694                   21516251.7704
    783908.82447    628839.35943  24630057.3134                   24630055.7504
   1484760.10548   1154315.90246  20229921.4844                   20229916.5824
 11  8 10 16 32  0.0000000  0  9G03G06G07G10G13G16G19G08G23
    679675.37548    532245.41846  20912133.3674                   20912131.0984
   1987157.57047   1544049.70345  22432237.7194                   22432236.4494
  -1992152.62147  -1550412.05545  22565599.0394                   22565596.5864
     39713.97746     30016.81644  23889567.4924                   23889565.8714
  -1013987.12547   -783730.92246  20194955.2504                   20194952.0744
   4220129.35547   3273887.12145  22687268.6564                   22687265.4024
  -2259358.90247  -1753299.34446  21500910.0004                   21500905.5704
    691037.16847    556471.86743  24612384.7114                   24612383.1844
   1492850.19147   1160619.83247  20231460.9694                   20231456.1024
 11  8 10 16 32 30.0000000  0  9G03G06G07G10G13G16G19G08G23
    671039.04348    525515.79746  20910489.7034                   20910487.6994
   2006329.22347   1558988.62945  22435886.4144                   22435884.4734
  -2076241.17647  -1615935.58645  22549597.4844                   22549594.5664
     13312.70346      9444.38344  23884543.7584                   23884542.5434
  -1064290.46947   -822928.34047  20185382.9454                   20185379.5554
   4281785.23047   3321930.61745  22699001.6334                   22698998.0474
  -2339560.85947  -1815794.35546  21485648.0784                   21485643.8094
    598063.53946    484024.89843  24594692.4774                   24594690.2384
   1501452.58247   1167322.95746  20233098.0944                   20233093.1844
 11  8 10 16 33  0.0000000  0  9G03G06G07G10G13G16G19G08G23
    662988.57448    519242.69546  20908957.7034                   20908955.4844
   2025966.16447   1574290.12945  22439623.2274                   22439621.0594
  -2160347.94547  -1681473.30545  22533592.0944                   22533589.6524
    -12637.89847    -10776.89544  23879605.9694                   23879603.8954
  -1114103.73047   -861743.87546  20175903.6174                   20175900.4384
   4343493.20347   3370014.71545  22710743.8834                   22710740.5664
  -2419314.71147  -1877940.19946  21470471.7424                   21470467.1024
    504992.54746    411502.10543  24576980.4144                   24576979.3324
   1510571.28947   1174428.41847  20234833.4064                   20234828.3444
 11  8 10 16 33 30.0000000  0  9G03G06G07G10G13G16G19G08G23
    655524.53148    513426.54346  20907537.5634                   20907535.0314
   2046068.15647   1589954.01245  22443448.2814                   22443445.9384
  -2244471.22347  -1747023.88745  22517584.3364                   22517581.5594
    -38137.34446    -30646.59844  23874752.6804                   23874751.8524
  -1163423.76247   -900175.08247  20166518.4064                   20166515.0474
   4405252.18447   3418138.54745  22722496.0004                   22722492.8674
  -2498616.87547  -1939734.08646  21455381.0394                   21455376.4454
    411825.19546    338904.28142  24559251.3524                   24559250.7114
   1520207.40248   1181937.05146  20236667.0784                   20236661.9104
 11  8 10 16 34  0.0000000  0  9G03G06G07G10G13G16G19G08G23
    648646.82448    508067.27746  20906228.9304                   20906227.0004
   2066634.12947   1605979.44945  22447362.5474                   22447359.7854
  -2328610.37147  -1812586.83645  22501573.1724                   22501570.4184
    -63186.18046    -50165.21944  23869986.5004                   23869984.8634
  -1212248.73448   -938220.53147  20157227.4534                   20157223.9384
   4467060.61747   3466300.93045  22734258.1174                   22734254.6254
  -2577464.14147  -2001173.50446  21440376.5704                   21440372.2734
    318561.45746    266231.33642  24541503.1414                   24541503.8014
   1530360.52048   1189848.53146  20238599.2734                   20238594.2194
 11  8 10 16 34 30.0000000  0  9G03G06G07G10G13G16G19G08G23
    642355.11348    503164.62946  20905031.6954                   20905029.0704
   2087662.44947   1622365.13745  22451363.6094                   22451360.8954
  -2412765.23047  -1878162.00845  22485558.4844                   22485556.3524
    -87785.53146    -69333.55944  23865305.6254                   23865304.3484
  -1260577.06248   -975878.98447  20148030.7664                   20148027.3714
   4528915.91847   3514499.82045  22746028.7504                   22746024.9964
  -2655854.40247  -2062256.80546  21425459.4614                   21425454.6844
    225201.10246    193483.10943  24523738.0164                   24523737.0004
   1541029.85548   1198162.27346  20240629.6174                   20240624.4264
 11  8 10 16 35  0.0000000  0  9G03G06G07G10G13G16G19G08G23
    636650.02348    498719.08646  20903945.8754                   20903943.3524
   2109153.27747   1639111.22345  22455453.1804                   22455450.5354
  -2496933.59047  -1943747.71945  22469542.3524                   22469539.1684
   -111934.81646    -88151.23044  23860710.0004                   23860708.9184
  -1308405.88747  -1013148.21146  20138929.0084                   20138925.6134
   4590817.87147   3562735.07045  22757808.3754                   22757804.9224
  -2733783.41047  -2122980.69946  21410630.0084                   21410625.3834
    131745.34446    120660.48043  24505953.9694                   24505953.1254
   1552216.51248   1206879.10947  20242758.4534                   20242753.3164
 11  8 10 16 35 30.0000000  0  9G03G06G07G10G13G16G19G08G23
    631534.21548    494732.73046  20902972.5394                   20902970.0984
   2131108.28947   1656219.01645  22459630.7034                   22459628.6764
  -2581112.06247  -2009341.30145  22453523.6564                   22453520.7774
   -135631.84046   -106616.49643  23856200.2034                   23856199.1334
  -1355730.14547  -1050024.27047  20129923.6414                   20129920.4144
   4652767.50047   3611007.50845  22769596.7894                   22769593.7424
  -2811245.77347  -2183340.97346  21395889.4144                   21395885.1414
     38197.07847     47765.76643  24488152.9224                   24488151.7544
   1563923.17247   1216001.15646  20244986.1414                   20244980.8634
 11  8 10 16 36  0.0000000  0  9G03G06G07G10G13G16G19G08G23
    627008.55548    491206.24246  20902111.0084                   20902108.6024
   2153527.43447   1673688.46945  22463896.9614                   22463894.8954
  -2665298.55147  -2074941.15245  22437503.1884                   22437500.4184
   -158876.04346   -124728.89143  23851776.7894                   23851776.4494
  -1402546.67647  -1086504.69947  20121014.9224                   20121011.6954
   4714764.11347   3659316.47745  22781394.8594                   22781390.7304
  -2888237.45747  -2243334.48446  21381238.5704                   21381234.2774
    -55442.00047    -25199.71543  24470334.1724                   24470332.2344
   1576150.78948   1225529.14546  20247312.9384                   20247307.8524
 11  8 10 16 36 30.0000000  0  9G03G06G07G10G13G16G19G08G23
    623074.46148    488140.69546  20901362.3674                   20901360.1844
   2176411.45747   1691520.16045  22468251.8594                   22468249.9184
  -2749490.35247  -2140545.15245  22421482.1724                   22421479.1804
   -181665.84846   -142487.22343  23847439.9064                   23847439.3404
  -1448851.42247  -1122586.33247  20112203.3834                   20112199.9384
   4776807.76647   3707662.15245  22793201.3284                   22793197.5234
  -2964754.03547  -2302957.77746  21366677.8914                   21366673.4304
   -149170.15646    -98234.67243  24452497.5314                   24452495.6914
   1588900.92648   1235464.28946  20249739.2584                   20249734.3444
 11  8 10 16 37  0.0000000  0  9G03G06G07G10G13G16G19G08G23
    619735.41448    485538.83246  20900727.2344                   20900724.7504
   2199762.72347   1709715.93845  22472695.3754                   22472692.8834
  -2833683.35247  -2206150.06245  22405460.8054                   22405458.0744
   -203998.54746   -159889.36744  23843190.2194                   23843188.9494
  -1494639.39147  -1158265.28146  20103490.2424                   20103486.9384
   4838900.66847   3756046.20745  22805016.8834                   22805013.6294
  -3040789.08247  -2362205.85946  21352208.7664                   21352204.1994
   -242983.62146   -171336.10942  24434645.1484                   24434643.8484
   1602176.88748   1245809.15646  20252265.5004                   20252260.5864
 11  8 10 16 37 30.0000000  0  9G03G06G07G10G13G16G19G08G23
    616989.59448    483399.22346  20900205.0314                   20900202.2464
   2223578.68047   1728273.79745  22477227.5234                   22477225.5864
  -2917877.91048  -2271756.19545  22389438.9064                   22389436.1454
   -225876.46946   -176937.14544  23839027.3594                   23839026.0124
  -1539910.08247  -1193541.15247  20094875.4924                   20094871.8754
   4901039.88347   3804466.35245  22816841.5784                   22816837.8164
  -3116341.00847  -2421077.48846  21337831.8524                   21337827.7074
   -336882.94146   -244504.38743  24416776.5164                   24416775.1644
   1615976.94148   1256562.41446  20254891.5784                   20254886.5864
 11  8 10 16 38  0.0000000  0  9G03G06G07G10G13G16G19G08G23
    614838.60248    481723.13745  20899795.2034                   20899793.2704
   2247860.35547   1747194.58245  22481848.3054                   22481846.1684
  -3002071.14147  -2337361.30545  22373417.5634                   22373414.5944
   -247298.19147   -193629.43444  23834950.9614                   23834949.8634
  -1584659.54347  -1228410.87147  20086359.8284                   20086356.6214
   4963225.28547   3852922.46144  22828675.7194                   22828671.5314
  -3191405.35948  -2479569.18746  21323547.1334                   21323542.6374
   -430866.23846   -317738.09843  24398892.7114                   24398892.0124
   1630303.12948   1267725.64546  20257617.8984                   20257612.6844
 11  8 10 16 38 30.0000000  0  9G03G06G07G10G13G16G19G08G23
    613282.95748    480510.93045  20899499.1724                   20899497.2234
   2272607.31347   1766477.89545  22486557.4064                   22486555.9844
  -3086261.03547  -2402963.80545  22357396.7974                   22357394.0664
   -268263.44146   -209966.05543  23830961.9844                   23830960.0004
  -1628884.63348  -1262871.99246  20077944.3054                   20077940.6524
   5025456.53547   3901414.31644  22840517.8524                   22840513.9804
  -3265978.54347  -2537678.15646  21309356.6954                   21309351.7074
   -524932.14146   -391036.11343  24380991.6644                   24380991.3984
   1645155.95748   1279299.24646  20260444.2504                   20260439.5864
 11  8 10 16 39  0.0000000  0  9G03G06G07G10G13G16G19G08G23
    612322.71948    479762.69546  20899316.3524                   20899314.2854
   2297818.73047   1786123.14845  22491355.0474                   22491353.0394
  -3170446.53947  -2468562.89545  22341377.0164                   22341374.0274
   -288772.15246   -225946.92643  23827059.0084                   23827057.5274
  -1672583.29747  -1296922.90647  20069628.8674                   20069625.4574
   5087732.21147   3949940.77745  22852368.8284                   22852364.7424
  -3340057.32448  -2595401.86746  21295259.5474                   21295255.6174
   -619080.61347   -464398.47744  24363076.2114                   24363075.7814
   1660535.09048   1291282.95346  20263370.9064                   20263365.9384
 11  8 10 16 39 30.0000000  0  9G03G06G07G10G13G16G19G08G23
    611954.50848    479475.75446  20899247.0474                   20899244.5514
   2323490.46947   1806127.08245  22496240.0394                   22496238.0204
  -3254629.73047  -2534160.17645  22325356.9454                   22325354.0314
   -308827.98447   -241574.89144  23823243.3204                   23823240.5434
  -1715756.53947  -1330564.40247  20061413.1334                   20061409.3714
   5150047.76247   3998498.33245  22864226.6884                   22864223.3594
  -3413641.57847  -2652740.24246  21281257.0004                   21281253.0634
   -713313.44147   -537826.60544  24345144.4774                   24345144.2424
   1676437.82048   1303674.65646  20266396.7894                   20266392.0904
 11  8 10 16 40  0.0000000  0  9G03G06G07G10G13G16G19G08G23
    612179.46548    479651.03946  20899289.4064                   20899287.1604
   2349623.07847   1826490.12545  22501213.2664                   22501210.8164
  -3338807.89147  -2599753.53145  22309338.4144                   22309336.1174
   -328430.27747   -256849.42244  23819512.7504                   23819511.1764
  -1758401.25847  -1363794.06647  20053297.9774                   20053294.2774
   5212403.52347   4047087.19945  22876092.0784                   22876089.7114
  -3486727.53147  -2709690.34046  21267349.4144                   21267345.1174
   -807629.31647   -611319.44944  24327197.3204                   24327196.7704
   1692865.13748   1316475.14146  20269523.1334                   20269517.9184
 11  8 10 16 40 30.0000000  0  9G03G06G07G10G13G16G19G08G23
    612995.30147    480286.75046  20899444.5634                   20899441.7234
   2376213.18447   1847209.66445  22506272.8204                   22506270.8204
  -3422982.19547  -2665343.87545  22293320.2424                   22293318.1914
   -347581.61347   -271772.58644  23815868.7584                   23815866.7584
  -1800517.00048  -1396611.53547  20045283.6254                   20045280.5314
   5274795.87547   4095704.57845  22887965.3984                   22887962.4924
  -3559314.55148  -2766251.64846  21253536.6724                   21253532.1374
   -902029.42247   -684877.92244  24309233.0234                   24309232.7384
   1709814.81348   1329682.65246  20272748.5784                   20272743.4144
 11  8 10 16 41  0.0000000  0  9G03G06G07G10G13G16G19G08G23
    614399.77347    481381.13346  20899711.8984                   20899709.3054
   2403257.71547   1868283.28145  22511419.2034                   22511417.2464
  -3507153.35947  -2730931.77745  22277303.8364                   22277300.6994
   -366284.89147   -286346.59843  23812308.9384                   23812306.9104
  -1842104.20347  -1429017.16447  20037369.7974                   20037366.7384
   5337221.13747   4144347.59445  22899844.2344                   22899841.0744
  -3631401.66848  -2822423.42246  21239818.8914                   21239814.7304
   -996516.03947   -758503.82844  24291253.1174                   24291252.2074
   1727284.60548   1343295.44146  20276072.8444                   20276068.0984
 11  8 10 16 41 30.0000000  0  9G03G06G07G10G13G16G19G08G23
    616392.95348    482934.23846  20900091.2814                   20900088.4804
   2430756.46147   1889710.86345  22516652.6094                   22516650.5044
  -3591319.66447  -2796515.89845  22261287.3834                   22261284.4224
   -384539.94547   -300571.33243  23808835.3054                   23808833.3204
  -1883159.99647  -1461008.69947  20029557.3204                   20029553.9064
   5399679.15647   4193016.14145  22911730.1334                   22911726.8324
  -3702985.15248  -2878202.76246  21226197.2114                   21226192.6644
  -1091087.28146   -832195.64544  24273256.3364                   24273255.5004
   1745274.99248   1357313.89846  20279496.3834                   20279491.6174
 11  8 10 16 42  0.0000000  0  9G03G06G07G10G13G16G19G08G23
    618973.38747    484944.95346  20900582.1484                   20900579.6684
   2458706.96547   1911490.45345  22521970.8284                   22521968.8714
  -3675481.06247  -2862096.20345  22245271.9774                   22245269.0124
   -402348.10247   -314447.87144  23805446.9924                   23805445.8094
  -1923683.76247  -1492585.68447  20021846.1024                   20021842.5204
   5462167.02747   4241707.94544  22923621.1254                   22923618.4804
  -3774063.46148  -2933588.44546  21212671.5634                   21212666.9384
  -1185743.85946   -905953.98043  24255243.8674                   24255242.0634
   1763784.60248   1371736.93846  20283018.7194                   20283013.9614
 11  8 10 16 42 30.0000000  0  9G03G06G07G10G13G16G19G08G23
    622141.69947    487413.75446  20901184.9694                   20901182.9774
   2487108.93847   1933621.85545  22527375.4924                   22527373.4454
  -3759635.69947  -2927671.22345  22229257.9454                   22229254.9884
   -419709.64847   -327976.39844  23802142.7974                   23802141.1414
  -1963672.83647  -1523746.00046  20014236.3914                   20014232.7274
   5524684.16847   4290422.55144  22935517.5314                   22935514.6134
  -3844633.56647  -2988578.12546  21199242.2194                   21199237.3484
  -1280484.44946   -979777.75443  24237214.3444                   24237213.9694
   1782813.34048   1386564.48846  20286639.7584                   20286634.8914
 11  8 10 16 43  0.0000000  0  9G03G06G07G10G13G16G19G08G23
    625897.51647    490340.34446  20901899.9774                   20901897.7034
   2515961.71147   1956104.50445  22532866.2344                   22532864.5354
  -3843781.71147  -2993239.54345  22213245.5394                   22213242.5864
   -436624.76247   -341157.02344  23798923.9144                   23798922.6294
  -2003124.69548  -1554487.71946  20006728.7664                   20006725.2424
   5587229.97347   4339159.50844  22947420.1644                   22947416.5634
  -3914691.70348  -3043168.87946  21185910.6884                   21185905.4024
  -1375307.97746  -1053666.14143  24219170.2344                   24219169.8284
   1802362.12148   1401797.27746  20290359.8204                   20290354.7774
 11  8 10 16 43 30.0000000  0  9G03G06G07G10G13G16G19G08G23
    630242.58648    493726.10946  20902726.6804                   20902724.0084
   2545266.24647   1978939.19945  22538442.4774                   22538440.8054
  -3927916.18047  -3058798.85945  22197235.0314                   22197231.8284
   -453091.98047   -353988.68044  23795791.0474                   23795788.7234
  -2042035.54347  -1584807.87547  19999324.3054                   19999321.0084
   5649804.76647   4387919.05144  22959327.1414                   22959324.9104
  -3984233.36747  -3097357.18446  21172677.0394                   21172672.3834
  -1470212.21946  -1127617.43443  24201111.4144                   24201109.7774
   1822432.32848   1417436.37146  20294179.0234                   20294173.8204
 11  8 10 16 44  0.0000000  0  9G03G06G07G10G13G16G19G08G23
    635172.42648    497567.52046  20903664.7504                   20903662.4064
   2575017.03147   2002121.60245  22544104.2664                   22544102.6724
  -4012041.88347  -3124351.32445  22181226.2034                   22181223.6414
   -469116.25447   -366475.16844  23792740.9454                   23792739.7344
  -2080407.69147  -1614708.26247  19992022.3674                   19992018.6524
   5712403.42247   4436697.19544  22971239.9534                   22971236.0984
  -4053260.16447  -3151144.28546  21159541.7034                   21159537.3244
  -1565200.98446  -1201634.58644  24183035.3364                   24183034.7344
   1843019.54348   1433478.31646  20298096.9304                   20298091.8954
 11  8 10 16 44 30.0000000  0  9G03G06G07G10G13G16G19G08G23
    640689.06648    501866.18846  20904714.6174                   20904712.1294
   2605215.69947   2025653.01645  22549850.4454                   22549849.0514
  -4096154.97747  -3189893.98446  22165220.2424                   22165217.4804
   -484695.60247   -378614.96144  23789776.7504                   23789775.1524
  -2118236.64847  -1644185.37547  19984823.6414                   19984820.3984
   5775027.17647   4485494.89844  22983156.6254                   22983153.5824
  -4121766.51647  -3204525.85546  21146505.3594                   21146500.8594
  -1660270.68047  -1275714.82444  24164944.1884                   24164943.5124
   1864126.08248   1449924.95346  20302112.7734                   20302108.0704
 11  8 10 16 45  0.0000000  0  9G03G06G07G10G13G16G19G08G23
    646788.74648    506619.17246  20905875.6094                   20905872.9494
   2635857.47347   2049529.69545  22555682.1024                   22555679.9104
  -4180257.40647  -3255428.34845  22149215.5474                   22149213.1484
   -499833.90647   -390411.07443  23786895.7424                   23786894.1024
  -2155523.87947  -1673240.37946  19977728.2584                   19977724.6764
   5837671.44147   4534308.56644  22995077.2034                   22995074.4384
  -4189753.12147  -3257502.42646  21133567.9534                   21133563.5744
  -1755424.17246  -1349860.32044  24146836.9844                   24146835.8874
   1885747.96948   1466773.14146  20306227.6644                   20306222.6564
 11  8 10 16 45 30.0000000  0  9G03G06G07G10G13G16G19G08G23
    653468.90647    511824.47746  20907146.5864                   20907144.2854
   2666939.64147   2073749.53145  22561596.7274                   22561594.5744
  -4264350.19147  -3320955.18045  22133213.9064                   22133210.7034
   -514533.97347   -401865.71143  23784098.3524                   23784097.1484
  -2192269.34047  -1701873.21946  19970735.8594                   19970732.6804
   5900333.20347   4583135.89544  23007001.6724                   23006998.3714
  -4257219.20747  -3310073.38346  21120729.8674                   21120725.3794
  -1850662.60246  -1424071.98444  24128714.0234                   24128713.1094
   1907883.38348   1484021.48046  20310440.0234                   20310434.7734
 11  8 10 16 46  0.0000000  0  9G03G06G07G10G13G16G19G08G23
    660730.00848    517482.46946  20908528.3594                   20908526.0514
   2698461.41847   2098311.94545  22567594.8754                   22567593.0634
  -4348431.21947  -3386472.85245  22117212.8674                   22117210.8164
   -528795.87147   -412978.93044  23781384.6024                   23781383.3364
  -2228470.66847  -1730082.05947  19963847.0314                   19963843.2424
   5963012.03147   4631976.46944  23018928.9144                   23018926.0784
  -4324161.52047  -3362236.21546  21107991.0554                   21107986.7584
  -1945984.78546  -1498348.96943  24110574.0164                   24110573.2234
   1930532.19147   1501669.87546  20314749.8914                   20314744.5864
 11  8 10 16 46 30.0000000  0  9G03G06G07G10G13G16G19G08G23
    668571.06648    523592.36346  20910020.6644                   20910018.4064
   2730421.48847   2123215.86345  22573676.8834                   22573674.8554
  -4432499.85547  -3451980.88345  22101215.6954                   22101212.6484
   -542620.75047   -423751.58644  23778753.5784                   23778752.1764
  -2264126.43047  -1757865.77747  19957061.6884                   19957058.4614
   6025706.10247   4680828.96944  23030859.2424                   23030856.2814
  -4390577.64847  -3413989.02346  21095352.0864                   21095348.5394
  -2041390.71946  -1572691.17643  24092418.9454                   24092417.4654
   1953693.93448   1519717.94546  20319157.2424                   20319152.2664
 11  8 10 16 47  0.0000000  0  9G03G06G07G10G13G16G19G08G23
    676987.89848    530150.92246  20911622.1414                   20911619.8834
   2762815.21947   2148457.71945  22579840.9304                   22579839.7074
  -4516557.67647  -3517480.44546  22085219.8054                   22085217.6374
   -556012.55547   -434186.80944  23776205.6954                   23776203.7194
  -2299238.15647  -1785225.57847  19950380.4304                   19950376.9964
   6088411.06647   4729689.93044  23042791.9614                   23042788.2704
  -4456468.65647  -3465332.64146  21082813.4844                   21082808.9964
  -2136882.73146  -1647100.54743  24074247.2894                   24074245.4104
   1977364.46148   1538162.48446  20323661.9304                   20323656.5744
 11  8 10 16 47 30.0000000  0  9G03G06G07G10G13G16G19G08G23
    685979.17648    537157.10945  20913332.9144                   20913330.9574
   2795640.57847   2174035.88745  22586087.9064                   22586085.9064
  -4600604.04347  -3582971.11746  22069226.4534                   22069223.7774
   -568972.82847   -444285.75843  23773738.8674                   23773737.7894
  -2333804.91847  -1812160.72747  19943802.7114                   19943798.6484
   6151125.02747   4778557.91844  23054725.1644                   23054722.5864
  -4521832.33247  -3516265.35546  21070375.0004                   21070371.2624
  -2232461.03546  -1721577.10543  24056059.5944                   24056057.0634
   2001542.85948   1557002.75446  20328262.8054                   20328258.0084
 11  8 10 16 48  0.0000000  0  9G03G06G07G10G13G16G19G08G23
    695548.41048    544613.64546  20915154.1804                   20915151.7854
   2828900.36347   2199952.58245  22592416.7664                   22592414.9224
  -4684634.00447  -3648449.00445  22053236.2034                   22053233.4024
   -581498.32447   -454045.91844  23771355.1804                   23771354.2074
  -2367820.80147  -1838666.62947  19937329.4304                   19937325.9494
   6213850.79747   4827435.10244  23066661.2504                   23066659.6134
  -4586662.29347  -3566782.19546  21058038.2584                   21058034.6804
  -2328120.54746  -1796116.96143  24037856.2584                   24037855.0354
   2026232.52348   1576241.41446  20332961.0474                   20332956.4224
 11  8 10 16 48 30.0000000  0  9G03G06G07G10G13G16G19G08G23
    705690.87548    552516.85946  20917084.0314                   20917081.7894
   2862589.20747   2226203.60245  22598827.2814                   22598825.4844
  -4768650.30147  -3713916.23045  22037248.2114                   22037245.7384
   -593594.06647   -463471.20743  23769054.1564                   23769053.1024
  -2401288.40247  -1864745.28946  19930960.9144                   19930957.0864
   6276582.73047   4876317.07844  23078599.8914                   23078595.8754
  -4650960.36747  -3616884.57046  21045802.7974                   21045798.2194
  -2423865.00446  -1870723.01243  24019636.8984                   24019634.7894
   2051429.07048   1595875.05146  20337755.9614                   20337750.8714
 11  8 10 16 49  0.0000000  0  9G03G06G07G10G13G16G19G08G23
    716407.22348    560867.23445  20919123.3054                   20919121.0944
   2896707.38347   2252789.17245  22605320.3674                   22605318.4574
  -4852649.86347  -3779370.42246  22021263.5944                   22021261.3914
   -605259.36346   -472561.10544  23766833.5164                   23766833.3324
  -2434204.39547  -1890394.12947  19924697.0554                   19924693.8054
   6339321.48047   4925204.36744  23090538.6414                   23090534.9924
  -4714722.22747  -3666569.12946  21033669.6094                   21033665.1764
  -2519692.22746  -1945393.51643  24001400.8834                   24001400.2274
   2077133.11348   1615904.14146  20342647.2424                   20342642.5434
 11  8 10 16 49 30.0000000  0  9G03G06G07G10G13G16G19G08G23
    727692.54748    569660.98046  20921270.7114                   20921268.8594
   2931249.38747   2279705.02345  22611892.9614                   22611891.0944
  -4936635.36347  -3844813.65245  22005281.8754                   22005279.2304
   -616499.32847   -481319.56644  23764694.8984                   23764694.2464
  -2466571.41047  -1915615.19947  19918538.0634                   19918534.5784
   6402061.79746   4974092.89844  23102477.1024                   23102473.5514
  -4777949.75447  -3715837.31646  21021637.7424                   21021633.6644
  -2615605.73847  -2020131.24643  23983148.8284                   23983148.0394
   2103340.17647   1636325.18446  20347634.2344                   20347629.3874
 11  8 10 16 50  0.0000000  0  9G03G06G07G10G13G16G19G08G23
    739548.95348    578899.72745  20923526.8204                   20923524.6134
   2966216.51247   2306952.10945  22618547.0164                   22618545.3244
  -5020603.61747  -3910243.45345  21989303.4534                   21989300.4884
   -627312.32846   -489745.32444  23762637.7274                   23762636.9774
  -2498385.28947  -1940405.25046  19912483.9064                   19912480.5394
   6464804.97347   5022983.64544  23114417.3364                   23114414.2274
  -4840637.69147  -3764685.04346  21009708.6094                   21009704.0354
  -2711602.21947  -2094933.63743  23964881.8444                   23964880.2274
   2130052.32048   1657139.79746  20352717.4924                   20352712.7114
 11  8 10 16 50 30.0000000  0  9G03G06G07G10G13G16G19G08G23
    751971.69948    588579.77746  20925891.3914                   20925889.0864
   3001603.01247   2334525.98845  22625280.7974                   22625279.3634
  -5104557.06647  -3975661.71146  21973327.2664                   21973324.5944
   -637703.50846   -497842.40244  23760659.8674                   23760659.1994
  -2529648.86347  -1964766.49647  19906534.8444                   19906531.3634
   6527545.60947   5071872.43044  23126355.8284                   23126353.0864
  -4902788.02047  -3813113.86346  20997881.5784                   20997877.4694
  -2807685.58247  -2169803.75043  23946598.2974                   23946596.1254
   2157264.28547   1678343.89546  20357895.7034                   20357891.1524
 11  8 10 16 51  0.0000000  0  9G03G06G07G10G13G16G19G08G23
    764956.07048    598697.45346  20928362.1094                   20928359.9264
   3037404.34047   2362423.10944  22632093.9064                   22632091.8444
  -5188497.74247  -4041070.01246  21957353.9304                   21957351.2584
   -647677.19146   -505614.13744  23758762.3914                   23758761.4494
  -2560363.71547  -1988700.16846  19900689.8134                   19900686.2034
   6590279.36747   5120755.81644  23138293.8284                   23138290.9024
  -4964401.65247  -3861124.46546  20986157.0634                   20986152.9844
  -2903858.49247  -2244743.66043  23928296.6564                   23928294.7504
   2184972.09048   1699934.34846  20363168.3524                   20363163.8634
 11  8 10 16 51 30.0000000  0  9G03G06G07G10G13G16G19G08G23
    778504.92248    609254.98045  20930940.0164                   20930937.7504
   3073622.91047   2390645.36745  22638985.8524                   22638983.9104
  -5272420.64147  -4106464.45745  21941383.9384                   21941381.0824
   -657230.37946   -513058.24643  23756944.4774                   23756944.0354
  -2590524.67247  -2012202.22747  19894950.3984                   19894946.9924
   6653008.68847   5169635.76244  23150230.7894                   23150227.8634
  -5025472.68047  -3908712.25846  20974535.7504                   20974531.3984
  -3000116.23847  -2319749.62943  23909979.3594                   23909978.1294
   2213179.18447   1721913.85946  20368536.1484                   20368531.1094
 11  8 10 16 52  0.0000000  0  9G03G06G07G10G13G16G19G08G23
    792614.87148    620249.73845  20933625.1954                   20933623.1094
   3110254.49247   2419189.43445  22645956.6724                   22645954.6884
  -5356326.87547  -4171845.94145  21925417.3914                   21925414.2074
   -666367.12947   -520177.82444  23755205.8284                   23755205.1374
  -2620132.84847  -2035273.55146  19889315.8444                   19889312.7234
   6715730.01647   5218509.49244  23162166.5634                   23162164.0044
  -5086001.34447  -3955877.43746  20963017.1644                   20963013.1254
  -3096460.77347  -2394823.23844  23891645.7814                   23891644.1604
   2241881.89847   1744279.57046  20373998.1094                   20373993.6454
 11  8 10 16 52 30.0000000  0  9G03G06G07G10G13G16G19G08G23
    807287.26248    631682.75445  20936417.3284                   20936414.8794
   3147299.81347   2448055.90245  22653006.1174                   22653004.3754
  -5440213.43447  -4237212.08646  21909454.0164                   21909451.3554
   -675086.06647   -526971.85544  23753546.7114                   23753546.0434
  -2649184.67247  -2057911.35246  19883787.8754                   19883784.4844
   6778444.08246   5267377.53544  23174100.0864                   23174098.3164
  -5145983.39147  -4002616.69146  20951603.2974                   20951598.9144
  -3192889.79347  -2469962.71144  23873295.3754                   23873294.2814
   2271081.66448   1767032.59846  20379554.7504                   20379549.8984
 11  8 10 16 53  0.0000000  0  9G03G06G07G10G13G16G19G08G23
   2397938.78548   1871151.44945  21239108.1414                   21239105.9734
   4760174.60247   3704841.42645  22959925.9224                   22959923.9264
  -3948657.44147  -3074960.64546  22193287.9774                   22193284.9734
    892030.34846    694157.77343  24051758.8674                   24051758.6294
  -1102259.36747   -852515.03146  20178157.9924                   20178154.6054
   8416566.66046   6543836.65244  23485824.4304                   23485821.9614
  -3629996.14147  -2821327.90246  21240085.7424                   21240081.8874
  -1713980.62547  -1317565.88343  24154722.2504                   24154721.5274
   3876195.16447   3017770.34846  20684997.4224                   20684993.0234
 11  8 10 16 53 30.0000000  0  9G03G06G07G10G13G16G19G08G23
   2413728.26648   1883454.92246  21242112.7894                   21242110.3444
   4798038.82447   3734346.00044  22967131.2974                   22967129.3674
  -4032504.35247  -3140295.89846  22177332.5234                   22177329.4774
    884139.48046    688009.02044  24050257.1024                   24050256.5744
  -1130198.48047   -874285.78146  20172841.2894                   20172837.8014
   8479258.94146   6592687.69544  23497755.1334                   23497752.5664
  -3688882.34047  -2867213.24646  21228880.0704                   21228876.0394
  -1810579.93746  -1392838.03944  24136340.5314                   24136339.2894
   3906382.58248   3041292.97346  20690742.2734                   20690737.3874
 11  8 10 16 54  0.0000000  0  9G03G06G07G10G13G16G19G08G23
   2430073.15648   1896191.18845  21245223.0784                   21245220.9264
   4836308.20347   3764166.28144  22974413.7584                   22974412.2974
  -4116331.22747  -3205615.52346  22161380.4924                   22161378.3674
    876659.06646    682180.07044  24048833.3054                   24048832.9694
  -1157581.35247   -895623.10246  20167630.4924                   20167626.7854
   8541936.51646   6641527.30144  23509682.5784                   23509679.4024
  -3747219.32447  -2912670.60946  21217778.9614                   21217775.1134
  -1907265.67246  -1468177.52343  24117941.7424                   24117940.5594
   3937060.29348   3065197.63746  20696579.9384                   20696575.1024
 11  8 10 16 54 30.0000000  0  9G03G06G07G10G13G16G19G08G23
   2446977.80148   1909363.62145  21248440.3984                   21248437.6764
   4874986.67247   3794305.32845  22981773.8914                   22981772.2274
  -4200131.87147  -3270914.71546  22145434.1254                   22145431.1524
    869593.16846    676674.14144  24047489.3364                   24047488.9384
  -1184401.43047   -916521.87946  20162526.8204                   20162523.7194
   8604603.78146   6690358.90644  23521607.6094                   23521605.1374
  -3804999.62547  -2957694.20346  21206783.7814                   21206779.2814
  -2004031.73446  -1543579.59043  24099527.3834                   24099526.1564
   3968233.09847   3089488.08646  20702512.0234                   20702507.4414
 11  8 10 16 55  0.0000000  0  9G03G06G07G10G13G16G19G08G23
   2464440.91048   1922971.21545  21251763.1094                   21251761.3134
   4914072.52047   3824761.80545  22989211.9224                   22989210.5084
  -4283904.52747  -3336192.10246  22129492.4064                   22129489.7854
    862940.41046    671490.14143  24046223.2584                   24046223.2704
  -1210657.36347   -936981.06646  20157530.3754                   20157527.1954
   8667259.08246   6739181.14844  23533530.6414                   23533528.0984
  -3862221.19547  -3002282.42246  21195894.8754                   21195890.4804
  -2100877.32847  -1619043.63344  24081098.4844                   24081097.3284
   3999899.90248   3114163.46946  20708538.1564                   20708533.4454
 11  8 10 16 55 30.0000000  0  9G03G06G07G10G13G16G19G08G23
   2482460.11348   1937012.13745  21255191.8834                   21255189.8444
   4953563.16447   3855533.72345  22996726.5084                   22996725.0354
  -4367649.09047  -3401447.58246  22113556.7504                   22113553.3834
    856698.57846    666626.35243  24045035.1484                   24045034.9774
  -1236348.78148   -957000.36746  20152641.5864                   20152638.0004
   8729900.62946   6787992.70344  23545450.7664                   23545448.0204
  -3918882.91047  -3046434.37946  21185112.6804                   21185107.9804
  -2197802.93047  -1694570.03944  24062654.6414                   24062652.2304
   4032058.92248   3139222.41046  20714657.8134                   20714653.1054
 11  8 10 16 56  0.0000000  0  9G03G06G07G10G13G16G19G08G23
   2501035.91448   1951486.76645  21258727.1254                   21258724.7234
   4993458.54747   3886621.01645  23004318.2894                   23004316.4614
  -4451362.79747  -3466679.03146  22097625.7734                   22097623.3524
    850867.87946    662082.88344  24043926.1094                   24043925.0744
  -1261473.07447   -976577.75846  20147860.6484                   20147857.0944
   8792528.76646   6836793.78544  23557368.4304                   23557366.2894
  -3974981.53147  -3090147.57846  21174437.3444                   21174432.5164
  -2294806.54747  -1770157.20744  24044194.9924                   24044193.2704
   4064710.89547   3164665.46146  20720871.2114                   20720866.6374
 11  8 10 16 56 30.0000000  0  9G03G06G07G10G13G16G19G08G23
   2520167.77748   1966394.70346  21262367.5474                   21262365.9064
   5033757.78147   3918022.98844  23011987.3914                   23011985.5084
  -4535043.74647  -3531884.94946  22081702.3134                   22081699.2384
    845447.84046    657859.42644  24042894.3834                   24042894.4534
  -1286028.43447   -995711.82047  20143188.1334                   20143184.7034
   8855142.84846   6885583.93844  23569283.3364                   23569280.4454
  -4030514.26647  -3133419.81246  21163869.6644                   21163864.8014
  -2391886.80947  -1845804.13744  24025721.0784                   24025719.4184
   4097854.75448   3190491.79746  20727178.4304                   20727173.4574
 11  8 10 16 57  0.0000000  0  9G03G06G07G10G13G16G19G08G23
   2539855.80948   1981736.00845  21266114.1024                   21266112.1884
   5074460.68047   3949739.51245  23019733.1174                   23019730.8914
  -4618688.91847  -3597062.99645  22065785.1094                   22065782.2074
    840438.76646    653956.21544  24041941.5864                   24041941.1174
  -1310012.27347  -1014400.54747  20138624.0554                   20138620.7544
   8917743.51246   6934363.62544  23581196.1024                   23581193.6604
  -4085477.72747  -3176248.46546  21153410.4304                   21153405.9384
  -2489041.44947  -1921508.98444  24007233.3134                   24007231.5394
   4131491.42248   3216702.14546  20733579.1094                   20733574.4384
 11  8 10 16 57 30.0000000  0  9G03G06G07G10G13G16G19G08G23
   2560100.59448   1997511.14846  21269966.9064                   21269964.7234
   5115567.12147   3981770.48844  23027555.0784                   23027553.0314
  -4702295.21147  -3662210.73846  22049875.0474                   22049872.3134
    835841.19947    650373.66044  24041067.0164                   24041066.5984
  -1333421.74248  -1032641.69946  20134169.1804                   20134165.9144
   8980331.14146   6983133.14544  23593106.6954                   23593103.4694
  -4139868.19147  -3218630.62546  21143060.2194                   21143056.0314
  -2586268.09047  -1997269.93744  23988731.3284                   23988730.6094
   4165621.30948   3243296.82046  20740073.9454                   20740068.9614
 11  8 10 16 58  0.0000000  0  9G03G06G07G10G13G16G19G08G23
   2580901.56348   2013719.68046  21273925.2034                   21273922.6524
   5157076.42247   4014115.35545  23035454.2664                   23035453.1214
  -4785860.77747  -3727326.75446  22033973.4924                   22033970.6644
    831654.26647    647111.05144  24040270.3754                   24040269.8094
  -1356255.22747  -1050434.03946  20129824.4224                   20129820.9024
   9042905.60246   7031892.43044  23605013.3754                   23605011.2424
  -4193683.04747  -3260564.26646  21132819.4694                   21132815.3094
  -2683565.52047  -2073086.08244  23970216.7894                   23970215.0164
   4200244.22748   3270275.66846  20746662.5554                   20746658.0164
 11  8 10 16 58 30.0000000  0  9G03G06G07G10G13G16G19G08G23
   2602258.74248   2030361.61745  21277989.3914                   21277986.8794
   5198987.94947   4046773.67644  23043429.8054                   23043428.6684
  -4869383.22747  -3792409.17646  22018079.6334                   22018076.6804
    827877.66847    644168.21144  24039551.3444                   24039551.1454
  -1378510.37948  -1067775.73847  20125589.2584                   20125585.9224
   9105466.93847   7080641.48444  23616919.1484                   23616916.2814
  -4246919.63747  -3302047.30146  21122689.3674                   21122684.6724
  -2780931.94947  -2148955.98044  23951688.5864                   23951686.7934
   4235360.14848   3297638.68446  20753344.5234                   20753340.2154
 11  8 10 16 59  0.0000000  0  9G03G06G07G10G13G16G19G08G23
   2624171.32448   2047436.34045  21282158.6484                   21282157.0984
   5241300.60547   4079744.54745  23051481.7424                   23051480.2974
  -4952860.18047  -3857456.13746  22002194.3364                   22002191.8634
    824510.76647    641544.61344  24038910.6724                   24038910.8164
  -1400185.49248  -1084665.45347  20121464.4064                   20121461.3404
   9168014.43046   7129379.73044  23628821.4064                   23628818.4344
  -4299574.78147  -3343077.27746  21112669.4064                   21112664.9184
  -2878365.77747  -2224878.39144  23933147.7344                   23933145.6414
   4270968.75448   3325385.60246  20760120.7424                   20760116.3524
 11  8 10 16 59 30.0000000  0  9G03G06G07G10G13G16G19G08G23
   2646638.44947   2064943.16445  21286434.3834                   21286432.2664
   5284013.25047   4113027.09044  23059609.1174                   23059608.1054
  -5036289.95747  -3922466.34846  21986318.2734                   21986315.3204
    821552.80947    639239.63744  24038348.1954                   24038347.6684
  -1421279.55147  -1101102.39546  20117450.1884                   20117447.2934
   9230547.35946   7178106.63743  23640721.5474                   23640717.8674
  -4351646.49647  -3383652.62146  21102760.1484                   21102755.5314
  -2975865.99647  -2300852.54344  23914594.1174                   23914592.3834
   4307069.30148   3353515.84846  20766990.5944                   20766986.0394
 11  8 10 17  0  0.0000000  0  9G03G06G07G10G13G16G19G08G23
   2669659.80548   2082881.87145  21290815.2424                   21290813.2544
   5327125.07847   4146620.67244  23067813.9774                   23067811.9064
  -5119670.14547  -3987437.91446  21970451.0314                   21970448.2624
    819003.13347    637252.85544  24037863.0394                   24037862.6334
  -1441790.03948  -1117084.62146  20113547.9384                   20113544.2274
   9293065.93046   7226822.38743  23652617.1254                   23652614.7424
  -4403132.60547  -3423771.67246  21092963.0234                   21092958.3674
  -3073430.89847  -2376877.09044  23896027.6174                   23896025.9654
   4343661.46548   3382029.18046  20773954.0474                   20773949.4414
 11  8 10 17  0 30.0000000  0  9G03G06G07G10G13G16G19G08G23
   2693235.43048   2101252.47345  21295301.5004                   21295299.6294
   5370635.81347   4180525.09444  23076093.4224                   23076091.9964
  -5202998.14547  -4052368.83646  21954594.4064                   21954591.7384
    816861.87947    635584.29744  24037455.7344                   24037454.8874
  -1461714.80948  -1132610.42647  20109756.0084                   20109752.8284
   9355570.71146   7275527.33643  23664511.5944                   23664509.2704
  -4454029.70347  -3463431.73846  21083277.2194                   21083272.8754
  -3171058.52047  -2452950.52044  23877449.0864                   23877448.1724
   4380745.81348   3410926.03546  20781010.8524                   20781006.3954
 11  8 10 17  1  0.0000000  0  9G03G06G07G10G13G16G19G08G23
   2717363.59848   2120053.64145  21299892.9384                   21299890.6994
   5414543.28947   4214738.67244  23084448.6334                   23084446.8444
  -5286272.92247  -4117258.22746  21938747.7504                   21938744.9264
    815127.02747    634232.40644  24037125.6174                   24037124.8284
  -1481053.43748  -1147679.51646  20106076.0944                   20106072.3324
   9418059.66446   7324219.97343  23676403.4384                   23676399.6334
  -4504336.21547  -3502631.60946  21073704.3524                   21073700.2934
  -3268748.35247  -2529072.42644  23858859.8914                   23858858.1024
   4418320.40248   3440204.89146  20788160.9304                   20788156.4574
 11  8 10 17  1 30.0000000  0  9G03G06G07G10G13G16G19G08G23
   2742040.25448   2139282.17645  21304588.5234                   21304587.2074
   5458843.36747   4249258.18444  23092878.7034                   23092876.4694
  -5369495.51647  -4182107.00046  21922911.1174                   21922908.2544
    813794.79347    633194.25844  24036871.9614                   24036870.8204
  -1499807.44548  -1162293.04747  20102507.2664                   20102503.9774
   9480529.47746   7372897.71943  23688290.6884                   23688287.6994
  -4554052.80148  -3541371.80946  21064243.6724                   21064239.1994
  -3366502.09847  -2605244.14544  23840257.8754                   23840256.7664
   4456381.56348   3469862.89146  20795404.0394                   20795399.3634
 11  8 10 17  2  0.0000000  0  9G03G06G07G10G13G16G19G08G23
   2767266.27748   2158938.80145  21309388.9384                   21309387.0744
   5503536.43847   4284083.90244  23101383.5234                   23101381.8204
  -5452662.26647  -4246912.27046  21907085.3204                   21907082.4574
    812866.07847    632470.54744  24036695.6024                   24036693.7274
  -1517973.93448  -1176448.76247  20099050.1174                   20099046.8284
   9542981.59047   7421561.62944  23700175.6484                   23700172.3364
  -4603175.78148  -3579649.45746  21054895.9694                   21054891.0664
  -3464317.26247  -2681463.70344  23821644.2974                   23821643.0044
   4494930.70748   3499901.14546  20802739.8674                   20802735.1214
 11  8 10 17  2 30.0000000  0  9G03G06G07G10G13G16G19G08G23
   2793040.91847   2179022.90245  21314293.7584                   21314291.6484
   5548621.41847   4319215.03144  23109962.6484                   23109960.9064
  -5535771.27747  -4311672.50846  21891269.9924                   21891267.1024
    812339.64547    632060.31343  24036595.1024                   24036593.1254
  -1535551.16448  -1190145.32846  20095705.6254                   20095701.9804
   9605415.42646   7470211.33644  23712056.1254                   23712053.1804
  -4651703.02348  -3617462.89146  21045661.4064                   21045657.1414
  -3562192.55547  -2757730.12944  23803018.6884                   23803017.4804
   4533966.61748   3530318.68846  20810168.2894                   20810163.2154
 11  8 10 17  3  0.0000000  0 10G03G06G07G10G13G16G19G08G23G28
   2819360.48048   2199531.63745  21319302.2974                   21319300.4654
   5594094.44147   4354648.53144  23118615.8364                   23118614.5354
  -5618822.70348  -4376387.90246  21875465.8134                   21875462.8204
    812212.23447    631960.96143  24036571.3674                   24036568.7934
  -1552540.47348  -1203383.75847  20092472.4534                   20092469.0084
   9667828.01247   7518844.47744  23723933.5864                   23723929.5124
  -4699634.75047  -3654812.28146  21036540.1724                   21036535.6564
  -3660128.85947  -2834044.08243  23784381.9534                   23784381.3134
   4573486.09048   3561113.04346  20817688.5314                   20817683.7074
   2995372.34056   2353361.22753  24439406.8364                   24439405.2814
 11  8 10 17  3 30.0000000  0 10G03G06G07G10G13G16G19G08G23G28
   2846211.42248   2220454.44145  21324412.0164                   21324409.8984
   5639941.53947   4390373.48844  23127340.3594                   23127338.8204
  -5701827.88348  -4441067.26246  21859670.1414                   21859667.6954
    812469.97746    632161.73843  24036619.8674                   24036617.8134
  -1568953.32048  -1216173.00046  20089349.1804                   20089345.6844
   9730205.93847   7567450.60244  23735803.4614                   23735800.1994
  -4746981.84448  -3691706.12146  21027530.4924                   21027525.9384
  -3758137.85947  -2910414.67644  23765732.1024                   23765731.2384
   4613475.44948   3592273.53946  20825298.1804                   20825293.5124
   2896977.60947   2276690.11743  24420683.2344                   24420681.7624
 11  8 10 17  4  0.0000000  0 10G03G06G07G10G13G16G19G08G23G28
   2873588.36347   2241787.10545  21329621.6724                   21329619.5594
   5686157.59847   4426385.96944  23136135.6954                   23136133.9224
  -5784788.37948  -4505711.79746  21843883.7814                   21843880.5664
    813108.09846    632658.96943  24036741.3594                   24036738.6524
  -1584792.26248  -1228515.05946  20086335.3834                   20086332.2034
   9792545.21547   7616026.60244  23747666.2194                   23747664.0004
  -4793745.91448  -3728145.65646  21018631.8364                   21018627.2344
  -3856222.01247  -2986843.84044  23747066.4844                   23747066.2814
   4653930.46948   3623796.88346  20832996.4924                   20832991.7194
   2798776.77047   2200170.04743  24401996.5704                   24401994.6644
 11  8 10 17  4 30.0000000  0 10G03G06G07G10G13G16G19G08G23G28
   2901492.68848   2263530.71945  21334931.6024                   21334929.1604
   5732743.25847   4462686.46944  23144999.6884                   23144998.6884
  -5867700.02048  -4570318.25846  21828105.7814                   21828102.8634
    814127.67746    633453.41843  24036935.0864                   24036933.1684
  -1600053.91448  -1240407.27347  20083431.2274                   20083427.6994
   9854847.12147   7664573.49644  23759522.2344                   23759519.0274
  -4839922.81647  -3764127.64846  21009844.3594                   21009840.2114
  -3954377.88347  -3063328.90244  23728388.0234                   23728387.2544
   4694852.18448   3655683.89146  20840783.6174                   20840779.0124
   2700773.63347   2123804.01243  24383347.0944                   24383345.9384
 11  8 10 17  5  0.0000000  0 10G03G06G07G10G13G16G19G08G23G28
   2929924.94948   2285685.71145  21340342.3284                   21340339.7194
   5779698.93047   4499275.27744  23153935.4304                   23153934.0314
  -5950559.78948  -4634884.30946  21812338.2974                   21812335.2344
    815528.97346    634545.24643  24037202.6724                   24037200.1724
  -1614735.82448  -1251847.73446  20080637.4064                   20080633.8754
   9917112.72747   7713092.10244  23771370.9924                   23771367.8794
  -4885508.96948  -3799649.33646  21001169.7344                   21001165.0944
  -4052602.60547  -3139867.59444  23709696.7114                   23709695.2704
   4736241.28948   3687935.09446  20848660.0084                   20848655.1724
   2602970.38346   2047593.79743  24364735.7424                   24364733.6994
 11  8 10 17  5 30.0000000  0 10G03G06G07G10G13G16G19G08G23G28
   2958884.57847   2308251.63745  21345853.2194                   21345850.7584
   5827023.78547   4536151.76644  23162941.2734                   23162940.2464
  -6033364.54348  -4699407.47746  21796581.1174                   21796577.9344
    817311.49246    635934.19543  24037541.2814                   24037539.7854
  -1628836.03548  -1262834.92646  20077954.0784                   20077950.6454
   9979342.60547   7761582.84844  23783212.9224                   23783210.1684
  -4930501.98447  -3834708.82446  20992608.0084                   20992603.6804
  -4150894.54347  -3216458.66844  23690991.8364                   23690991.1024
   4778097.63348   3720550.37946  20856624.3204                   20856620.3554
   2505369.33246   1971541.08643  24346162.4774                   24346161.0434
 11  8 10 17  6  0.0000000  0 10G03G06G07G10G13G16G19G08G23G28
   2988376.01247   2331231.96145  21351465.0784                   21351463.0124
   5874722.12146   4573319.28544  23172017.5004                   23172016.2504
  -6116107.30148  -4763882.34846  21780835.8524                   21780832.3914
    819479.84846    637623.76643  24037953.7194                   24037952.0514
  -1642347.65248  -1273363.48447  20075383.0314                   20075379.6604
  10041541.53546   7810049.49244  23795048.2194                   23795046.1374
  -4974894.62148  -3869300.48046  20984160.0704                   20984155.8204
  -4249246.80947  -3293096.75044  23672276.3364                   23672275.3364
   4820425.62548   3753533.18846  20864679.8444                   20864675.2234
   2407977.04346   1895651.05943  24327629.1094                   24327628.0164
 11  8 10 17  6 30.0000000  0 10G03G06G07G10G13G16G19G08G23G28
   3018396.82847   2354624.78545  21357177.3984                   21357175.6804
   5922791.12147   4610775.61344  23181164.9064                   23181163.3914
  -6198787.13748  -4828308.17246  21765102.1094                   21765098.9804
    822031.36346    639611.91843  24038439.6724                   24038438.7274
  -1655271.52048  -1283434.04347  20072923.5944                   20072920.4694
  10103707.48446   7858490.44144  23806878.1804                   23806875.9304
  -5018686.04748  -3903423.66846  20975826.8984                   20975822.3714
  -4347659.30546  -3369781.77044  23653549.3594                   23653547.7974
   4863223.20748   3786881.90646  20872823.8444                   20872819.3484
   2310793.43446   1819923.58643  24309135.5864                   24309135.3794
 11  8 10 17  7  0.0000000  0 10G03G06G07G10G13G16G19G08G23G28
   3048945.46547   2378428.89845  21362991.2814                   21362988.9024
   5971229.23046   4648519.57044  23190382.6954                   23190381.5744
  -6281402.40248  -4892683.69946  21749381.0784                   21749378.0084
    824964.60946    641897.49243  24038998.1024                   24038997.1524
  -1667606.48448  -1293045.72346  20070576.3204                   20070573.0784
  10165839.97746   7906905.31644  23818701.8204                   23818699.3054
  -5061874.73847  -3937077.18446  20967608.5164                   20967603.7424
  -4446131.18047  -3446513.04744  23634810.3754                   23634809.1254
   4906489.01648   3820595.46946  20881056.8984                   20881052.5944
   2213819.72347   1744359.71543  24290682.2664                   24290681.9654
 11  8 10 17  7 30.0000000  0 10G03G06G07G10G13G16G19G08G23G28
   3080021.61747   2402644.05945  21368904.8134                   21368902.1524
   6020035.45747   4686550.36744  23199670.5164                   23199668.1684
  -6363950.64148  -4957006.98046  21733672.7424                   21733669.4574
    828279.25046    644480.25843  24039628.8834                   24039628.5274
  -1679350.84848  -1302197.19547  20068341.2344                   20068338.2704
  10227939.57846   7955294.52343  23830518.8444                   23830516.2584
  -5104458.21548  -3970259.11746  20959505.1414                   20959500.5004
  -4544660.53547  -3523289.13744  23616061.6024                   23616059.5554
   4950222.49648   3854673.46546  20889379.1884                   20889374.7974
   2117057.73046   1668960.84444  24272268.9694                   24272269.7544
 11  8 10 17  8  0.0000000  0 10G03G06G07G10G13G16G19G08G23G28
   3111620.28547   2427266.38745  21374917.9844                   21374915.6994
   6069204.92646   4724864.22744  23209026.5944                   23209024.7624
  -6446433.02048  -5021278.94546  21717976.5474                   21717973.3794
    831970.79746    647356.69543  24040331.3134                   24040331.9344
  -1690507.28548  -1310890.54747  20066218.5864                   20066215.4534
  10290001.86746   8003654.70343  23842329.2974                   23842326.1334
  -5146438.25847  -4002970.83246  20951516.3524                   20951511.6884
  -4643249.28547  -3600111.50844  23597300.4384                   23597298.6254
   4994419.59848   3889112.72346  20897789.7504                   20897785.4414
   2020504.85246   1593724.93044  24253895.2344                   24253895.0784
 11  8 10 17  8 30.0000000  0 11G03G06G07G10G13G16G19G08G23G28G11
   3143743.77047   2452297.66045  21381030.4454                   21381028.8404
   6118740.15246   4763463.07444  23218453.0084                   23218451.0594
  -6528844.43748  -5085495.62546  21702294.4224                   21702291.4574
    836041.44146    650528.57443  24041106.0004                   24041105.2854
  -1701071.13348  -1319122.14147  20064208.2974                   20064205.0234
  10352030.02346   8051988.27343  23854133.1024                   23854129.5314
  -5187809.33248  -4035208.02346  20943643.8204                   20943639.2424
  -4741892.87947  -3676976.60944  23578529.5474                   23578527.7464
   5039082.56648   3923914.97746  20906288.5234                   20906284.2894
   1924165.78146   1518655.62143  24235562.4304                   24235562.7934
   2982621.32856   2340282.11753  24386731.7584                   24386733.0864
 11  8 10 17  9  0.0000000  0 11G03G06G07G10G13G16G19G08G23G28G11
   3176379.78547   2477728.30145  21387240.8984                   21387239.5434
   6168628.12946   4802336.80144  23227946.3284                   23227944.6334
  -6611193.95348  -5149664.05946  21686623.4454                   21686620.6724
    840478.53946    653985.99243  24041950.1094                   24041950.1334
  -1711052.80148  -1326900.09046  20062309.0084                   20062305.8204
  10414012.24246   8100286.03143  23865927.5394                   23865925.3094
  -5228581.35547  -4066978.42246  20935885.0234                   20935880.8364
  -4840601.47746  -3753892.34844  23559745.2584                   23559743.2304
   5084198.98048   3959070.57046  20914874.3054                   20914869.8634
   1828030.39846   1443745.00843  24217268.1484                   24217268.6134
   2876027.89546   2257222.50443  24366447.6414                   24366448.7734
 11  8 10 17  9 30.0000000  0 11G03G06G07G10G13G16G19G08G23G28G11
   3209522.18447   2503553.53145  21393547.6484                   21393545.8954
   6218862.78146   4841480.66044  23237505.8524                   23237504.3484
  -6693484.33648  -5213786.43746  21670964.0004                   21670961.5864
    845275.98846    657724.20343  24042863.0944                   24042863.5744
  -1720455.95348  -1334227.24247  20060519.6954                   20060516.3984
  10475943.61346   8148544.16843  23877712.7344                   23877710.0434
  -5268757.21147  -4098284.27746  20928239.7034                   20928235.5904
  -4939378.07046  -3830861.11744  23540949.3834                   23540947.3324
   5129763.28148   3994575.18046  20923544.9924                   20923540.4344
   1732095.33646   1368990.52043  24199012.4224                   24199012.7074
   2769334.10546   2174084.76243  24346144.2584                   24346145.4144
 11  8 10 17 10  0.0000000  0 11G03G06G07G10G13G16G19G08G23G28G11
   3243169.85547   2529772.48845  21399950.7034                   21399949.1294
   6269442.84446   4880893.66844  23247131.0784                   23247128.8524
  -6775713.20748  -5277860.86746  21655316.4224                   21655314.1884
    850432.91846    661742.51244  24043844.8674                   24043844.4024
  -1729279.68448  -1341102.89846  20058840.6334                   20058837.5314
  10537824.05946   8196762.67243  23889488.6254                   23889484.7894
  -5308335.02047  -4129124.12146  20920708.1884                   20920704.0274
  -5038221.32446  -3907881.80944  23522139.1254                   23522137.7734
   5175774.57448   4030428.08646  20932300.8754                   20932295.8794
   1636362.06346   1294393.25443  24180795.4144                   24180794.0784
   2662543.57046   2090871.55943  24325823.1174                   24325822.5314
 11  8 10 17 10 30.0000000  0 11G03G06G07G10G13G16G19G08G23G28G11
   3277324.75847   2556386.67645  21406450.1094                   21406448.3244
   6320370.12946   4920577.23844  23256822.5634                   23256820.5634
  -6857875.21548  -5341883.20746  21639682.0004                   21639679.1604
    855951.22746    666042.40643  24044895.0164                   24044894.8404
  -1737519.68048  -1347523.70347  20057272.6024                   20057269.1564
  10599656.43846   8244943.70743  23901254.7274                   23901252.0784
  -5347309.80547  -4159494.07846  20913291.8984                   20913287.3834
  -5137126.56646  -3984950.77744  23503318.5634                   23503316.8444
   5222234.86748   4066630.84846  20941141.6954                   20941137.2934
   1540834.85946   1219956.50043  24162616.7344                   24162616.1134
   2555662.84847   2007588.01643  24305484.7344                   24305483.6094
 11  8 10 17 11  0.0000000  0 11G03G06G07G10G13G16G19G08G23G28G11
   3311986.37547   2583395.69945  21413045.6804                   21413044.0554
   6371643.73446   4960530.66844  23266579.5784                   23266578.0824
  -6939968.03148  -5405851.62546  21624060.0944                   21624057.0944
    861830.14546    670623.30944  24046013.9384                   24046013.6994
  -1745174.76248  -1353488.72347  20055815.5944                   20055812.6134
  10661440.58247   8293087.14844  23913012.1334                   23913009.4384
  -5385679.28547  -4189392.37546  20905990.4224                   20905985.6914
  -5236092.00846  -4062066.68444  23484485.7274                   23484484.3014
   5269143.56648   4103183.03946  20950068.1804                   20950063.4534
   1445515.07446   1145681.37943  24144479.0394                   24144477.8094
   2448696.06646   1924237.40243  24285129.1804                   24285127.0944
 11  8 10 17 11 30.0000000  0 11G03G06G07G10G13G16G19G08G23G28G11
   3347155.38347   2610800.10945  21419738.5084                   21419736.5394
   6423264.44946   5000754.57444  23276402.4144                   23276401.0864
  -7021987.43048  -5469762.82846  21608452.0394                   21608449.4224
    868070.63746    675485.96543  24047201.0634                   24047201.2074
  -1752241.89548  -1358995.60247  20054470.8054                   20054468.0164
  10723178.37547   8341194.48444  23924760.1024                   23924757.6914
  -5423440.16848  -4218816.43746  20898804.7664                   20898800.0944
  -5335114.34847  -4139226.90244  23465642.0864                   23465641.2194
   5316501.86348   4140085.55146  20959080.2344                   20959075.5904
   1350406.36346   1071570.70343  24126379.6804                   24126378.8714
   2341648.83246   1840824.16043  24264757.7734                   24264757.3204
 11  8 10 17 12  0.0000000  0 11G03G06G07G10G13G16G19G08G23G28G11
   3382832.18447   2638600.18445  21426527.7344                   21426525.9494
   6475232.84446   5041249.39844  23286291.6414                   23286290.2234
  -7103929.29348  -5533613.62546  21592859.2664                   21592856.3554
    874673.45746    680630.94544  24048457.5394                   24048457.1024
  -1758718.21548  -1364042.10946  20053238.4694                   20053235.5394
  10784871.89547   8389267.27043  23936500.7274                   23936497.4694
  -5460588.77347  -4247763.39846  20891735.1414                   20891731.1684
  -5434190.20347  -4216428.82844  23446788.7034                   23446787.2034
   5364310.69948   4177339.13746  20968177.8594                   20968173.5634
   1255511.60946    997626.82843  24108321.2664                   24108320.7344
   2234526.70346   1757352.58643  24244373.6724                   24244373.6724
 11  8 10 17 12 30.0000000  0 11G03G06G07G10G13G16G19G08G23G28G11
   3419013.80147   2666793.64145  21433412.5084                   21433411.2974
   6527545.28946   5082012.29344  23296246.8834                   23296245.4804
  -7185793.49247  -5597403.89546  21577281.1414                   21577277.8834
    881635.28546    686055.66443  24049782.2734                   24049782.0124
  -1764604.90648  -1368629.16847  20052118.3524                   20052115.1294
  10846518.46547   8437303.52744  23948231.6884                   23948227.3594
  -5497125.48047  -4276233.55146  20884782.4064                   20884778.6094
  -5533319.59047  -4293672.48444  23427925.5004                   23427923.5164
   5412566.75048   4214941.19946  20977360.6884                   20977356.5314
   1160830.00446    923849.05943  24090304.0234                   24090303.8714
   2127331.25846   1673823.85943  24223973.9614                   24223975.3524
 11  8 10 17 13  0.0000000  0 11G03G06G07G10G13G16G19G08G23G28G11
   3455698.37947   2695379.00445  21440393.8284                   21440391.8204
   6580200.00447   5123041.91444  23306266.6414                   23306265.1604
  -7267578.27047  -5661132.27746  21561717.6724                   21561714.9964
    888954.63346    691758.99644  24051175.2274                   24051175.3634
  -1769901.65648  -1372756.52746  20051109.9064                   20051107.2894
  10908117.43446   8485302.68443  23959952.5084                   23959950.3014
  -5533049.06647  -4304225.95346  20877946.5864                   20877942.4414
  -5632501.81647  -4370957.28544  23409051.5234                   23409050.3874
   5461268.59448   4252890.62546  20986628.4304                   20986624.2034
   1066362.16846    850237.81344  24072327.8134                   24072326.4574
   2020065.84847   1590240.52743  24203562.1484                   24203562.3984
 11  8 10 17 13 30.0000000  0 11G03G06G07G10G13G16G19G08G23G28G11
   3492883.47747   2724354.39145  21447469.3914                   21447467.9064
   6633194.50047   5164336.27744  23316350.7424                   23316349.6374
  -7349282.66447  -5724798.03946  21546170.1724                   21546166.9734
    896628.82046    697738.80944  24052635.4534                   24052635.8284
  -1774608.93748  -1376424.56246  20050214.2504                   20050211.3284
  10969667.52047   8533263.73044  23971665.8204                   23971662.5744
  -5568358.76248  -4331739.99646  20871227.0784                   20871222.9064
  -5731736.60546  -4448283.02044  23390167.6174                   23390166.6484
   5510414.10548   4291185.77746  20995980.5864                   20995976.0044
    972108.31346    776793.29743  24054392.1094                   24054390.9224
   1912732.82447   1506604.50843  24183138.0784                   24183137.6844
 11  8 10 17 14  0.0000000  0 11G03G06G07G10G13G16G19G08G23G28G11
   3530564.97747   2753716.57445  21454640.5474                   21454638.1994
   6686525.01647   5205892.49244  23326499.6334                   23326497.6804
  -7430907.08648  -5788401.46146  21530637.4384                   21530634.5824
    904654.01646    703992.13743  24054162.9924                   24054162.4414
  -1778728.41848  -1379634.57046  20049430.8754                   20049427.6684
  11031166.20746   8581184.71943  23983368.5474                   23983366.1134
  -5603056.14547  -4358776.91046  20864624.7194                   20864620.5274
  -5831024.95347  -4525650.50844  23371273.2274                   23371272.4694
   5559999.39548   4329823.59846  21005416.2894                   21005412.0744
    878067.06647    703514.41443  24036496.4844                   24036494.4264
   1805333.51246   1422916.88343  24162700.3834                   24162701.1134
 11  8 10 17 14 30.0000000  0 11G03G06G07G10G13G16G19G08G23G28G11
   3568742.12547   2783464.98045  21461905.1094                   21461903.0204
   6740190.23847   5247709.52044  23336711.4614                   23336710.5864
  -7512448.80548  -5851940.45746  21515120.2114                   21515117.6564
    913029.32046    710518.28143  24055757.2664                   24055756.3754
  -1782259.20348  -1382385.85547  20048758.4304                   20048755.5594
  11092613.05946   8629065.31643  23995060.8364                   23995058.7664
  -5637139.41848  -4385335.30546  20858139.0634                   20858134.8204
  -5930364.85547  -4603058.19544  23352370.0394                   23352368.6414
   5610023.57448   4368803.42646  21014935.5944                   21014931.2704
    784239.44546    630401.96943  24018642.5004                   24018638.6844
   1697871.68446   1339180.54343  24142250.4144                   24142251.6484
 11  8 10 17 15  0.0000000  0 11G03G06G07G10G13G16G19G08G23G28G11
   3607409.99647   2813595.75845  21469263.4614                   21469261.8094
   6794185.02047   5289783.32044  23346986.4224                   23346985.1094
  -7593909.51248  -5915416.34846  21499619.0004                   21499616.1214
    921749.93646    717313.43043  24057416.7894                   24057415.7894
  -1785204.20348  -1384680.68747  20048198.2274                   20048195.1024
  11154004.48446   8676902.70744  24006744.3594                   24006742.0164
  -5670610.72748  -4411416.84446  20851769.5944                   20851764.7624
  -6029758.78546  -4680507.96144  23333455.7194                   23333454.8284
   5660481.92248   4408121.55146  21024537.7344                   21024533.7034
    690623.27746    557454.33643  24000826.5554                   24000825.3134
   1590347.15246   1255395.27743  24121789.6254                   24121789.8404
 11  8 10 17 15 30.0000000  0 11G03G06G07G10G13G16G19G08G23G28G11
   3646563.82047   2844105.21545  21476714.5864                   21476712.6214
   6848504.68047   5332110.30944  23357323.3674                   23357321.8834
  -7675290.20348  -5978829.84846  21484132.7584                   21484129.9064
    930811.35946    724374.26643  24059140.2664                   24059140.4384
  -1787565.85548  -1386520.96946  20047748.8364                   20047746.0204
  11215336.88746   8724694.13343  24018414.9144                   24018413.5784
  -5703471.88348  -4437022.93446  20845516.2734                   20845511.6214
  -6129208.39147  -4758001.10244  23314531.4064                   23314529.8954
   5711369.98048   4447774.52046  21034221.2664                   21034217.1134
    597216.27346    484669.72343  23983051.6644                   23983050.5434
   1482760.63746   1171561.73843  24101316.1334                   24101316.4304
 11  8 10 17 16  0.0000000  0 11G03G06G07G10G13G16G19G08G23G28G11
   3686198.94947   2874989.69945  21484256.7814                   21484254.4264
   6903145.11347   5374687.21944  23367721.2034                   23367719.3164
  -7756591.75047  -6042181.70746  21468661.4694                   21468658.6374
    940209.12946    731697.09843  24060929.2974                   24060927.8054
  -1789346.51648  -1387908.52047  20047410.0944                   20047407.2034
  11276607.38746   8772437.33643  24030075.1484                   24030072.8874
  -5735724.23447  -4462154.63346  20839379.0394                   20839374.2384
  -6228715.20747  -4835538.82444  23295595.9454                   23295594.3524
   5762683.73448   4487759.21146  21043986.0084                   21043981.6564
    504016.64846    412046.71544  23965316.3524                   23965315.7274
   1375112.66846   1087680.33243  24080831.0554                   24080831.2504
 11  8 10 17 16 30.0000000  0 11G03G06G07G10G13G16G19G08G23G28G11
   3726311.45347   2906246.17245  21491890.0084                   21491887.5704
   6958101.82447   5417510.59844  23378178.3674                   23378177.5124
  -7837814.69547  -6105472.29346  21453205.0474                   21453202.3364
    949938.89546    739278.64143  24062780.3444                   24062779.1724
  -1790548.47748  -1388845.13746  20047181.3444                   20047178.5474
  11337812.99646   8820129.93043  24041721.4614                   24041719.4844
  -5767369.42648  -4486813.21546  20833356.7814                   20833352.3674
  -6328280.18446  -4913121.86344  23276648.5084                   23276647.7424
   5814419.12948   4528072.44146  21053830.8674                   21053826.9844
    411022.65246    339583.93443  23947620.3524                   23947619.6374
   1267404.21947   1003751.75043  24060335.0784                   24060335.0354
 11  8 10 17 17  0.0000000  0 11G03G06G07G10G13G16G19G08G23G28G11
   3766897.77747   2937871.85545  21499613.3204                   21499611.1214
   7013371.27047   5460577.64844  23388696.1804                   23388694.9414
  -7918958.76248  -6168701.43446  21437764.1564                   21437761.3404
    959997.54746    747116.49643  24064694.4064                   24064693.7584
  -1791173.08648  -1389331.87946  20047062.4454                   20047059.6914
  11398951.16846   8867769.98843  24053356.0164                   24053354.0824
  -5798408.15248  -4510999.23846  20827450.6644                   20827446.3244
  -6427904.09047  -4990750.83644  23257691.4694                   23257689.4024
   5866572.78948   4568711.59846  21063755.8364                   21063751.3554
    318233.41046    267280.66843  23929963.1484                   23929961.5204
   1159636.82846    919777.21143  24039827.1884                   24039827.3834
 11  8 10 17 17 30.0000000  0 11G03G06G07G10G13G16G19G08G23G28G11
   3807954.68047   2969864.21545  21507425.8594                   21507424.2934
   7068950.28546   5503885.93844  23399272.0944                   23399271.2034
  -8000023.82048  -6231869.00446  21422338.1644                   21422335.1254
    970381.63746    755207.89843  24066670.2814                   24066669.8874
  -1791221.78148  -1389369.85546  20047053.1254                   20047050.1524
  11460020.00846   8915356.04743  24064977.3834                   24064974.7504
  -5828841.20747  -4534713.30546  20821659.2974                   20821655.5594
  -6527587.64147  -5068426.30544  23238722.4534                   23238720.2074
   5919141.52048   4609674.17646  21073758.9774                   21073754.9804
    225647.97746    195136.18443  23912344.4614                   23912342.7274
   1051812.28146    835758.18043  24019309.3834                   24019309.1334
 11  8 10 17 18  0.0000000  0 11G03G06G07G10G13G16G19G08G23G28G11
   3849477.31647   3002219.48845  21515327.0944                   21515325.3984
   7124834.12146   5547431.74243  23409906.4224                   23409905.1134
  -8081010.64848  -6294975.61346  21406926.7814                   21406923.9224
    981086.47346    763549.25843  24068707.3674                   24068707.1484
  -1790697.18448  -1388961.10546  20047153.0164                   20047150.5824
  11521016.57446   8962885.77743  24076584.3364                   24076581.7464
  -5858670.08647  -4557956.58246  20815982.8674                   20815978.9064
  -6627331.60547  -5146148.82044  23219740.9614                   23219739.4414
   5972120.95348   4650956.79346  21083840.9064                   21083836.4534
    133264.22346    123148.89543  23894764.7424                   23894761.7234
    943931.38346    751695.25443  23998779.7504                   23998780.1254
 11  8 10 17 18 30.0000000  0 11G03G06G07G10G13G16G19G08G23G28G11
   3891461.04747   3034934.05145  21523316.9534                   21523315.0824
   7181017.68846   5591211.13344  23420598.2344                   23420596.3524
  -8161920.56248  -6358022.29746  21391529.8984                   21391527.3284
    992107.18446    772136.72343  24070805.0864                   24070805.3244
  -1789602.33648  -1388108.00447  20047361.6334                   20047358.6604
  11581936.60246   9010355.84843  24088176.9694                   24088174.9454
  -5887897.47348  -4580731.15646  20810421.1174                   20810416.6764
  -6727138.43447  -5223920.35244  23200748.5944                   23200746.3324
   6025506.24248   4692555.65646  21093999.8364                   21093995.3594
     41079.64546     51316.80943  23877221.4844                   23877220.3834
    835993.97746    667588.20743  23978240.9304                   23978239.8714
 11  8 10 17 19  0.0000000  0 11G03G06G07G10G13G16G19G08G23G28G11
   3933903.20747   3068005.82845  21531393.0864                   21531391.3444
   7237498.97746   5635222.46544  23431346.3134                   23431344.8794
  -8242751.93448  -6421007.78146  21376148.3834                   21376145.4774
   1003441.81346    780968.85243  24072961.3054                   24072962.2584
  -1787937.23448  -1386810.55146  20047678.6954                   20047675.4414
  11642779.53146   9057765.86743  24099754.7664                   24099752.4614
  -5916522.35248  -4603036.25046  20804974.1564                   20804969.7234
  -6827007.32047  -5301740.26244  23181744.5474                   23181741.6684
   6079295.33248   4734469.16846  21104235.6484                   21104231.3874
    -50905.43446    -20359.78943  23859717.2734                   23859717.1094
    728003.25446    583439.62943  23957689.9224                   23957690.0164
 11  8 10 17 19 30.0000000  0 11G03G06G07G10G13G16G19G08G23G28G11
   3976802.37547   3101433.72745  21539556.4454                   21539554.8674
   7294276.21146   5679464.41844  23442151.0784                   23442149.5084
  -8323502.80948  -6483930.53146  21360781.9454                   21360779.2774
   1015088.66846    790044.23443  24075178.0084                   24075178.3204
  -1785701.88748  -1385068.74646  20048103.7274                   20048100.8054
  11703544.87946   9105115.41844  24111318.6484                   24111315.9264
  -5944544.46548  -4624871.65646  20799641.5864                   20799637.2934
  -6926936.55947  -5379607.19944  23162728.4304                   23162725.7154
   6133486.78948   4776696.21146  21114547.9144                   21114543.7424
   -142689.99647    -91880.19144  23842252.1414                   23842251.0514
    619962.78946    499252.36743  23937130.9844                   23937131.1174
 11  8 10 17 20  0.0000000  0 11G03G06G07G10G13G16G19G08G23G28G11
   4020154.16847   3135214.31345  21547806.3364                   21547804.1724
   7351345.18446   5723933.69944  23453010.9144                   23453009.2934
  -8404173.94148  -6546791.13746  21345430.5944                   21345427.9884
   1027043.43446    799359.53943  24077453.0784                   24077453.7854
  -1782898.56648  -1382884.36746  20048637.0944                   20048634.0004
  11764230.07846   9152402.50443  24122865.8984                   24122864.5314
  -5971965.03147  -4646238.32846  20794423.7664                   20794419.0704
  -7026927.68747  -5457522.32444  23143700.8674                   23143698.6954
   6188076.71148   4819233.73846  21124936.0234                   21124931.5864
   -234276.30947   -163246.08644  23824824.6724                   23824823.4224
    511873.52046    415027.00843  23916562.2274                   23916563.1884
 11  8 10 17 20 30.0000000  0 11G03G06G07G10G13G16G19G08G23G28G11
   4063959.59447   3169348.37545  21556142.0394                   21556140.1374
   7408706.79346   5768630.98444  23463926.6724                   23463925.3554
  -8484760.47348  -6609585.83646  21330095.6724                   21330092.8444
   1039307.33247    808915.73444  24079787.3444                   24079787.9104
  -1779524.66048  -1380255.37946  20049279.3204                   20049276.2154
  11824837.16046   9199628.81343  24134399.0944                   24134397.0864
  -5998780.73048  -4667133.67246  20789320.8594                   20789316.3524
  -7126976.80947  -5535482.64544  23124662.0004                   23124660.3054
   6243066.00048   4862082.46546  21135400.4304                   21135396.2974
   -325660.55147   -234454.55944  23807434.7194                   23807433.3524
    403741.83246    330768.64143  23895984.6024                   23895984.8874
 11  8 10 17 21  0.0000000  0 11G03G06G07G10G13G16G19G08G23G28G11
   5683629.93447   4431429.13745  21864354.9534                   21864352.7034
   9041771.90646   7041149.21544  23774688.1724                   23774686.4844
  -6989843.07048  -5444715.12946  21614568.9694                   21614565.8914
   2627292.90246   2046307.00044  24381971.5004                   24381971.7814
   -200165.28148   -149585.75846  20349821.6414                   20349818.2114
  13460778.59446  10474388.27343  24445710.0474                   24445704.9304
  -4449575.17648  -3459960.50846  21084124.8204                   21084120.3204
  -5651664.50047  -4385888.62144  23405404.3594                   23405402.9264
   7873865.97348   6132835.62546  21445730.9534                   21445727.2664
   1158575.10946    922092.80543  24089873.7344                   24089873.5744
   1870989.11346   1474078.30143  24175192.8054                   24175193.3484
 11  8 10 17 21 30.0000000  0 11G03G06G07G10G13G16G19G08G23G28G11
   5728330.51647   4466260.72745  21872861.4694                   21872859.2544
   9099706.65246   7086293.10944  23785712.8284                   23785711.1994
  -7070260.81248  -5507378.28946  21599266.1724                   21599263.1884
   2640163.12546   2056335.65644  24384419.6804                   24384420.9534
   -195656.12548   -146072.16046  20350679.7974                   20350676.6684
  13521221.83646  10521486.89543  24457211.2274                   24457208.5554
  -4475185.21148  -3479916.37946  21079251.2664                   21079246.9534
  -5751832.10547  -4463941.28944  23386343.1564                   23386341.7974
   7929642.52048   6176297.79346  21456344.6414                   21456341.4924
   1067589.84846    851195.29743  24072559.8364                   24072558.5124
   1762775.27346   1389755.92243  24154601.1484                   24154601.3324
 11  8 10 17 22  0.0000000  0 11G03G06G07G10G13G16G19G08G23G28G11
   5773472.03947   4501435.89845  21881452.0084                   21881449.6374
   9157921.83646   7131655.53944  23796790.9614                   23796789.4264
  -7150594.77748  -5569976.17246  21583978.8364                   21583975.5664
   2653330.25046   2066595.66844  24386926.0164                   24386926.6644
   -190582.91848   -142119.02746  20351644.9924                   20351641.6884
  13581579.14146  10568518.50444  24468697.1024                   24468694.7894
  -4500194.73848  -3499404.31646  21074492.0314                   21074488.1254
  -5852060.11347  -4542041.00044  23367270.3834                   23367268.9384
   7985806.20748   6220061.62946  21467032.6174                   21467029.5004
    976801.89546    780451.39143  24055283.8524                   24055281.7934
   1654522.32446   1305403.07443  24134000.6174                   24134001.2544
 11  8 10 17 22 30.0000000  0 11G03G06G07G10G13G16G19G08G23G28G11
   5819052.71547   4536953.27745  21890125.7504                   21890123.0394
   9216415.33247   7177234.84844  23807922.0084                   23807920.4964
  -7230843.06648  -5632507.30546  21568707.9924                   21568704.9304
   2666792.12946   2077085.32044  24389488.1484                   24389488.2424
   -184946.03948   -137726.68046  20352717.7734                   20352714.4964
  13641849.94546  10615482.70744  24480165.8444                   24480164.3754
  -4524603.31248  -3518423.97746  21069847.2974                   21069842.7544
  -5952347.37547  -4620186.88745  23348186.2504                   23348185.0044
   8042355.56348   6264125.99246  21477794.1804                   21477790.1844
    886211.47747    709861.48044  24038045.8054                   24038043.9384
   1546233.48446   1221022.28543  24113393.5704                   24113393.0044
 11  8 10 17 23  0.0000000  0 11G03G06G07G10G13G16G19G08G23G28G11
   5865070.61347   4572811.35945  21898882.2344                   21898880.3094
   9275185.56347   7223029.78544  23819105.3204                   23819104.6914
  -7311003.70348  -5694970.12146  21553454.0394                   21553451.1764
   2680547.22746   2087803.51643  24392105.0704                   24392105.8554
   -178745.57448   -132895.17646  20353897.9064                   20353894.7814
  13702033.92645  10662379.20743  24491618.1724                   24491616.7894
  -4548410.28548  -3536974.86346  21065316.9064                   21065312.5314
  -6052692.89847  -4698378.18444  23329091.4144                   23329090.0704
   8099289.07848   6308489.69545  21488628.0394                   21488623.8754
    795819.10947    639425.89544  24020844.6954                   24020843.0044
   1437912.21147   1136616.23043  24092781.2814                   24092780.7504
 11  8 10 17 23 30.0000000  0 11G03G06G07G10G13G16G19G08G23G28G11
   5911523.74647   4609008.57045  21907722.6804                   21907720.2464
   9334230.37147   7269038.66844  23830341.7734                   23830340.3484
  -7391074.69548  -5757363.09446  21538217.2584                   21538214.2034
   2694593.85546   2098748.81644  24394777.6174                   24394779.0234
   -171981.53948   -127624.52347  20355184.4144                   20355181.8714
  13762130.50445  10709207.56642  24503054.1094                   24503052.3714
  -4571615.16048  -3555056.58246  21060901.3834                   21060897.2114
  -6153095.40647  -4776613.85244  23309984.8204                   23309984.0044
   8156604.80548   6353151.21946  21499534.8134                   21499530.7114
    705625.47347    569145.17244  24003681.6724                   24003680.3054
   1329561.66847   1052187.34043  24072162.6414                   24072161.2704
 11  8 10 17 24  0.0000000  0 11G03G06G07G10G13G16G19G08G23G28G11
   5958405.80947   4645540.02045  21916643.5004                   21916641.6954
   9393543.65646   7315256.77744  23841629.3674                   23841627.1134
  -7471058.76648  -5819688.33246  21522996.5864                   21522993.7194
   2708925.12546   2109915.91843  24397505.4924                   24397506.1604
   -164658.43448   -121918.22746  20356578.3364                   20356575.1294
  13822134.86346  10755964.18042  24514473.4774                   24514470.4774
  -4594221.59848  -3572671.98046  21056599.3674                   21056595.7344
  -6253557.91447  -4854896.28544  23290867.7734                   23290866.3594
   8214296.44548   6398105.68046  21510512.9454                   21510509.4924
    615626.86346    499016.47344  23986555.2344                   23986554.2154
   1221181.16847    967735.10543  24051538.2034                   24051537.8714
 11  8 10 17 24 30.0000000  0 11G03G06G07G10G13G16G19G08G23G28G11
   6005715.14148   4682404.40245  21925646.3674                   21925644.3914
   9453124.12546   7361683.07844  23852966.6724                   23852965.6914
  -7550953.04747  -5881943.60946  21507793.3204                   21507790.2384
   2723540.18846   2121304.17643  24400286.1484                   24400287.1484
   -156775.73848   -115775.89546  20358078.1174                   20358075.3554
  13882047.57047  10802649.44143  24525874.8984                   24525872.2274
  -4616228.65648  -3589820.34046  21052411.8754                   21052407.3714
  -6354078.59847  -4933224.04344  23271738.7974                   23271738.1994
   8272362.71148   6443352.04345  21521562.8444                   21521558.8594
    525824.33246    429040.58244  23969465.6804                   23969465.1374
   1112774.80146    883262.73843  24030908.8914                   24030909.0514
 11  8 10 17 25  0.0000000  0 11G03G06G07G10G13G16G19G08G23G28G11
   6053449.40247   4719599.89845  21934729.7504                   21934728.0594
   9512969.49646   7408315.76644  23864354.4064                   23864353.6174
  -7630756.06247  -5944127.77046  21492607.0704                   21492604.1564
   2738436.38746   2132911.50843  24403122.0164                   24403122.2074
   -148334.28548   -109198.16846  20359685.0004                   20359681.6024
  13941867.65646  10849262.48843  24537258.0784                   24537255.6174
  -4637636.52348  -3606501.78946  21048337.6174                   21048333.6294
  -6454656.20347  -5011596.15644  23252600.0394                   23252598.8164
   8330801.78948   6488888.90246  21532683.6094                   21532680.2464
    436218.01646    359217.52344  23952415.2504                   23952412.9924
   1004345.11746    798772.21943  24010275.8674                   24010274.8634
 11  8 10 17 25 30.0000000  0 11G03G06G07G10G13G16G19G08G23G28G11
   6101603.69547   4757122.68445  21943893.5004                   21943891.1724
   9573074.78546   7455151.00444  23875792.1884                   23875791.0594
  -7710468.87547  -6006241.65646  21477437.9844                   21477435.6604
   2753608.89546   2144734.16043  24406009.0394                   24406009.4454
   -139337.26648   -102187.53146  20361396.8284                   20361394.2114
  14001591.64145  10895800.56343  24548622.8054                   24548620.7274
  -4658447.26648  -3622717.94546  21044377.7274                   21044373.4614
  -6555292.50847  -5090014.02344  23233449.1724                   23233448.2774
   8389608.42648   6534712.18046  21543874.1024                   21543870.4884
    346805.28147    289545.26243  23935400.0944                   23935397.5044
    895893.33646    714264.48043  23989638.1644                   23989637.6134
 11  8 10 17 26  0.0000000  0 11G03G06G07G10G13G16G19G08G23G28G11
   6150176.38347   4794971.48845  21953136.4224                   21953134.3284
   9633438.35247   7502187.49244  23887278.9224                   23887278.1564
  -7790089.24648  -6068283.49646  21462286.7274                   21462284.4534
   2769056.40247   2156771.05943  24408949.1174                   24408948.8834
   -129784.48448    -94743.83246  20363214.6564                   20363211.7384
  14061219.46145  10942263.67243  24559969.0474                   24559967.5984
  -4678660.53548  -3638468.54346  21040531.2734                   21040526.9774
  -6655986.33247  -5168476.70744  23214288.0004                   23214286.2544
   8448780.84848   6580820.48046  21555134.6024                   21555130.8094
    257587.11747    220024.62544  23918422.3444                   23918420.0394
    787422.42646    629741.83643  23968997.0084                   23968995.6724
 11  8 10 17 26 30.0000000  0 11G03G06G07G10G13G16G19G08G23G28G11
   6199163.99647   4833143.62145  21962458.1724                   21962456.1054
   9694056.93846   7549422.68044  23898814.0554                   23898813.8634
  -7869616.51248  -6130252.78946  21447153.3204                   21447150.8634
   2784775.39147   2169019.55543  24411939.5704                   24411939.9884
   -119677.73848    -86868.47346  20365137.8204                   20365134.4574
  14120749.35545  10988650.42643  24571298.5004                   24571295.7234
  -4698277.18048  -3653754.23846  21036798.3984                   21036793.6724
  -6756737.58247  -5246984.15244  23195115.8984                   23195114.1024
   8508316.09048   6627211.50046  21566463.5394                   21566459.8484
    168562.44546    150654.77044  23901481.3594                   23901479.9304
    678934.56346    545205.97743  23948351.5784                   23948350.9224
 11  8 10 17 27  0.0000000  0 11G03G06G07G10G13G16G19G08G23G28G11
   6248564.78947   4871637.70345  21971859.4844                   21971857.3984
   9754929.31346   7596855.60944  23910397.4454                   23910397.6214
  -7949047.78147  -6192147.28146  21432038.3754                   21432034.9534
   2800764.73446   2181478.70343  24414981.9384                   24414982.7034
   -109016.64848    -78561.15646  20367166.5314                   20367163.7344
  14180181.89146  11034961.37943  24582607.6954                   24582605.6484
  -4717296.15248  -3668574.21546  21033179.3444                   21033174.4844
  -6857543.82447  -5325534.44144  23175932.9304                   23175931.2304
   8568213.04748   6673884.37146  21577862.0554                   21577857.7154
     79732.50046     81436.73043  23884576.1954                   23884576.6174
    570433.97746    460660.21543  23927704.4924                   23927704.3634
 11  8 10 17 27 30.0000000  0 11G03G06G07G10G13G16G19G08G23G28G11
   6298375.89147   4910451.50845  21981337.8754                   21981335.7814
   9816052.46145   7644484.00043  23922029.2344                   23922028.5044
  -8028382.16047  -6253966.27346  21416941.4694                   21416938.4144
   2817021.15647   2194145.94943  24418076.2194                   24418074.8914
    -97802.82848    -69823.14546  20369300.2664                   20369297.4694
  14239515.50046  11081195.29343  24593898.9064                   24593897.3134
  -4735718.37947  -3682929.19146  21029673.6334                   21029668.8984
  -6958405.09847  -5404127.62144  23156739.4534                   23156737.6294
   8628468.78947   6720836.82445  21589328.2734                   21589323.8364
     -8903.26646     12369.97744  23867710.2734                   23867709.4264
    461923.24246    376106.54343  23907055.6564                   23907055.3444
 11  8 10 17 28  0.0000000  0 11G03G06G07G10G13G16G19G08G23G28G11
   6348593.53147   4949582.09845  21990894.2664                   21990892.2274
   9877422.93845   7692305.10543  23933708.1644                   23933707.0864
  -8107619.61747  -6315709.75046  21401863.0314                   21401859.9924
   2833540.84847   2207018.36343  24421219.8134                   24421220.1214
    -86038.12148    -60655.86746  20371539.4534                   20371536.5434
  14298748.08647  11127350.69942  24605170.8834                   24605166.3714
  -4753545.21147  -3696820.23446  21026281.1024                   21026276.3794
  -7059321.66047  -5482763.88744  23137535.9694                   23137533.8594
   8689079.59847   6768065.94945  21600861.7584                   21600858.4104
    -97346.18746    -56546.52744  23850880.7894                   23850879.1454
    353403.86346    291546.14543  23886405.0234                   23886404.3984
 11  8 10 17 28 30.0000000  0 11G03G06G07G10G13G16G19G08G23G28G11
   6399216.50047   4989028.53145  22000527.4614                   22000525.3954
   9939039.50445   7740317.94943  23945433.2424                   23945432.3364
  -8186757.22747  -6377375.41046  21386803.5784                   21386800.6884
   2850323.00447   2220095.30143  24424413.8204                   24424413.0864
    -73722.21948    -51059.09446  20373882.8754                   20373880.0124
  14357880.22347  11173427.70343  24616423.1564                   24616419.3594
  -4770775.35948  -3710246.32846  21023002.5704                   21022997.9454
  -7160291.12547  -5561441.38744  23118322.2114                   23118319.8754
   8750044.37147   6815570.87945  21612463.0474                   21612459.2194
   -185594.88346   -125311.71144  23834087.2664                   23834085.7114
    244880.17646    206982.37543  23865753.7974                   23865752.2584
 11  8 10 17 29  0.0000000  0 10G03G06G07G10G13G19G08G23G28G11
   6450246.30147   5028791.96545  22010238.0554                   22010236.3914
  10000903.82046   7788523.82443  23957205.4224                   23957204.9144
  -8265789.21948  -6438958.77046  21371764.7274                   21371761.5864
   2867369.26246   2233378.03143  24427657.6644                   24427656.4884
    -60851.90248    -41030.30946  20376332.2424                   20376329.3794
  -4787404.98448  -3723204.46946  21019838.1414                   21019833.5864
  -7261308.75447  -5640156.39144  23099098.4924                   23099097.2774
   8811364.74647   6863352.90646  21624132.2194                   21624128.4694
   -273645.21146   -193922.29743  23817331.3984                   23817330.0744
    136359.38346    122420.89543  23845102.2814                   23845102.8284
 11  8 10 17 29 30.0000000  0 10G03G06G07G10G13G19G08G23G28G11
   6501681.68047   5068871.44945  22020025.5234                   22020023.5234
  10063015.09046   7836922.16043  23969025.2194                   23969024.2034
  -8344712.60248  -6500457.50846  21356745.6174                   21356742.7464
   2884678.41046   2246865.58643  24430951.2974                   24430951.1374
    -47426.93048    -30569.32046  20378886.8754                   20378883.9024
  -4803433.21948  -3735694.00046  21016788.0784                   21016783.4414
  -7362372.08247  -5718907.00444  23079867.5164                   23079865.0864
   8873039.71147   6911411.25445  21635868.4534                   21635864.7424
   -361495.77346   -262377.27044  23800614.0474                   23800612.6054
     27845.80546     37865.00044  23824452.6334                   23824452.4964
 11  8 10 17 30  0.0000000  0 10G03G06G07G10G13G19G08G23G28G11
   6553532.95747   5109274.99645  22029892.9774                   22029890.6644
  10125383.32846   7885520.76243  23980893.5554                   23980892.3754
  -8423513.16048  -6561860.53146  21341750.5474                   21341747.6134
   2902260.84446   2260566.07843  24434297.2344                   24434296.5634
    -33435.01248    -19666.55946  20381549.7034                   20381546.6214
  -4818847.33648  -3747705.01646  21013854.9694                   21013850.1844
  -7463466.91447  -5797682.16044  23060629.5314                   23060627.8554
   8935079.85247   6959754.12945  21647674.7114                   21647670.6374
   -449134.19946   -330666.87143  23783936.0474                   23783936.4454
    -80644.78546    -46672.98443  23803807.6724                   23803807.5984
 11  8 10 17 30 30.0000000  0 10G03G06G07G10G13G19G08G23G28G11
   6605801.23447   5150003.48445  22039839.3984                   22039837.3054
  10188009.94946   7934320.69943  23992810.6724                   23992809.3794
  -8502185.68448  -6623163.78946  21326779.6804                   21326776.6294
   2920117.48446   2274480.24643  24437694.5864                   24437695.4884
    -18873.78948     -8320.18046  20384320.5164                   20384317.6254
  -4833644.34047  -3759235.15646  21011039.1804                   21011034.2304
  -7564589.31247  -5876478.79744  23041386.3834                   23041384.8164
   8997486.00847   7008382.23045  21659549.8594                   21659546.0314
   -536556.48046   -398788.08244  23767301.1174                   23767300.5274
   -189105.69546   -131187.86343  23783168.5084                   23783167.0124
 11  8 10 17 31  0.0000000  0 10G03G06G07G10G13G19G08G23G28G11
   6658483.18047   5191054.31645  22049865.0944                   22049861.7424
  10250892.23846   7983319.83644  24004777.0394                   24004776.4534
  -8580729.01248  -6684366.37546  21311833.2424                   21311830.6094
   2938245.45346   2288605.85243  24441144.3674                   24441145.8204
     -3744.94948      3468.48446  20387199.2424                   20387196.1254
  -4847824.84048  -3770284.89146  21008340.4454                   21008335.7894
  -7665738.78547  -5955296.53544  23022137.8754                   23022136.5944
   9060255.41447   7057293.37545  21671494.8984                   21671490.9064
   -623763.61747   -466741.62144  23750706.0314                   23750705.0394
   -297534.62946   -215677.81243  23762534.4384                   23762533.3674
 11  8 10 17 31 30.0000000  0 10G03G06G07G10G13G19G08G23G28G11
   6711574.08647   5232423.81345  22059966.9844                   22059964.9184
  10314025.33246   8032514.39844  24016791.2734                   24016789.6094
  -8659143.76248  -6745468.77746  21296911.6414                   21296908.9224
   2956640.40646   2302939.45343  24444645.8754                   24444646.3954
     11948.41048     15697.04346  20390185.8054                   20390182.8634
  -4861391.27347  -3780856.14146  21005759.0394                   21005754.4104
  -7766916.46947  -6034136.24645  23002885.2504                   23002883.2274
   9123383.46547   7106483.98445  21683507.5234                   21683503.9224
   -710757.71147   -534529.18744  23734151.6334                   23734150.2854
   -405930.49646   -300141.99644  23741907.8984                   23741906.6414
 11  8 10 17 32  0.0000000  0 10G03G06G07G10G13G19G08G23G28G11
   6765068.20747   5274107.50045  22070146.6724                   22070144.7344
  10377403.85246   8081900.22344  24028852.2664                   24028850.9884
  -8737431.36748  -6806472.10546  21282013.5234                   21282010.4384
   2975296.48446   2317476.54743  24448195.5234                   24448195.6604
     28202.02048     28362.16446  20393278.8674                   20393276.2154
  -4874347.29348  -3790951.74246  21003293.1094                   21003288.7074
  -7868124.74647  -6112999.82444  22983625.5314                   22983624.1524
   9186864.56347   7155949.69145  21695587.8054                   21695584.2774
   -797541.68747   -602153.01244  23717637.5084                   23717635.6764
   -514293.50447   -384580.57044  23721286.9844                   23721285.9454
 11  8 10 17 32 30.0000000  0 10G03G06G07G10G13G19G08G23G28G11
   6818959.31347   5316100.52345  22080401.6564                   22080399.9384
  10441021.74646   8131472.55144  24040958.0634                   24040957.2584
  -8815593.87548  -6867377.95346  21267139.8524                   21267137.0904
   2994207.16846   2332212.05943  24451793.9384                   24451794.7704
     45011.34448     41460.29746  20396477.6024                   20396474.3634
  -4886697.18048  -3800575.03946  21000943.3984                   21000938.6134
  -7969365.91847  -6191889.02345  22964360.0004                   22964358.6454
   9250692.37147   7205685.57845  21707733.5704                   21707729.9654
   -884119.76646   -669616.39844  23701161.6334                   23701160.4024
   -622624.11747   -468993.97743  23700672.2034                   23700671.1644
 11  8 10 17 33  0.0000000  0 10G03G06G07G10G13G19G08G23G28G11
   6873243.18847   5358399.60545  22090732.0634                   22090730.2154
  10504875.07046   8181228.32044  24053108.2814                   24053107.1254
  -8893631.29348  -6928186.32046  21252290.1564                   21252286.8244
   3013368.59046   2347142.89843  24455440.8524                   24455440.6994
     62373.72348     54989.39846  20399781.1804                   20399778.7464
  -4898442.84448  -3809727.49646  20998708.1174                   20998703.7274
  -8070641.10247  -6270804.72345  22945088.1724                   22945086.9804
   9314862.97748   7255688.56345  21719945.4384                   21719941.7274
   -970493.44946   -736920.48043  23684724.5084                   23684723.3754
   -730921.21546   -553381.25443  23680063.3754                   23680062.4844
 11  8 10 17 33 30.0000000  0 10G03G06G07G10G13G19G08G23G28G11
   6927919.71947   5401004.66045  22101136.2194                   22101135.0704
  10568963.97346   8231167.64144  24065304.2274                   24065303.6604
  -8971539.53948  -6988894.02346  21237464.5394                   21237461.5204
   3032781.01245   2362269.34043  24459135.1484                   24459135.1764
     80290.54348     68950.51646  20403191.0164                   20403188.2344
  -4909582.04347  -3818407.39546  20996588.5474                   20996583.7194
  -8171945.94947  -6349743.55545  22925810.1094                   22925808.5704
   9379376.53547   7305958.79345  21732221.4924                   21732217.7704
  -1056660.23047   -804063.40243  23668328.4844                   23668325.8754
   -839178.91047   -637737.80143  23659462.8834                   23659462.3404
 11  8 10 17 34  0.0000000  0 10G03G06G07G10G13G19G08G23G28G11
   6982987.89847   5443914.88345  22111615.3754                   22111614.3954
  10633287.59446   8281289.89844  24077545.8594                   24077544.0594
  -9049314.98848  -7049498.25846  21222664.6174                   21222661.1484
   3052443.43046   2377590.62543  24462876.8204                   24462877.1414
     98762.41847     83344.15646  20406706.1334                   20406703.5084
  -4920114.04747  -3826614.16046  20994584.3674                   20994579.7934
  -8273277.94947  -6428703.54345  22906528.1484                   22906526.1374
   9444232.12947   7356495.53545  21744563.5634                   21744559.8594
  -1142618.60947   -871043.93044  23651971.3444                   23651968.9064
   -947392.51247   -722060.01643  23638870.1804                   23638868.4414
 11  8 10 17 34 30.0000000  0 10G03G06G07G10G13G19G08G23G28G11
   7038442.31647   5487126.08645  22122168.3364                   22122166.7384
  10697840.96945   8331591.16044  24089829.3754                   24089827.7934
  -9126959.01248  -7110000.08646  21207889.1564                   21207886.5554
   3072350.74246   2393102.72743  24466664.7894                   24466664.3524
    117785.41448     98167.22746  20410325.9454                   20410323.1804
  -4930041.80547  -3834350.07046  20992695.0474                   20992690.5394
  -8374638.94947  -6507686.12145  22887239.2814                   22887237.3954
   9509424.62547   7407294.79345  21756969.3364                   21756965.7464
  -1228371.25047   -937864.14144  23635653.2584                   23635651.8204
  -1055561.48047   -806347.45344  23618286.2664                   23618285.9414
 11  8 10 17 35  0.0000000  0 10G03G06G07G10G13G19G08G23G28G11
   7094285.91847   5530640.53545  22132795.3524                   22132793.5594
  10762627.03545   8382073.71143  24102157.6094                   24102156.3244
  -9204464.57048  -7170394.03546  21193140.5784                   21193137.6804
   3092505.35546   2408807.47343  24470500.5554                   24470500.3524
    137363.43847    113422.79746  20414051.4534                   20414048.8914
  -4939360.80547  -3841611.62946  20990921.9384                   20990916.9304
  -8476022.63747  -6586686.38344  22867946.9304                   22867944.5554
   9574956.66847   7458358.64145  21769439.7034                   21769435.7194
  -1313913.17647  -1004520.13344  23619374.6884                   23619373.9414
  -1163677.75447   -890593.84844  23597712.8284                   23597712.0514
 11  8 10 17 35 30.0000000  0 10G03G06G07G10G13G19G08G23G28G11
   7150513.58247   5574454.26645  22143494.7664                   22143492.9694
  10827641.16845   8432733.99643  24114528.2584                   24114528.0664
  -9281832.00448  -7230680.33646  21178417.7734                   21178414.8014
   3112902.83646   2424701.57843  24474381.5004                   24474381.8554
    157493.30547    129108.36746  20417882.3054                   20417879.5234
  -4948073.28147  -3848400.56246  20989263.7194                   20989259.5784
  -8577429.74247  -6665704.89844  22848649.8674                   22848647.1254
   9640823.70348   7509683.52745  21781973.8284                   21781969.9804
  -1399246.55147  -1071013.62144  23603136.7114                   23603135.0354
  -1271740.35247   -974798.43444  23577149.4844                   23577148.3164
 11  8 10 17 36  0.0000000  0 10G03G06G07G10G13G19G08G23G28G11
   7207127.31647   5618568.82445  22154268.1724                   22154266.0634
  10892885.21946   8483573.39843  24126945.2814                   24126943.3204
  -9359055.52348  -7290854.50046  21163722.7664                   21163719.7544
   3133544.66046   2440786.02343  24478310.2274                   24478308.9844
    178177.85948    145226.17646  20421818.2734                   20421815.8634
  -4956176.10947  -3854714.45346  20987721.8834                   20987716.9964
  -8678855.11747  -6744737.63744  22829348.7034                   22829346.8484
   9707027.04348   7561270.46545  21794571.6484                   21794568.0314
  -1484367.40246  -1137341.50444  23586937.8444                   23586936.5514
  -1379741.97346  -1058955.47743  23556596.6484                   23556596.2034
 11  8 10 17 36 30.0000000  0 10G03G06G07G10G13G19G08G23G28G11
   7264124.11347   5662981.86345  22165114.0314                   22165111.8284
  10958357.13446   8534590.46943  24139404.0234                   24139402.5634
  -9436133.12548  -7350914.96546  21149055.1254                   21149052.5204
   3154429.07847   2457059.49643  24482284.4454                   24482284.5004
    199416.72348    161775.90246  20425859.9064                   20425857.3204
  -4963669.34447  -3860553.33246  20986296.1724                   20986291.0904
  -8780297.21147  -6823783.39544  22810045.0704                   22810043.1724
   9773565.03148   7613118.16845  21807233.2584                   21807229.9924
  -1569275.31647  -1203503.45344  23570780.2664                   23570779.3984
  -1487678.98047  -1143062.19144  23536057.1804                   23536055.8164
 11  8 10 17 37  0.0000000  0 10G03G06G07G10G13G19G08G23G28G11
   7321503.27747   5707692.85244  22176033.4144                   22176031.4574
  11024055.96546   8585784.24244  24151906.3444                   24151905.2934
  -9513061.63748  -7410859.25446  21134416.2504                   21134413.4884
   3175554.51246   2473520.79742  24486304.0944                   24486304.0234
    221209.42648    178757.18846  20430007.1484                   20430004.5474
  -4970552.59847  -3865916.91046  20984985.9144                   20984981.6294
  -8881754.03147  -6902840.61344  22790738.4614                   22790736.3984
   9840436.31648   7665225.55945  21819958.8054                   21819955.5594
  -1653969.25447  -1269498.69144  23554663.5784                   23554663.0664
  -1595546.98046  -1227115.16443  23515530.9064                   23515529.0044
 11  8 10 17 37 30.0000000  0 10G03G06G07G10G13G19G08G23G28G11
   7379263.74247   5752700.97345  22187024.3984                   22187022.3524
  11089981.10546   8637154.41043  24164451.2344                   24164450.5044
  -9589837.60548  -7470684.68046  21119806.2034                   21119803.4534
   3196920.46546   2490169.48043  24490369.9144                   24490370.1024
    243556.34048    196170.33246  20434259.7034                   20434256.9454
  -4976824.49648  -3870804.09846  20983792.7274                   20983788.2664
  -8983221.96947  -6981906.52745  22771429.6094                   22771427.5984
   9907640.45748   7717592.32445  21832747.8754                   21832744.2114
  -1738447.69947  -1335326.00044  23538588.3524                   23538587.0744
  -1703340.85547  -1311110.32843  23495017.8524                   23495017.3404
 11  8 10 17 38  0.0000000  0 10G03G06G07G10G13G19G08G23G28G11
   7437403.06647   5798004.28944  22198088.6884                   22198086.3914
  11156130.57846   8688699.40643  24177039.2734                   24177038.5744
  -9666458.85548  -7530389.54346  21105225.7584                   21105222.5634
   3218524.70346   2507003.86343  24494481.9844                   24494481.9844
    266457.00848    214014.96946  20438617.4844                   20438614.3634
  -4982485.35247  -3875215.14846  20982715.3594                   20982711.0354
  -9084700.06647  -7060980.32845  22752118.6174                   22752117.0274
   9975174.84048   7770216.43045  21845598.9144                   21845595.5824
  -1822709.81247  -1400984.73844  23522553.6024                   23522552.8714
  -1811057.63747  -1395045.48443  23474520.2974                   23474519.4104
 11  8 10 17 38 30.0000000  0 10G03G06G07G10G13G19G08G23G28G11
   7495916.77347   5843599.34444  22209223.2424                   22209221.0554
  11222499.76646   8740415.59443  24189668.6884                   24189667.5044
  -9742926.02748  -7589974.34446  21090674.2974                   21090672.0314
   3240362.53946   2524020.29743  24498636.5234                   24498638.7154
    289907.87548    232288.34446  20443080.1484                   20443076.9024
  -4987538.20747  -3879152.43046  20981753.9304                   20981749.3634
  -9186189.31647  -7140062.83645  22732805.8284                   22732804.6454
  10043034.85548   7823094.28145  21858512.4224                   21858509.2734
  -1906758.69147  -1466477.31244  23506560.1954                   23506559.0434
  -1918696.20346  -1478919.66043  23454036.8914                   23454035.9454
 11  8 10 17 39  0.0000000  0 10G03G06G07G10G13G19G08G23G28G11
   7554799.97347   5889482.32844  22220427.7974                   22220426.0354
  11289084.10246   8792299.42243  24202338.9774                   24202338.8014
  -9819239.14548  -7649439.10246  21076152.6334                   21076149.6414
   3262428.90246   2541214.72343  24502835.7114                   24502837.5234
    313905.67248    250987.88746  20447646.8364                   20447643.9104
  -4991985.84448  -3882618.12146  20980907.4614                   20980902.9734
  -9287690.64147  -7219154.75045  22713490.9924                   22713489.7734
  10111215.77047   7876222.15245  21871487.2034                   21871483.1054
  -1990596.50846  -1531805.41844  23490605.7424                   23490604.9654
  -2026255.52047  -1562732.06644  23433569.7664                   23433568.6644
 11  8 10 17 39 30.0000000  0 10G03G06G07G10G13G19G08G23G28G11
   7614045.81347   5935647.85944  22231702.0634                   22231700.0824
  11355877.30146   8844346.05543  24215049.5704                   24215048.2344
  -9895400.77748  -7708785.82846  21061659.3984                   21061657.0234
   3284717.49246   2558582.36743  24507077.0704                   24507078.6724
    338444.10248    270108.71146  20452315.8984                   20452313.3204
  -4995833.53148  -3885616.31646  20980175.3284                   20980170.8244
  -9389206.69147  -7298258.15245  22694172.8754                   22694171.6604
  10179711.08248   7929595.02345  21884521.4534                   21884518.0164
  -2074227.42647  -1596972.29344  23474690.9064                   23474690.2704
  -2133736.37946  -1646483.32444  23413116.5704                   23413115.5554
 11  8 10 17 40  0.0000000  0 10G03G06G07G10G13G19G08G23G28G11
   7673654.41447   5982096.07845  22243045.3834                   22243043.1454
  11422880.18847   8896556.01243  24227800.1484                   24227798.6804
  -9971406.00448  -7768010.67646  21047196.1174                   21047193.2074
   3307228.64546   2576123.42643  24511360.9304                   24511362.7274
    363525.05948    289652.27346  20457088.8754                   20457086.0004
  -4999078.70748  -3888145.02046  20979557.8754                   20979552.9844
  -9490733.44547  -7377369.88345  22674853.0944                   22674852.0434
  10248520.94148   7983213.00845  21897615.5164                   21897612.4184
  -2157648.35946  -1661975.53544  23458816.0004                   23458815.1174
  -2241132.37946  -1730168.48844  23392679.2814                   23392678.5664
 11  8 10 17 40 30.0000000  0 10G03G06G07G10G13G19G08G23G28G11
   7733619.55147   6028822.11744  22254456.3364                   22254454.9614
  11490086.41046   8948924.41443  24240589.2584                   24240587.5904
 -10047257.19148  -7827115.47746  21032762.0474                   21032759.4104
   3329955.88746   2593832.83643  24515685.7034                   24515687.6024
    389143.57848    309614.72346  20461963.9534                   20461961.4574
  -5001725.94147  -3890207.81246  20979053.9924                   20979049.2974
  -9592273.16447  -7456491.71545  22655531.0164                   22655528.8324
  10317639.46548   8037071.50045  21910768.3834                   21910765.0594
  -2240863.82847  -1726818.69144  23442981.4064                   23442980.1374
  -2348444.34447  -1813788.15643  23372258.9304                   23372257.8714
 11  8 10 17 41  0.0000000  0  9G03G06G07G13G19G08G23G28G11
   7793935.20747   6075821.27345  22265933.9614                   22265932.2424
  11557490.14546   9001446.77343  24253415.6024                   24253414.3244
 -10122955.68748  -7886101.31646  21018357.2734                   21018354.1024
    415294.86748    329992.31646  20466940.5394                   20466937.8554
  -5003779.44547  -3891807.95746  20978662.8834                   20978658.7194
  -9693828.46147  -7535625.68445  22636206.1094                   22636203.6414
  10387060.27347   8091165.54345  21923978.3834                   21923975.1054
  -2323877.14147  -1791504.33244  23427183.8834                   23427182.5554
  -2455672.72346  -1897342.70744  23351853.7034                   23351852.3054
 11  8 10 17 41 30.0000000  0  9G03G06G07G13G19G08G23G28G11
   7854601.27347   6123093.48845  22277478.6174                   22277476.3134
  11625091.69546   9054123.24643  24266278.5554                   24266278.3014
 -10198497.10248  -7944964.75046  21003982.3204                   21003979.5004
    441980.01248    350785.90646  20472018.1644                   20472015.8484
  -5005237.73047  -3892944.29746  20978385.9774                   20978381.1094
  -9795395.32447  -7614768.66445  22616877.5784                   22616876.2734
  10456783.59048   8145495.30145  21937246.2034                   21937243.1884
  -2406685.51647  -1856030.31644  23411426.3364                   23411424.1604
  -2562811.69146  -1980827.54344  23331465.3364                   23331465.4574
 11  8 10 17 42  0.0000000  0  9G03G06G07G13G19G08G23G28G11
   7915624.42647   6170643.94944  22289091.0944                   22289089.5354
  11692898.06346   9106959.33243  24279182.9224                   24279181.4104
 -10273870.60948  -8003697.35546  20989638.9064                   20989636.3484
    469206.79747    372001.54746  20477199.6954                   20477197.1644
  -5006092.51247  -3893610.36746  20978223.0314                   20978218.6884
  -9896963.25047  -7693912.48445  22597549.8754                   22597548.0314
  10526816.03147   8200065.92245  21950573.5314                   21950569.8874
  -2489280.24647  -1920389.78543  23395709.0704                   23395706.8554
  -2669848.79747  -2064232.98044  23311096.8754                   23311096.8954
 11  8 10 17 42 30.0000000  0  9G03G06G07G13G19G08G23G28G11
   7977002.86747   6218471.24244  22300770.9384                   22300769.6914
  11760907.87546   9159953.88343  24292124.6564                   24292123.5594
 -10349072.96148  -8062296.58646  20975328.7974                   20975325.5124
    496974.86348    393638.96146  20482483.7664                   20482481.1134
  -5006343.36747  -3893805.84846  20978175.2974                   20978170.8364
  -9998529.88747  -7773055.29745  22578222.4924                   22578221.1134
  10597156.17248   8254876.32845  21963959.0164                   21963955.1484
  -2571660.37947  -1984582.05544  23380032.0634                   23380030.5204
  -2776779.59047  -2147555.60944  23290749.5314                   23290748.3914
 11  8 10 17 43  0.0000000  0  9G03G06G07G13G19G08G23G28G11
   8038732.75447   6266572.41044  22312517.4454                   22312516.4344
  11829117.91446   9213104.53144  24305105.0164                   24305103.6684
 -10424103.29748  -8120761.77346  20961050.9384                   20961048.0984
    525281.60948    415696.13746  20487870.5474                   20487867.3984
  -5005992.30948  -3893532.30546  20978242.3054                   20978237.4654
 -10100094.74647  -7852196.72345  22558895.6804                   22558893.4264
  10667800.43048   8309923.70345  21977401.9694                   21977398.7304
  -2653827.20747  -2048608.08244  23364396.2114                   23364394.7154
  -2883601.94547  -2230793.76244  23270421.6644                   23270419.8794
 11  8 10 17 43 30.0000000  0  9G03G06G07G13G19G08G23G28G11
   8100807.93447   6314942.63744  22324330.5084                   22324328.8754
  11897521.94946   9266406.28143  24318121.7034                   24318120.7934
 -10498963.95748  -8179094.75846  20946804.9454                   20946802.2074
    554121.49248    438168.73846  20493358.4614                   20493355.7194
  -5005044.16047  -3892793.49246  20978422.4304                   20978417.8674
 -10201660.92647  -7931339.18445  22539568.2504                   22539566.5044
  10738742.35948   8365203.00845  21990902.0864                   21990898.3714
  -2735785.13347  -2112471.34844  23348800.8364                   23348798.6094
  -2990316.68047  -2313948.03144  23250113.9224                   23250113.1684
 11  8 10 17 44  0.0000000  0  9G03G06G07G13G19G08G23G28G11
   8163224.78947   6363579.09844  22336207.7974                   22336206.2034
  11966116.87546   9319856.78543  24331174.8444                   24331174.0234
 -10573653.86748  -8237294.68046  20932592.0394                   20932589.5784
    583492.21148    461054.96946  20498947.4844                   20498945.1174
  -5003500.85247  -3891590.93046  20978716.1334                   20978711.7234
 -10303227.64547  -8010482.07445  22520240.5784                   22520238.5394
  10809978.18047   8420711.33245  22004457.8204                   22004454.4654
  -2817534.90247  -2176172.42244  23333244.0864                   23333242.2584
  -3096921.37147  -2397016.54344  23229827.7584                   23229826.7814
 11  8 10 17 44 30.0000000  0  9G03G06G07G13G19G08G23G28G11
   8225979.86747   6412479.10244  22348149.2894                   22348148.8284
  12034900.03146   9373453.93043  24344264.3204                   24344262.7854
 -10648171.60548  -8295360.44946  20918411.8524                   20918408.7624
    613391.75848    484353.28546  20504637.3524                   20504634.2774
  -5001363.94948  -3889925.82446  20979122.8524                   20979118.6024
 -10404794.02747  -8089624.69945  22500913.1564                   22500910.9344
  10881505.08647   8476446.46545  22018069.5164                   22018065.8714
  -2899077.10247  -2239711.77044  23317727.2894                   23317725.5124
  -3203413.36747  -2479997.23044  23209563.9384                   23209562.7854
 11  8 10 17 45  0.0000000  0  9G03G06G07G13G19G08G23G28G11
   8289071.27347   6461641.16044  22360155.8134                   22360154.5124
  12103869.16846   9427196.06643  24357388.2814                   24357386.4264
 -10722515.09848  -8353290.44546  20904264.9844                   20904262.0744
    643819.00048    508062.78546  20510427.1484                   20510425.0784
  -4998634.02748  -3887798.62546  20979642.6414                   20979638.1644
 -10506358.75847  -8168766.02745  22481586.0704                   22481583.9414
  10953320.94547   8532406.77345  22031735.2734                   22031731.3754
  -2980411.85247  -2303089.48044  23302249.8134                   23302247.2234
  -3309788.91047  -2562887.16444  23189320.6334                   23189319.1684
 11  8 10 17 45 30.0000000  0  9G03G06G07G13G19G08G23G28G11
   8352497.59447   6511064.22744  22372225.1564                   22372224.3014
  12173023.22746   9481082.30543  24370547.6954                   24370546.5664
 -10796680.80148  -8411081.90246  20890151.7034                   20890148.6884
    674773.68448    532183.27346  20516317.7974                   20516315.3014
  -4995310.91848  -3885209.19546  20980275.0164                   20980270.4024
 -10607918.62147  -8247903.56645  22462259.8914                   22462258.0784
  11025424.40647   8588591.17245  22045455.9774                   22045452.6454
  -3061538.05947  -2366304.68744  23286812.2194                   23286809.7774
  -3416043.57847  -2645682.95344  23169100.8914                   23169100.0664
 11  8 10 17 46  0.0000000  0  9G03G06G07G13G19G08G23G28G11
   8416255.05946   6560745.31644  22384357.5704                   22384356.6024
  12242359.41047   9535110.46143  24383741.8754                   24383741.0664
 -10870667.91048  -8468734.20346  20876072.2344                   20876069.1954
    706253.34048    556712.84046  20522308.2344                   20522305.7034
  -4991396.27748  -3882158.82446  20981020.1254                   20981015.4614
 -10709473.14847  -8327036.94945  22442934.4924                   22442932.7304
  11097812.01248   8644996.96545  22059230.8914                   22059228.0554
  -3142456.60247  -2429358.05544  23271413.3444                   23271411.8794
  -3522174.62147  -2728382.37544  23148904.8674                   23148903.6334
 11  8 10 17 46 30.0000000  0  9G03G06G07G13G19G08G23G28G11
   8480340.96947   6610682.31344  22396553.4144                   22396552.1804
  12311875.18446   9589278.55544  24396970.1564                   24396970.7584
 -10944474.70748  -8526245.98846  20862026.9694                   20862023.9884
    738255.91448    581649.87546  20528398.2424                   20528395.6684
  -4986891.72748  -3878648.79746  20981876.9384                   20981872.7584
 -10811021.01647  -8406165.14545  22423610.4384                   22423608.5904
  11170480.87148   8701621.94945  22073059.8284                   22073056.2424
  -3223168.00447  -2492250.02744  23256055.0004                   23256053.2504
  -3628179.17647  -2810983.27344  23128732.9534                   23128731.0234
 11  8 10 17 47  0.0000000  0  9G03G06G07G13G19G08G23G28G11
   8544755.78946   6660875.62944  22408811.4384                   22408809.2974
  12381571.05546   9643586.91443  24410233.0864                   24410233.0394
 -11018096.27348  -8583613.43746  20848017.6334                   20848014.5744
    770782.96148    606995.58646  20534587.8204                   20534585.2154
  -4981795.51648  -3874677.72746  20982846.6334                   20982842.5744
 -10912558.36347  -8485285.13345  22404288.3914                   22404286.8134
  11243431.07847   8758466.14845  22086941.8204                   22086938.3054
  -3303669.50847  -2554978.43444  23240735.6954                   23240733.9024
  -3734051.49247  -2893481.10244  23108585.6954                   23108585.0784
 11  8 10 17 47 30.0000000  0  8G03G07G13G19G08G23G28G11
   8609495.85546   6711322.36744  22421130.2974                   22421129.6094
 -11091531.48848  -8640835.68446  20834042.9844                   20834040.1454
    803831.82048    632747.90646  20540876.8204                   20540874.4734
  -4976109.10548  -3870246.77046  20983928.6564                   20983924.0204
 -11014084.37547  -8564396.29345  22384968.3674                   22384966.5944
  11316659.75447   8815527.34045  22100876.4774                   22100873.3444
  -3383962.44147  -2617544.32044  23225456.3594                   23225454.7734
  -3839788.72346  -2975873.67644  23088463.8594                   23088463.6054
 11  8 10 17 48  0.0000000  0  8G03G07G13G19G08G23G28G11
   8674559.79346   6762021.47744  22433512.0314                   22433510.9884
 -11164777.20748  -8697910.25846  20820105.2504                   20820102.0314
    837402.21548    658906.62146  20547265.3054                   20547262.7114
  -4969832.43048  -3865355.85946  20985123.2274                   20985118.5824
 -11115596.05147  -8643496.27745  22365652.3594                   22365649.6134
  11390165.55948   8872804.46945  22114864.3914                   22114861.9964
  -3464045.32447  -2679946.51244  23210217.5784                   23210215.6484
  -3945386.43747  -3058157.53944  23068368.7344                   23068368.0554
 11  8 10 17 48 30.0000000  0  8G03G07G13G19G08G23G28G11
  10315376.04746   8040579.53144  22745749.1334                   22745748.0514
  -9662395.85248  -7527223.49246  21105998.7584                   21105995.7624
   2446924.46948   1913079.76246  20853546.7664                   20853544.4884
  -3387534.20748  -2632396.21946  21286224.8054                   21286220.0634
  -9641655.46547  -7494971.13745  22646133.7114                   22646131.2664
  13039376.18447  10157903.52745  22428699.2814                   22428696.3754
  -1968482.92247  -1514573.16844  23494812.8754                   23494811.6524
  -2475404.39547  -1912716.93744  23348097.7814                   23348096.0944
 11  8 10 17 49  0.0000000  0  8G03G07G13G19G08G23G28G11
  10381106.97347   8091798.37144  22758257.0554                   22758255.9024
  -9735229.69148  -7583977.12146  21092138.9384                   21092135.8204
   2481559.67248   1940068.21146  20860137.9614                   20860135.6994
  -3380054.32848  -2626567.75046  21287647.8204                   21287643.5824
  -9743107.60547  -7574024.73045  22626827.7274                   22626825.4654
  13113454.86347  10215627.05945  22442795.6414                   22442792.5394
  -2048120.34847  -1576628.24644  23479658.1724                   23479657.1644
  -2580686.03947  -1994754.53944  23328063.4694                   23328061.6524
 11  8 10 17 49 30.0000000  0  8G03G07G13G19G08G23G28G11
  10447163.27346   8143270.73044  22770827.0234                   22770825.8674
  -9807859.23848  -7640571.56646  21078317.9924                   21078314.9384
   2516720.33648   1967466.08246  20866828.7114                   20866826.2384
  -3371978.71548  -2620275.08246  21289184.9144                   21289180.4184
  -9844532.12947  -7653056.81245  22607527.0394                   22607525.2114
  13187811.83647  10273567.39545  22456945.6484                   22456942.9694
  -2127539.69546  -1638513.38744  23464544.4694                   23464544.0204
  -2685809.30147  -2076668.73044  23308059.3674                   23308057.6024
 11  8 10 17 50  0.0000000  0  8G03G07G13G19G08G23G28G11
  10513534.32047   8194988.36344  22783457.3674                   22783455.6254
  -9880290.03548  -7697011.13746  21064534.7504                   21064531.9534
   2552397.13348   1995266.14846  20873617.9614                   20873615.4414
  -3363316.47348  -2613525.29346  21290832.9144                   21290828.3364
  -9945935.10547  -7732072.10945  22588230.7974                   22588229.0124
  13262436.64147  10331716.48445  22471145.9774                   22471143.4144
  -2206748.67247  -1700234.59444  23449471.9924                   23449470.9184
  -2790778.33647  -2158462.71544  23288084.4774                   23288082.5864
 11  8 10 17 50 30.0000000  0  8G03G07G13G19G08G23G28G11
  10580212.57847   8246945.39544  22796145.9774                   22796144.7234
  -9952524.72348  -7753297.91046  21050788.9454                   21050785.8984
   2588583.36748   2023463.17646  20880504.0004                   20880501.3284
  -3354073.73448  -2606323.17646  21292591.8204                   21292587.3404
 -10047319.70347  -7811073.06645  22568937.7974                   22568936.1094
  13337322.25047  10390068.76645  22485396.6564                   22485393.5204
  -2285752.56647  -1761796.00844  23434438.4144                   23434436.6994
  -2895594.66847  -2240137.73844  23268138.6884                   23268136.5124
 11  8 10 17 51  0.0000000  0  8G03G07G13G19G08G23G28G11
  10647193.34847   8299138.11745  22808891.8444                   22808890.7194
 -10024563.62148  -7809432.10946  21037080.7274                   21037077.7074
   2625275.14848   2052054.13746  20887486.3204                   20887483.6294
  -3344253.55948  -2598671.10946  21294460.8524                   21294455.9184
 -10148686.77347  -7890060.37145  22549648.4454                   22549647.0634
  13412463.78547  10448620.49645  22499695.5784                   22499692.9694
  -2364553.57847  -1823199.33644  23419442.8204                   23419441.9454
  -3000257.16447  -2321692.93744  23248221.8444                   23248220.1214
 11  8 10 17 51 30.0000000  0  8G03G07G13G19G08G23G28G11
  10714471.70347   8351562.75444  22821694.8284                   22821692.9104
 -10096407.46148  -7865414.32446  21023409.1484                   21023406.1414
   2662468.26248   2081035.73846  20894564.0084                   20894561.8404
  -3333860.02348  -2590572.27746  21296438.6024                   21296434.6374
 -10250037.38747  -7969034.86745  22530362.4534                   22530360.2464
  13487855.73447  10507367.34045  22514042.6804                   22514039.9844
  -2443154.78947  -1884446.98044  23404486.1174                   23404483.9844
  -3104765.11747  -2403127.63744  23228334.8204                   23228334.1844
 11  8 10 17 52  0.0000000  0  8G03G07G13G19G08G23G28G11
  10782041.94947   8404214.84044  22834552.8754                   22834551.8404
 -10168056.95348  -7921245.09446  21009774.7664                   21009771.7304
   2700157.96548   2110404.30146  20901736.0474                   20901733.9494
  -3322897.30948  -2582029.91846  21298524.4064                   21298520.3554
 -10351372.80947  -8047997.51645  22511078.6724                   22511076.8134
  13563492.97347  10566305.32045  22528435.7894                   22528432.9384
  -2521559.43747  -1945541.44544  23389565.8204                   23389564.5864
  -3209118.00447  -2484441.54344  23208477.4614                   23208475.5594
 11  8 10 17 52 30.0000000  0  8G03G07G13G19G08G23G28G11
  10849897.17247   8457088.95744  22847465.9774                   22847464.3594
 -10239514.21548  -7976926.07446  20996177.1334                   20996173.9574
   2738338.21948   2140155.10946  20909001.5704                   20908998.9024
  -3311371.10548  -2573048.48446  21300717.9224                   21300713.6454
 -10452695.79747  -8126950.47345  22491797.0314                   22491795.4924
  13639368.56347  10625429.01645  22542874.5704                   22542872.3954
  -2599771.75447  -2006486.03944  23374681.7504                   23374681.2464
  -3313316.82447  -2565635.35544  23188648.0394                   23188647.4574
 11  8 10 17 53  0.0000000  0  8G03G07G13G19G08G23G28G11
  10918039.45347   8510186.77044  22860432.7504                   22860431.3524
 -10310772.86348  -8032452.28146  20982616.9144                   20982613.4694
   2777011.36748   2170289.98446  20916360.6024                   20916358.3364
  -3299278.22348  -2563625.46546  21303019.2894                   21303014.7114
 -10554000.13747  -8205888.90245  22472519.9384                   22472518.1484
  13715484.28547  10684739.85245  22557358.9304                   22557356.0744
  -2677787.68747  -2067277.62144  23359835.8204                   23359834.8984
  -3417353.87547  -2646703.14544  23168850.8444                   23168850.3914
 11  8 10 17 53 30.0000000  0  8G03G07G13G19G08G23G28G11
  10986460.59447   8563501.87144  22873452.6254                   22873450.6954
 -10381836.25048  -8087826.35946  20969093.8754                   20969090.9494
   2816170.50448   2200803.55146  20923812.3594                   20923810.2154
  -3286625.33648  -2553766.09046  21305427.4304                   21305422.4924
 -10655289.19947  -8284815.43445  22453245.1804                   22453243.7504
  13791832.21147  10744231.61345  22571887.8284                   22571885.1914
  -2755612.78147  -2127920.51644  23345026.6564                   23345024.4344
  -3521231.01247  -2727646.31244  23149083.3834                   23149082.3134
 11  8 10 17 54  0.0000000  0  8G03G07G13G19G08G23G28G11
  11055158.09847   8617032.34044  22886525.6094                   22886523.8324
 -10452702.19148  -8143046.57846  20955608.1884                   20955605.4884
   2855813.82048   2231694.41046  20931356.6954                   20931353.8984
  -3273413.89548  -2543471.48046  21307941.1564                   21307936.6724
 -10756561.69147  -8363729.03945  22433974.0234                   22433972.2384
  13868409.98847  10803902.46545  22586459.6484                   22586457.2734
  -2833247.10947  -2188414.79344  23330253.9304                   23330251.3634
  -3624944.91847  -2808462.28144  23129347.5634                   23129346.4774
 11  8 10 17 54 30.0000000  0  8G03G07G13G19G08G23G28G11
  11124125.67646   8670773.22744  22899649.8364                   22899648.4454
 -10523372.56648  -8198114.39846  20942160.4844                   20942157.3164
   2895935.51248   2262958.02046  20938991.1724                   20938988.8714
  -3259648.71948  -2532745.37946  21310560.5394                   21310556.4064
 -10857819.99647  -8442631.59845  22414704.7424                   22414703.0274
  13945211.03547  10863747.30945  22601074.9454                   22601071.9184
  -2910695.36347  -2248764.07844  23315516.2974                   23315513.7704
  -3728495.90647  -2889151.28544  23109641.5784                   23109641.2624
 11  8 10 17 55  0.0000000  0  8G03G07G13G19G08G23G28G11
  11193360.81647   8724722.64844  22912824.8204                   22912822.9064
 -10593844.92648  -8253027.92646  20928749.6954                   20928747.0744
   2936534.03548   2294593.18846  20946717.0314                   20946714.9224
  -3245331.37948  -2521589.03146  21313284.7814                   21313280.7854
 -10959062.03147  -8521521.46545  22395438.8364                   22395437.1844
  14022233.15247  10923764.39845  22615731.4384                   22615729.4024
  -2987957.32447  -2308968.19544  23300813.2584                   23300811.6294
  -3831880.42247  -2969710.61344  23089968.9224                   23089967.9804
 11  8 10 17 55 30.0000000  0  8G03G07G13G19G08G23G28G11
  11262861.71146   8778879.12944  22926050.3134                   22926048.5824
 -10664116.93748  -8307785.34446  20915377.6484                   20915374.4574
   2977607.85948   2326598.71946  20954533.6024                   20954530.8284
  -3230462.71548  -2510003.06246  21316114.3134                   21316110.5004
 -11060285.50847  -8600396.87545  22376177.0474                   22376175.0314
  14099473.82447  10983951.78545  22630430.0004                   22630427.8524
  -3065032.58647  -2369026.79344  23286146.1484                   23286144.6954
  -3935094.74247  -3050137.28944  23070327.8364                   23070326.6254
 11  8 10 17 56  0.0000000  0  8G03G07G13G19G08G23G28G11
  11332624.75847   8833239.86344  22939325.3594                   22939324.8834
 -10734187.03548  -8362385.41446  20902043.6484                   20902040.4144
   3019154.81348   2358972.92646  20962439.3134                   20962436.9064
  -3215044.89548  -2497989.18746  21319048.1644                   21319044.1024
 -11161489.60247  -8679257.19545  22356918.1024                   22356916.4774
  14176930.11347  11044307.17645  22645169.3834                   22645167.3244
  -3141922.14847  -2428940.69144  23271514.7034                   23271513.1214
  -4038136.23847  -3130429.33244  23050719.2194                   23050718.8594
 11  8 10 17 56 30.0000000  0  8G03G07G13G19G08G23G28G11
  11402644.98047   8887801.01244  22952649.7194                   22952649.0124
 -10804055.47748  -8416828.35546  20888748.1644                   20888745.2274
   3061170.11748   2391712.07446  20970435.0084                   20970432.2274
  -3199081.58248  -2485550.25846  21322086.1024                   21322082.0314
 -11262675.00047  -8758102.94545  22337663.6334                   22337661.3094
  14254597.21547  11104826.85245  22659949.2034                   22659946.8794
  -3218628.58247  -2488711.89844  23256917.5164                   23256916.2704
  -4141003.71547  -3210585.75044  23031144.5234                   23031143.3404
 11  8 10 17 57  0.0000000  0  8G03G07G13G19G08G23G28G11
  11472919.01647   8942559.93844  22966023.2114                   22966021.6254
 -10873721.11748  -8471113.26646  20875491.0704                   20875488.5044
   3103650.86748   2424813.91446  20978518.6174                   20978516.3714
  -3182575.37948  -2472688.30146  21325227.3054                   21325222.8794
 -11363840.96547  -8836933.55545  22318412.2894                   22318410.2894
  14332471.03547  11165507.59445  22674768.3674                   22674766.3244
  -3295153.35947  -2548341.57844  23242355.4304                   23242352.1884
  -4243695.00847  -3290604.90244  23011602.8594                   23011601.4384
 11  8 10 17 57 30.0000000  0  8G03G07G13G19G08G23G28G11
  11543443.56647   8997514.06344  22979443.8754                   22979442.2034
 -10943182.81648  -8525239.27046  20862272.9384                   20862270.1954
   3146594.62948   2458276.53146  20986690.5784                   20986688.5004
  -3165528.74648  -2459405.22746  21328470.8524                   21328467.0394
 -11464986.14547  -8915747.96145  22299164.7344                   22299162.8014
  14410548.48047  11226347.02745  22689626.1644                   22689623.6684
  -3371497.71147  -2607830.66844  23227827.9614                   23227825.3244
  -4346207.47747  -3370484.71544  22992095.8754                   22992094.3364
 11  8 10 17 58  0.0000000  0  8G03G07G13G19G08G23G28G11
  11614215.53547   9052660.98444  22992911.5004                   22992909.2854
 -11012438.68448  -8579204.87946  20849094.3674                   20849091.2894
   3189998.78148   2492097.89846  20994950.1174                   20994947.8014
  -3147943.45747  -2445702.42246  21331817.3834                   21331813.1764
 -11566109.83247  -8994545.63745  22279921.5704                   22279919.2814
  14488826.73047  11287342.91445  22704522.5864                   22704520.1134
  -3447662.12547  -2667179.52744  23213334.1254                   23213332.0434
  -4448538.27346  -3450222.95744  22972622.4614                   22972620.8094
 11  8 10 17 58 30.0000000  0  8G03G07G13G19G08G23G28G11
  11685231.47747   9107998.02744  23006425.1024                   23006423.6804
 -11081487.75448  -8633009.34846  20835954.5474                   20835951.9224
   3233860.35248   2526275.69946  21003296.5394                   21003294.7114
  -3129821.81647  -2431581.68746  21335266.2034                   21335261.6804
 -11667210.95347  -9073325.71145  22260682.6334                   22260680.8984
  14567302.10247  11348492.41845  22719455.9144                   22719453.4024
  -3523647.87147  -2726389.16044  23198874.8444                   23198872.7154
  -4550684.74646  -3529817.56244  22953184.4534                   22953183.0704
 11  8 10 17 59  0.0000000  0  8G03G07G13G19G08G23G28G11
  11756488.40247   9163522.83644  23019985.0944                   23019983.5864
 -11150328.18048  -8686651.25046  20822854.6804                   20822851.4534
   3278176.73848   2560807.89846  21011729.8204                   21011727.5554
  -3111166.22748  -2417044.89146  21338815.7734                   21338812.0514
 -11768288.20747  -9152087.19545  22241447.8134                   22241446.1174
  14645971.50447  11409793.09845  22734426.1804                   22734423.6414
  -3599456.02347  -2785460.39144  23184448.0634                   23184447.1604
  -4652644.07447  -3609266.35244  22933782.5474                   22933780.8674
 11  8 10 17 59 30.0000000  0  8G03G07G13G19G08G23G28G11
  11827985.24647   9219234.61744  23033590.2974                   23033588.5904
 -11218956.32448  -8740127.72746  20809795.2814                   20809792.2734
   3322948.07848   2595694.60246  21020249.8134                   21020247.5164
  -3091976.18047  -2402091.62146  21342467.7424                   21342462.9844
 -11869338.01647  -9230827.29745  22222219.4224                   22222217.5434
  14724834.15247  11471244.35544  22749433.6094                   22749430.5944
  -3675084.76647  -2844391.78544  23170056.1644                   23170056.0784
  -4754410.84047  -3688565.07444  22914417.1024                   22914415.5514
 11  8 10 18  0  0.0000000  0  8G03G07G13G19G08G23G28G11
  11899720.21147   9275131.90244  23047241.2114                   23047239.5744
 -11287369.51248  -8793436.70746  20796776.3914                   20796773.7734
   3368172.52748   2630934.38346  21028855.6254                   21028853.4184
  -3072253.25847  -2386723.14546  21346220.6954                   21346216.5084
 -11970358.11347  -9309544.24245  22202996.1724                   22202993.9304
  14803887.91847  11532844.55144  22764476.2894                   22764473.9024
  -3750534.30947  -2903183.56245  23155699.5164                   23155698.0394
  -4855981.78547  -3767711.24644  22895089.0704                   22895087.1764
 11  8 10 18  0 30.0000000  0  8G03G07G13G19G08G23G28G11
  11971692.07047   9331213.79744  23060936.8204                   23060935.2704
 -11355564.27348  -8846575.48846  20783799.4304                   20783796.7934
   3413849.46148   2666526.75446  21037547.4304                   21037545.3634
  -3051997.35547  -2370939.35246  21350075.7894                   21350070.8984
 -12071345.27747  -9388235.52745  22183778.8594                   22183776.6254
  14883131.45747  11594592.61344  22779556.6024                   22779554.1094
  -3825803.48847  -2961834.82045  23141375.7034                   23141374.1884
  -4957351.81247  -3846700.81244  22875797.8674                   22875797.5744
 11  8 10 18  1  0.0000000  0  8G03G07G13G19G08G23G28G11
  12043899.61747   9387479.35544  23074677.3204                   23074676.2194
 -11423536.81648  -8899541.11746  20770864.9064                   20770861.6024
   3459978.44548   2702471.36346  21046325.7344                   21046323.5124
  -3031208.59047  -2354740.33646  21354031.8054                   21354027.0394
 -12172295.84447  -9466898.29745  22164568.4144                   22164566.6024
  14962563.92247  11656487.86744  22794671.9384                   22794669.2934
  -3900891.10247  -3020344.59844  23127087.4844                   23127085.2424
  -5058515.98047  -3925529.96144  22856547.1724                   22856546.4964
 11  8 10 18  1 30.0000000  0  8G03G07G13G19G08G23G28G11
  12116343.06347   9443928.72344  23088463.0554                   23088461.5904
 -11491282.37948  -8952329.86746  20757973.3134                   20757970.3714
   3506560.00048   2738768.62546  21055189.8594                   21055187.7304
  -3009885.98847  -2338125.35546  21358089.4454                   21358084.7344
 -12273205.84847  -9545529.44945  22145365.5164                   22145363.6844
  15042185.19947  11718530.26644  22809823.6724                   22809821.1134
  -3975794.69547  -3078711.01644  23112833.8054                   23112831.3164
  -5159468.25047  -4004194.00844  22837336.7814                   22837335.3404
 11  8 10 18  2  0.0000000  0  8G03G07G13G19G08G23G28G11
  12189018.78946   9500559.08644  23102292.4774                   23102291.5744
 -11558800.07448  -9004941.06246  20745125.2734                   20745121.8984
   3553590.53948   2775415.76246  21064139.6174                   21064137.3244
  -2988032.52048  -2321096.69946  21362247.7734                   21362243.4224
 -12374074.74647  -9624128.57045  22126170.9844                   22126169.0044
  15121991.44147  11780716.76244  22825010.3054                   22825008.3404
  -4050515.79747  -3136935.20744  23098614.2734                   23098612.6564
  -5260206.70347  -4082691.44944  22818166.5554                   22818165.0664
 11  8 10 18  2 30.0000000  0  8G03G07G13G19G08G23G28G11
  12261926.43846   9557370.15644  23116166.2814                   23116165.4534
 -11626085.62948  -9057371.36746  20732320.9924                   20732318.1644
   3601070.48448   2812413.07046  21073174.8364                   21073172.7934
  -2965647.57848  -2303653.91446  21366507.3284                   21366503.0984
 -12474898.53147  -9702692.54345  22106984.8444                   22106982.9414
  15201982.28947  11843047.13744  22840232.2034                   22840230.3134
  -4125052.73047  -3195015.88744  23084430.4534                   23084428.8164
  -5360725.57847  -4161017.78544  22799038.9454                   22799037.1884
 11  8 10 18  3  0.0000000  0  8G03G07G13G19G08G23G28G11
  12335066.79347   9614362.54343  23130085.5864                   23130083.3324
 -11693133.48048  -9109616.44546  20719562.1024                   20719558.9614
   3649001.10548   2849761.54346  21082296.0554                   21082293.5824
  -2942729.58648  -2285795.77046  21370868.6564                   21370864.4414
 -12575671.59447  -9781217.00445  22087808.2974                   22087806.3134
  15282158.45347  11905521.86344  22855489.5634                   22855487.5744
  -4199402.66447  -3252950.85245  23070281.9454                   23070280.9024
  -5461018.02347  -4239167.68444  22779953.7734                   22779952.6134
 11  8 10 18  3 30.0000000  0  8G03G07G13G19G08G23G28G11
  12408436.67647   9671533.83243  23144047.1174                   23144045.2544
 -11759942.02748  -9161675.07846  20706849.0704                   20706846.0394
   3697379.35947   2887458.82846  21091501.8204                   21091499.4804
  -2919281.14848  -2267524.28146  21375330.5474                   21375326.3164
 -12676392.98447  -9859701.18045  22068641.4774                   22068639.5744
  15362516.86347  11968138.64544  22870780.9614                   22870779.0554
  -4273566.39547  -3310740.74645  23056169.2504                   23056167.8914
  -5561081.61747  -4317139.26244  22760912.6334                   22760910.2424
 11  8 10 18  4  0.0000000  0  8G03G07G13G19G08G23G28G11
  12482032.78947   9728881.38343  23158051.8364                   23158050.6054
 -11826509.31648  -9213545.70746  20694181.7194                   20694178.5634
   3746203.06648   2925503.21146  21100792.6724                   21100790.4264
  -2895304.07448  -2248840.87146  21379893.3674                   21379888.8674
 -12777060.96947  -9938143.75845  22049485.3754                   22049482.8364
  15443054.48047  12030895.06344  22886106.9844                   22886105.3054
  -4347544.46147  -3368385.95345  23042092.0234                   23042090.3324
  -5660913.06246  -4394929.93444  22741914.7734                   22741913.6914
 11  8 10 18  4 30.0000000  0  8G03G07G13G19G08G23G28G11
  12555850.59447   9786401.68043  23172098.7584                   23172097.0044
 -11892835.89848  -9265228.75446  20681560.3284                   20681557.0824
   3795467.43848   2963890.98046  21110167.3134                   21110165.3404
  -2870802.56247  -2229748.80546  21384555.6644                   21384551.4804
 -12877676.32047 -10016545.31645  22030338.7894                   22030336.6564
  15523766.18047  12093787.09845  22901466.2424                   22901465.0124
  -4421339.95347  -3425888.89845  23028049.5944                   23028047.4924
  -5760511.96946  -4472539.39144  22722961.9454                   22722960.3244
 11  8 10 18  5  0.0000000  0  8G03G07G13G19G08G23G28G11
  12629886.87947   9844092.22343  23186187.8134                   23186185.7624
 -11958920.97748  -9316723.60546  20668984.0784                   20668981.2814
   3845169.14148   3002619.52046  21119625.5474                   21119623.1524
  -2845779.61347  -2210250.42246  21389317.3594                   21389313.1524
 -12978238.07047 -10094905.11345  22011202.4774                   22011200.6374
  15604648.23847  12156811.91044  22916857.6954                   22916855.7974
  -4494954.30947  -3483250.70345  23014041.0234                   23014039.0704
  -5859875.58646  -4549965.54344  22704053.8834                   22704052.2584
 11  8 10 18  5 30.0000000  0  8G03G07G13G19G08G23G28G11
  12704138.19147   9901950.36744  23200317.8834                   23200314.6134
 -12024762.12148  -9368028.39846  20656455.3834                   20656452.6644
   3895305.86348   3041687.03546  21129166.0084                   21129163.9924
  -2820236.94947  -2190347.07446  21394178.2114                   21394173.6604
 -13078744.27347 -10173221.62145  21992077.0004                   21992074.4654
  15685698.16447  12219967.51644  22932280.9924                   22932279.8874
  -4568388.12147  -3540471.81644  23000066.2974                   23000064.5434
  -5959000.87547  -4627205.97744  22685190.5474                   22685189.1334
 11  8 10 18  6  0.0000000  0  8G03G07G13G19G08G23G28G11
  12778599.61747   9959972.19144  23214486.8834                   23214485.2814
 -12090360.19548  -9419143.78546  20643972.9384                   20643969.4224
   3945872.44947   3081089.50846  21138788.6174                   21138786.2234
  -2794179.65647  -2170042.71946  21399136.7034                   21399132.2624
 -13179196.23047 -10251495.86345  21972961.4454                   21972959.3794
  15766910.24647  12283249.45744  22947735.2584                   22947733.9924
  -4641644.60247  -3597554.73444  22986126.0864                   22986124.0474
  -6057887.27746  -4704260.25444  22666372.8284                   22666370.6174
 11  8 10 18  6 30.0000000  0  8G03G07G13G19G08G23G28G11
  12853266.69547  10018154.27044  23228695.7504                   23228694.3674
 -12155714.80948  -9470069.46146  20631536.2584                   20631532.9344
   3996864.90648   3120823.83246  21148492.2194                   21148490.0204
  -2767611.22748  -2149340.05946  21404192.4064                   21404188.3594
 -13279593.85547 -10329727.76245  21953856.1024                   21953854.2464
  15848280.03547  12346654.29744  22963219.4304                   22963218.0434
  -4714725.88747  -3654501.14144  22972219.1094                   22972216.9414
  -6156533.13347  -4781127.08644  22647600.9844                   22647599.7584
 11  8 10 18  7  0.0000000  0  8G03G07G13G19G08G23G28G11
  12928135.94547  10076493.87144  23242942.9384                   23242941.4844
 -12220824.74248  -9520804.47346  20619146.1254                   20619142.8054
   4048279.90248   3160887.39846  21158276.3524                   21158274.5004
  -2740534.39848  -2128241.26246  21409344.8594                   21409340.8284
 -13379935.95347 -10407916.39845  21934762.0944                   21934759.6644
  15929803.82847  12410179.12544  22978732.8914                   22978731.3984
  -4787633.35247  -3711312.12544  22958345.3364                   22958343.6334
  -6254936.31247  -4857804.84044  22628875.1024                   22628873.3794
 11  8 10 18  7 30.0000000  0  8G03G07G13G19G08G23G28G11
  13003204.09447  10134988.46544  23257227.5234                   23257226.3444
 -12285688.85548  -9571347.94946  20606802.8674                   20606799.8794
   4100114.37148   3201277.84446  21168140.2894                   21168138.2734
  -2712951.96148  -2106748.47746  21414593.8524                   21414589.5514
 -13480221.25847 -10486060.78145  21915678.2664                   21915676.2034
  16011478.46547  12473821.51644  22994275.2114                   22994273.2344
  -4860368.34847  -3767988.69944  22944504.3054                   22944502.9964
  -6353094.10947  -4934291.37144  22610196.6954                   22610195.2934
 11  8 10 18  8  0.0000000  0  8G03G07G13G19G08G23G28G11
  13078466.03547  10193634.06643  23271549.4144                   23271548.7384
 -12350307.24648  -9621699.94946  20594506.2974                   20594503.1484
   4152363.66048   3241991.50846  21178082.8674                   21178080.6294
  -2684868.45348  -2084865.25046  21419938.3054                   21419933.9494
 -13580450.43748 -10564161.41845  21896604.9454                   21896603.0904
  16093299.13747  12537577.67644  23009845.9534                   23009844.0984
  -4932933.59047  -3824532.98845  22930695.8444                   22930693.7854
  -6451005.59447  -5010585.95744  22591564.8364                   22591563.6804
 11  8 10 18  8 30.0000000  0  8G03G07G13G19G08G23G28G11
  13153919.58647  10252428.94544  23285908.0944                   23285906.9064
 -12414677.25848  -9671858.40246  20582257.1414                   20582253.7424
   4205025.90648   3283026.96546  21188104.1954                   21188102.3524
  -2656285.05547  -2062592.49646  21425377.0944                   21425372.9344
 -13680621.11748 -10642216.49245  21877543.1884                   21877541.2274
  16175263.47347  12601445.81644  23025443.1174                   23025441.0864
  -5005329.16047  -3880945.05544  22916918.8674                   22916916.4804
  -6548667.22347  -5086685.86744  22572980.4384                   22572978.8164
 11  8 10 18  9  0.0000000  0  8G03G07G13G19G08G23G28G11
  13229563.83246  10311372.42644  23300301.9614                   23300301.9574
 -12478795.67248  -9721820.81646  20570056.0234                   20570052.8484
   4258100.03148   3324383.36746  21198203.6254                   21198201.8954
  -2627202.49647  -2039930.78946  21430911.4924                   21430907.4574
 -13780729.94947 -10720223.35545  21858493.2274                   21858491.4924
  16257369.70347  12665424.52044  23041067.2504                   23041065.7704
  -5077554.48047  -3937224.47744  22903174.5164                   22903172.4654
  -6646074.25847  -5162587.37545  22554444.0784                   22554443.3674
 11  8 10 18  9 30.0000000  0  8G03G07G13G19G08G23G28G11
  13305393.45346  10370460.38744  23314732.1174                   23314732.0274
 -12542662.84448  -9771587.45346  20557902.2274                   20557899.2664
   4311580.98848   3366056.77746  21208380.8914                   21208378.6884
  -2597625.61348  -2016883.89546  21436539.8524                   21436535.7114
 -13880778.19547 -10798183.01245  21839454.8984                   21839452.4844
  16339612.73047  12729509.79344  23056717.6644                   23056717.1094
  -5149612.50447  -3993373.56244  22889462.8284                   22889460.7774
  -6743226.56647  -5238290.39845  22535956.8594                   22535955.6884
 11  8 10 18 10  0.0000000  0  8G03G07G13G19G08G23G28G11
  13381406.50846  10429691.17643  23329197.3364                   23329197.1764
 -12606276.48848  -9821156.52746  20545797.0164                   20545794.2664
   4365466.96948   3408045.78946  21218635.2424                   21218633.1564
  -2567555.92648  -1993453.00046  21442261.7034                   21442257.3284
 -13980762.85247 -10876093.12545  21820428.0784                   21820426.3134
  16421990.31347  12793699.88344  23072393.9534                   23072392.9494
  -5221503.22347  -4049392.26645  22875782.3834                   22875779.8014
  -6840120.05547  -5313791.75445  22517519.2274                   22517517.6724
 11  8 10 18 10 30.0000000  0  8G03G07G13G19G08G23G28G11
  13457600.89146  10489063.34444  23343696.9694                   23343695.9104
 -12669633.69948  -9870525.78546  20533740.4454                   20533737.4104
   4419756.09848   3450348.95346  21228966.1484                   21228964.0784
  -2536994.96948  -1969639.30146  21448077.4614                   21448073.2304
 -14080681.39147 -10953951.72345  21801414.4064                   21801412.5784
  16504500.48047  12857993.32444  23088095.9774                   23088093.9494
  -5293226.60247  -4105280.58245  22862133.7664                   22862131.9534
  -6936750.77747  -5389088.36344  22499130.5164                   22499128.9694
 11  8 10 18 11  0.0000000  0  8G03G07G13G19G08G23G28G11
  13533969.86746  10548571.55543  23358229.7034                   23358229.0984
 -12732736.66848  -9919696.93046  20521732.2034                   20521729.1374
   4474441.55947   3492960.94146  21239372.1414                   21239370.7974
  -2505948.82847  -1945447.53546  21453985.3594                   21453981.6054
 -14180536.37547 -11031760.79345  21782412.4224                   21782410.0004
  16587136.13347  12922384.52344  23103820.5784                   23103819.3164
  -5364787.64147  -4161042.38745  22848516.3284                   22848514.8134
  -7033119.70347  -5464180.96544  22480791.6884                   22480789.8324
 11  8 10 18 11 30.0000000  0  8G03G07G13G19G08G23G28G11
  13610514.17646  10608216.38344  23372795.8054                   23372795.8874
 -12795580.00448  -9968665.77046  20509773.0234                   20509770.8984
   4529524.52747   3535882.67646  21249854.3984                   21249852.2814
  -2474416.05547  -1920876.57446  21459986.3284                   21459982.0354
 -14280322.59448 -11109516.27345  21763423.8134                   21763421.7114
  16669898.07047  12986874.14144  23119569.7664                   23119569.1294
  -5436183.02047  -4216675.09445  22834929.9384                   22834928.6454
  -7129220.39547  -5539064.56245  22462504.8134                   22462503.0634
 11  8 10 18 12  0.0000000  0  8G03G07G13G19G08G23G28G11
  13687230.23046  10667995.04743  23387394.4304                   23387393.4304
 -12858162.67248 -10017431.50046  20497864.4614                   20497861.3954
   4585001.27748   3579111.24646  21260411.4534                   21260409.3954
  -2442400.08247  -1895929.09846  21466078.5314                   21466074.6334
 -14380038.88747 -11187217.27045  21744448.1804                   21744445.9844
  16752782.67247  13051459.32044  23135343.1094                   23135342.2424
  -5507414.44547  -4272180.05545  22821375.1804                   22821373.6914
  -7225050.41847  -5613737.25044  22444268.9844                   22444266.4414
 11  8 10 18 12 30.0000000  0  9G03G24G07G13G19G08G23G28G11
  13764111.69547  10727902.62543  23402024.7664                   23402023.8984
   6137443.31357   4802816.04353  23930529.9384                   23930533.0084
 -12920486.03147 -10065995.15646  20486005.0944                   20486001.5824
   4640865.96547   3622642.11345  21271041.9614                   21271040.4184
  -2409906.79347  -1870609.68746  21472261.6254                   21472257.5904
 -14479686.78148 -11264864.98045  21725486.0634                   21725483.6174
  16835783.57047  13116135.12144  23151137.0004                   23151136.3554
  -5578486.18047  -4327560.60245  22807851.0164                   22807848.5554
  -7320610.53947  -5688199.60945  22426084.0234                   22426082.8094
 11  8 10 18 13  0.0000000  0  9G03G24G07G13G19G08G23G28G11
  13841145.19946  10787928.68043  23416683.4614                   23416682.6484
   6033173.28946   4721566.82843  23910687.8914                   23910690.3754
 -12982559.34048 -10114363.97746  20474192.7344                   20474189.9534
   4697104.67248   3666464.43046  21281744.0314                   21281741.8204
  -2376949.46148  -1844928.67646  21478533.4224                   21478529.1724
 -14579275.59447 -11342466.63745  21706535.0554                   21706532.7154
  16918886.64547  13180890.53144  23166950.8834                   23166950.3444
  -5649409.97347  -4382825.86745  22794354.3054                   22794351.6214
  -7415908.66047  -5762457.80544  22407949.1334                   22407947.5864
 11  8 10 18 13 30.0000000  0  9G03G24G07G13G19G08G23G28G11
  13918324.48846  10848068.35543  23431370.3284                   23431368.6484
   5928878.13746   4640298.06643  23890840.4614                   23890843.3134
 -13044384.31248 -10162539.29346  20462427.9224                   20462424.7704
   4753711.14847   3710573.30946  21292515.9614                   21292514.1524
  -2343533.84847  -1818890.56646  21484892.2194                   21484888.0824
 -14678807.31248 -11420023.80945  21687594.8364                   21687592.3164
  17002085.74247  13245720.77344  23182784.3134                   23182782.9224
  -5720190.36347  -4437979.39545  22780885.1644                   22780882.8524
  -7510945.38347  -5836512.32444  22389864.8594                   22389862.4884
 11  8 10 18 14  0.0000000  0  9G03G24G07G13G19G08G23G28G11
  13995650.11346  10908321.98843  23446084.6024                   23446084.2544
   5824564.60946   4559014.93043  23870990.2974                   23870992.9804
 -13105955.35948 -10210516.75046  20450711.3134                   20450707.9924
   4810686.30147   3754969.47346  21303358.0394                   21303356.1094
  -2309658.80147  -1792494.46146  21491338.1094                   21491334.0784
 -14778276.41048 -11497532.19145  21668666.6024                   21668664.3984
  17085381.41046  13310626.23843  23198634.2114                   23198634.1804
  -5790824.28947  -4493018.78145  22767444.0864                   22767442.0474
  -7605713.99647  -5910357.93044  22371830.8444                   22371827.9144
 11  8 10 18 14 30.0000000  0  9G03G24G07G13G19G08G23G28G11
  14073125.02046  10968691.99243  23460827.7734                   23460826.9884
   5720241.10547   4477724.00443  23851137.9844                   23851141.0944
 -13167265.34847 -10258290.77746  20439044.4224                   20439041.4414
   4868032.68447   3799654.90245  21314270.5704                   21314269.2034
  -2275321.23047  -1765737.94546  21497872.4844                   21497868.4384
 -14877675.71948 -11574986.17646  21649751.6724                   21649749.1764
  17168776.14147  13375608.92644  23214504.1174                   23214503.5824
  -5861307.14847  -4547940.43045  22754030.9144                   22754029.4574
  -7700205.94147  -5983987.96945  22353849.6174                   22353847.1524
 11  8 10 18 15  0.0000000  0  9G03G24G07G13G19G08G23G28G11
  14150750.37946  11029179.23043  23475598.9694                   23475598.4304
   5615914.96547   4396431.02343  23831285.5164                   23831287.4264
 -13228307.75447 -10305856.31246  20427428.6484                   20427425.6844
   4925752.14147   3844631.03546  21325254.2504                   21325252.9064
  -2240519.38348  -1738619.66046  21504495.0944                   21504490.9264
 -14976999.00847 -11652380.94145  21630850.4304                   21630848.4064
  17252271.43447  13440669.98044  23230393.3984                   23230392.4304
  -5931635.43447  -4602741.62945  22740648.2974                   22740646.9804
  -7794414.04747  -6057396.82044  22335922.2814                   22335919.7544
 11  8 10 18 15 30.0000000  0  9G03G24G07G13G19G08G23G28G11
  15803942.84846  12317381.15643  23790191.1334                   23790190.3634
   7087014.22747   5542742.26643  24111226.3524                   24111228.9494
 -11713657.21547  -9125609.15246  20715656.8754                   20715654.0554
   6559261.48847   5117495.40245  21636101.3444                   21636099.3954
   -629834.83648   -483540.81646  21810998.3984                   21810993.8164
 -13500819.55548 -10502111.22346  21911758.2344                   21911756.2274
  18911283.43047  14733406.36344  23546092.7894                   23546091.6334
  -4426385.73047  -3429819.74245  23027087.9454                   23027086.2384
  -6312910.64547  -4902978.49245  22617842.2734                   22617841.5434
 11  8 10 18 16  0.0000000  0  9G03G24G07G13G19G08G23G28G11
  15881867.64847  12378101.64143  23805020.3754                   23805019.5354
   6982697.17646   5461456.40643  24091375.1414                   24091377.7934
 -11774153.34047  -9172749.00046  20704144.8754                   20704141.7384
   6617724.55147   5163050.97746  21647226.0704                   21647224.7304
   -594105.58648   -455699.86746  21817797.2734                   21817793.3444
 -13599979.67247 -10579378.82445  21892888.7114                   21892886.7344
  18994977.10947  14798621.98844  23562019.9844                   23562018.5354
  -4496401.05947  -3484377.10945  23013764.9064                   23013762.5124
  -6406536.53547  -4975933.66444  22600026.0474                   22600024.4104
 11  8 10 18 16 30.0000000  0  9G03G24G07G13G19G08G23G28G11
  15959938.63346  12438936.09044  23819876.0554                   23819876.1564
   6878389.84047   5380178.13343  24071526.0314                   24071529.2504
 -11834372.79347  -9219673.25446  20692685.3984                   20692682.4494
   6676555.93847   5208893.54746  21658421.8204                   21658419.6884
   -557915.47748   -427499.80146  21824684.2034                   21824679.9964
 -13699054.39848 -10656579.90645  21874034.9534                   21874032.8594
  19078766.35547  14863912.07443  23577964.0554                   23577963.7304
  -4566260.42647  -3538812.95744  23000470.6724                   23000467.7154
  -6499865.91847  -5048657.76645  22582266.0084                   22582264.5704
 11  8 10 18 17  0.0000000  0  9G03G24G07G13G19G08G23G28G11
  16038152.29746  12499881.70744  23834759.8754                   23834760.0824
   6774094.36347   5298909.02743  24051679.5234                   24051681.1564
 -11894314.60247  -9266381.16046  20681278.8054                   20681275.8364
   6735752.02347   5255020.30145  21669686.1024                   21669684.5084
   -521267.87548   -398943.26646  21831657.9694                   21831653.6644
 -13798042.89148 -10733713.78145  21855198.4614                   21855196.2854
  19162647.52347  14929273.79744  23593926.6884                   23593924.7544
  -4635965.61747  -3593128.64844  22987205.7814                   22987203.3594
  -6592897.01647  -5121149.48445  22564562.7664                   22564561.2664
 11  8 10 18 17 30.0000000  0  9G03G24G07G13G19G08G23G28G11
  16116507.80546  12560937.82043  23849670.4064                   23849670.5634
   6669815.41447   5217652.77743  24031835.5394                   24031837.9414
 -11953975.10248  -9312869.87946  20669925.9304                   20669923.0514
   6795311.80147   5301430.44945  21681020.2274                   21681018.7894
   -484163.68048   -370030.93446  21838718.7194                   21838714.1484
 -13896941.89148 -10810777.92645  21836378.5634                   21836376.3364
  19246619.08647  14994705.94544  23609905.5704                   23609905.4884
  -4705515.67247  -3647323.44544  22973970.5634                   22973968.9024
  -6685625.03547  -5193405.00045  22546916.8204                   22546916.2704
 11  8 10 18 18  0.0000000  0  9G03G24G07G13G19G08G23G28G11
  16195001.35946  12622101.49643  23864608.2584                   23864607.4534
   6565554.71946   5136410.75843  24011994.5944                   24011997.8164
 -12013353.86347  -9359139.05146  20658626.2344                   20658623.6844
   6855230.93847   5348120.62145  21692422.2504                   21692420.9964
   -446606.61348   -340765.71946  21845865.0474                   21845861.1804
 -13995750.47748 -10887771.60946  21817575.6484                   21817574.3754
  19330677.18846  15060205.50043  23625900.8524                   23625900.9264
  -4774912.79747  -3701399.08245  22960765.3054                   22960763.6174
  -6778048.29747  -5265423.06245  22529329.7814                   22529328.0824
 11  8 10 18 18 30.0000000  0  9G03G24G07G13G19G08G23G28G11
  16273630.44947  12683370.91843  23879570.8364                   23879569.9224
   6461316.01646   5055185.93043  23992158.0554                   23992162.6484
 -12072448.05148  -9405186.48046  20647381.1174                   20647378.4964
   6915507.54747   5395089.34045  21703892.4384                   21703891.3914
   -408598.37548   -311148.95346  21853098.1804                   21853094.0864
 -14094466.18748 -10964692.93046  21798790.7274                   21798789.2854
  19414819.80546  15125770.89543  23641913.9224                   23641912.9654
  -4844156.71547  -3755355.34445  22947588.4774                   22947586.5594
  -6870162.95347  -5337200.65645  22511800.4304                   22511799.7034
 11  8 10 18 19  0.0000000  0  9G03G24G07G13G19G08G23G28G11
  16352389.09047  12744741.23044  23894557.5474                   23894557.4774
   6357098.59846   4973977.64543  23972326.9144                   23972330.5394
 -12131259.46548  -9451013.57046  20636189.7194                   20636186.9304
   6976135.00447   5442331.43045  21715429.6954                   21715428.4144
   -370145.37148   -281185.60546  21860415.5864                   21860411.3444
 -14193090.98048 -11041543.39846  21780023.1954                   21780021.2894
  19499040.03547  15191396.78544  23657940.7664                   23657940.0634
  -4913251.92647  -3809195.73445  22934440.0864                   22934438.4534
  -6961970.19147  -5408738.69945  22494330.4774                   22494328.5274
 11  8 10 18 19 30.0000000  0  9G03G24G07G13G19G08G23G28G11
  16431276.90646  12806212.21544  23909570.0004                   23909569.3404
   6252907.68047   4892790.01243  23952500.1094                   23952503.4264
 -12189784.37147  -9496617.41046  20625052.7114                   20625049.9654
   7037112.77347   5489846.50045  21727033.3984                   21727032.1804
   -331247.77748   -250875.82046  21867817.6414                   21867813.3444
 -14291620.45348 -11118319.60546  21761273.8364                   21761271.6724
  19583337.34447  15257082.71544  23673982.3524                   23673981.7154
  -4982197.32847  -3862919.36745  22921319.8364                   22921318.0314
  -7053464.73047  -5480033.08645  22476919.4144                   22476917.9574
 11  8 10 18 20  0.0000000  0  9G03G24G07G13G19G08G23G28G11
  16510292.35546  12867782.54343  23924605.5944                   23924605.8754
   6148747.60547   4811626.36743  23932679.4144                   23932682.3014
 -12248019.30948  -9541995.28947  20613971.2034                   20613968.5354
   7098439.45347   5537633.45745  21738703.8284                   21738701.8954
   -291906.44547   -220220.27346  21875304.0234                   21875300.6884
 -14390051.24248 -11195018.91046  21742542.8524                   21742541.2424
  19667710.24247  15322827.55944  23690037.8444                   23690037.7624
  -5050992.08647  -3916525.64544  22908228.6804                   22908226.5634
  -7144641.71547  -5551080.02745  22459568.8134                   22459567.2974
 11  8 10 18 20 30.0000000  0  9G03G24G07G13G19G08G23G28G11
  16589429.19146  12929447.43443  23939664.5864                   23939665.0864
   6044617.46146   4730486.06643  23912863.3754                   23912866.3484
 -12305966.15247  -9587148.67646  20602944.2194                   20602941.2194
   7160108.39147   5585687.10945  21750438.9144                   21750436.9064
   -252127.48048   -189223.71146  21882873.8524                   21882869.8984
 -14488385.28148 -11271642.83646  21723830.7584                   21723828.6054
  19752152.33247  15388626.35243  23706106.9774                   23706106.2814
  -5119640.85947  -3970018.15645  22895165.7034                   22895163.6604
  -7235502.41447  -5621880.50445  22442278.6254                   22442277.6334
 11  8 10 18 21  0.0000000  0  8G24G07G13G19G08G23G28G11
   5940524.18846   4649374.57043  23893054.2504                   23893058.0594
 -12363619.19948  -9632073.14146  20591973.1724                   20591970.5944
   7222120.36747   5634008.06345  21762239.4064                   21762237.8364
   -211910.37148   -157885.73446  21890526.9224                   21890522.9104
 -14586617.02748 -11348187.03946  21705137.7734                   21705135.8794
  19836664.06647  15454479.35943  23722188.4064                   23722188.7854
  -5188140.79747  -4023394.69945  22882130.6094                   22882128.1884
  -7326040.34447  -5692429.48045  22425049.7504                   22425048.4264
 11  8 10 18 21 30.0000000  0  8G24G07G13G19G08G23G28G11
   5836473.26647   4568296.08243  23873254.4064                   23873257.6524
 -12420973.96548  -9676765.18046  20581059.0864                   20581056.0234
   7284475.06347   5682596.05945  21774105.0084                   21774103.9454
   -171254.85248   -126206.14546  21898263.1414                   21898259.5044
 -14684741.73448 -11424647.83646  21686465.0944                   21686463.4414
  19921245.33247  15520386.59144  23738284.5634                   23738284.2774
  -5256490.12947  -4076653.87945  22869124.4064                   22869121.9104
  -7416249.82847  -5762722.52745  22407883.4144                   22407881.6804
 11  8 10 18 22  0.0000000  0  8G24G07G13G19G08G23G28G11
   5732476.18847   4487259.48443  23853465.7664                   23853468.4694
 -12478020.18448  -9721216.78546  20570203.6024                   20570200.5514
   7347178.26247   5731455.60945  21786037.2034                   21786036.0084
   -130154.93748    -94180.26646  21906084.2034                   21906080.6454
 -14782749.01648 -11501017.14146  21667815.0784                   21667813.5124
  20005901.85547  15586352.39843  23754394.8134                   23754393.7854
  -5324681.23447  -4129789.77745  22856147.6254                   22856145.7304
  -7506119.64547  -5832750.89145  22390782.1564                   22390779.5634
 11  8 10 18 22 30.0000000  0  8G24G07G13G19G08G23G28G11
   5628542.25446   4406272.12143  23833686.3054                   23833689.4184
 -12534749.85548  -9765421.73046  20559408.0554                   20559405.2344
   7410232.79347   5780588.94945  21798036.2734                   21798034.8054
    -88607.38348    -61805.58246  21913990.5234                   21913986.4884
 -14880630.98448 -11577288.78146  21649188.6884                   21649186.7344
  20090636.87547  15652379.43843  23770519.1724                   23770518.5394
  -5392708.77747  -4182798.21945  22843202.0704                   22843200.6724
  -7595640.71547  -5902507.52045  22373746.2424                   22373744.5864
 11  8 10 18 23  0.0000000  0  8G24G07G13G19G08G23G28G11
   5524668.11747   4325331.34843  23813920.4064                   23813921.2424
 -12591167.40648  -9809383.46946  20548672.1644                   20548669.2934
   7473630.06647   5829989.35245  21810100.5164                   21810098.7344
    -46620.62148    -29088.66046  21921980.4064                   21921976.8014
 -14978391.79348 -11653466.02746  21630585.5554                   21630583.3134
  20175441.25646  15718460.45343  23786656.8444                   23786657.0434
  -5460579.69547  -4235684.61345  22830286.7034                   22830284.9844
  -7684816.43747  -5971995.03545  22356776.8284                   22356775.0274
 11  8 10 18 23 30.0000000  0  8G24G07G13G19G08G23G28G11
   5420850.68047   4244434.69943  23794164.4454                   23794166.7934
 -12647277.39848  -9853105.55946  20537994.9384                   20537992.0434
   7537361.02747   5879649.75845  21822227.6254                   21822226.1134
     -4203.66848      3963.48446  21930052.2584                   21930048.5004
 -15076035.71948 -11729552.18046  21612004.8054                   21612002.4734
  20260305.96547  15784588.54743  23802806.4064                   23802806.4614
  -5528301.18747  -4288454.57845  22817399.6804                   22817397.9574
  -7773650.08647  -6041216.02345  22339873.1254                   22339871.4654
 11  8 10 18 24  0.0000000  0  8G24G07G13G19G08G23G28G11
   5317091.83647   4163583.76244  23774420.4844                   23774422.9384
 -12703078.99648  -9896587.32846  20527376.1484                   20527373.3014
   7601421.03547   5929566.56345  21834418.5784                   21834416.3444
     38639.88748     37348.04746  21938205.0394                   21938201.5474
 -15173561.87148 -11805546.58646  21593445.5234                   21593443.3554
  20345226.95747  15850760.46143  23818966.5704                   23818966.6884
  -5595875.23047  -4341109.65645  22804541.0314                   22804538.8794
  -7862140.03147  -6110169.18045  22323033.4454                   22323031.7194
 11  8 10 18 24 30.0000000  0  8G24G07G13G19G08G23G28G11
   5213389.03147   4082776.50044  23754685.8054                   23754688.5984
 -12758575.61748  -9939831.45746  20516815.5474                   20516812.6484
   7665802.09447   5979733.55145  21846669.4924                   21846668.3244
     81901.70748     71058.52046  21946437.6254                   21946433.9804
 -15270973.66848 -11881451.85546  21574908.8594                   21574906.8094
  20430196.02046  15916969.82043  23835135.9924                   23835135.7934
  -5663307.76247  -4393654.45745  22791709.3984                   22791707.1054
  -7950288.65647  -6178856.35245  22306258.4454                   22306257.7274
 11  8 10 18 25  0.0000000  0  8G24G07G13G19G08G23G28G11
   5109745.91046   4002015.79743  23734962.8674                   23734965.9414
 -12813764.70748  -9982835.95747  20506313.5314                   20506310.6334
   7730501.82847   6030148.84845  21858981.3914                   21858980.4144
    125580.12547    105093.61746  21954749.5004                   21954745.9144
 -15368268.39148 -11957265.90646  21556394.2814                   21556391.9064
  20515210.95346  15983214.92243  23851313.7894                   23851314.1484
  -5730599.51647  -4446089.57045  22778903.7194                   22778901.8634
  -8038092.82447  -6247275.12945  22289550.0634                   22289549.6484
 11  8 10 18 25 30.0000000  0  8G24G07G13G19G08G23G28G11
   5006165.96146   3921304.32843  23715251.8754                   23715255.3404
 -12868644.59848 -10025599.52046  20495870.1884                   20495867.5474
   7795517.52747   6080810.34845  21871353.5864                   21871352.2934
    169672.30947    139451.12946  21963139.5164                   21963136.3094
 -15465444.16448 -12032987.28946  21537902.6414                   21537900.1804
  20600269.15247  16049493.74244  23867500.5234                   23867500.9534
  -5797750.82047  -4498415.22345  22766125.1024                   22766123.1564
  -8125549.68447  -6315423.29345  22272908.1024                   22272906.6254
 11  8 10 18 26  0.0000000  0  8G24G07G13G19G08G23G28G11
   4902651.38747   3840643.69943  23695554.3134                   23695555.1804
 -12923213.66848 -10068120.87146  20485485.9924                   20485483.4734
   7860845.60248   6131715.25845  21883785.1884                   21883784.1134
    214175.07447    174128.56646  21971608.1724                   21971604.8364
 -15562499.62148 -12108614.89546  21519433.3364                   21519431.1764
  20685366.78146  16115803.26243  23883693.7504                   23883694.7704
  -5864763.29747  -4550632.69145  22753373.0944                   22753371.4104
  -8212656.58647  -6383298.75845  22256332.1644                   22256330.7854
 11  8 10 18 26 30.0000000  0  8G24G07G13G19G08G23G28G11
   4799203.73047   3760035.17643  23675868.9224                   23675870.1134
 -12977472.06648 -10110400.16046  20475161.0394                   20475158.0904
   7926481.93847   6182860.37545  21896275.5474                   21896273.8164
    259084.52347    209122.89846  21980154.5554                   21980150.8364
 -15659433.70748 -12184147.94146  21500987.4064                   21500985.8524
  20770499.84446  16182140.41043  23899893.7814                   23899894.5554
  -5931639.18447  -4602743.71145  22740647.0474                   22740645.0204
  -8299412.43047  -6450900.67245  22239822.7114                   22239820.4024
 11  8 10 18 27  0.0000000  0  8G24G07G13G19G08G23G28G11
   4695830.54746   3679484.76243  23656196.8204                   23656199.5434
 -13031413.14148 -10152432.17646  20464896.2194                   20464893.2304
   7992427.66447   6234246.57045  21908824.6484                   21908823.6214
    304402.41847    244435.50846  21988778.5474                   21988774.4184
 -15756240.27748 -12259581.61746  21482565.9694                   21482563.5084
  20855670.14547  16248506.57043  23916102.1024                   23916101.6294
  -5998374.74647  -4654745.43045  22727948.2274                   22727945.8284
  -8385809.79347  -6518223.22345  22223381.6174                   22223380.1684
 11  8 10 18 27 30.0000000  0  8G24G07G13G19G08G23G28G11
   4592532.62946   3598993.06644  23636540.3364                   23636542.7114
 -13085037.34848 -10194217.28946  20454691.9224                   20454688.9774
   8058677.57047   6285869.78545  21921431.3984                   21921430.7114
    350123.57448    280062.34846  21997478.3054                   21997474.8594
 -15852919.58248 -12334916.13746  21464168.0394                   21464166.5274
  20940872.23847  16314897.52044  23932315.6954                   23932316.0004
  -6064973.57447  -4706640.60245  22715275.0004                   22715271.6724
  -8471848.44147  -6585266.29745  22207009.3594                   22207007.6414
 11  8 10 18 28  0.0000000  0  8G24G07G13G19G08G23G28G11
   4489317.00447   3518565.46143  23616898.1644                   23616901.0904
 -13138339.16448 -10235751.18446  20444548.8204                   20444546.1564
   8125232.57047   6337730.74245  21934096.5944                   21934095.1914
    396249.14147    316004.31345  22006255.7424                   22006252.0864
 -15949465.66448 -12410146.84046  21445796.1094                   21445794.1804
  21026107.30146  16381314.09043  23948535.7424                   23948535.9264
  -6131432.40647  -4758426.67645  22702627.5704                   22702625.0044
  -8557521.89847  -6652024.78545  22190706.0554                   22190703.7274
 11  8 10 18 28 30.0000000  0  8G24G07G13G19G08G23G28G11
   4386189.09046   3438206.18443  23597273.4144                   23597276.0434
 -13191314.19548 -10277030.43447  20434468.0704                   20434465.3404
   8192091.84047   6389828.78145  21946819.7664                   21946818.4224
    442778.96147    352261.28145  22015110.4224                   22015106.4774
 -16045874.14148 -12485270.31646  21427450.2274                   21427448.5434
  21111374.90246  16447756.05143  23964761.4064                   23964762.3444
  -6197749.47747  -4810102.29745  22690007.5944                   22690005.3014
  -8642824.60547  -6718494.39145  22174473.5864                   22174470.9574
 11  8 10 18 29  0.0000000  0  8G24G07G13G19G08G23G28G11
   4283150.49247   3357916.52044  23577666.3984                   23577668.5554
 -13243962.11348 -10318054.79346  20424449.5554                   20424446.8284
   8259251.19147   6442160.67245  21959599.8134                   21959598.4804
    489708.98447    388830.10245  22024040.7974                   22024037.0394
 -16142143.96148 -12560285.75846  21409130.7974                   21409129.1094
  21196670.73446  16514219.98443  23980993.5474                   23980993.9144
  -6263927.44547  -4861669.50445  22677414.0394                   22677412.1174
  -8727755.28547  -6784674.11345  22158311.5084                   22158309.9344
 11  8 10 18 29 30.0000000  0  8G24G07G13G19G08G23G28G11
   4180205.27047   3277699.63344  23558076.7584                   23558078.2664
 -13296280.26648 -10358822.19146  20414493.9774                   20414490.8954
   8326708.53147   6494724.74245  21972436.8524                   21972435.4534
    537037.23847    425709.21945  22033047.1724                   22033043.8874
 -16238272.47748 -12635191.06646  21390837.9384                   21390835.9104
  21281992.73446  16580704.41843  23997229.8444                   23997230.2774
  -6329966.18047  -4913128.22745  22664847.4224                   22664846.3984
  -8812310.66447  -6850561.39145  22142221.6724                   22142219.0434
 11  8 10 18 30  0.0000000  0  8G24G07G13G19G08G23G28G11
   4077357.73847   3197558.80143  23538505.6414                   23538506.8094
 -13348265.71548 -10399330.33647  20404601.5394                   20404598.6334
   8394462.26247   6547519.76645  21985329.9844                   21985328.3444
    584762.02747    462897.33246  22042129.0784                   22042125.7584
 -16334256.38348 -12709983.71146  21372572.5864                   21372570.7974
  21367339.66946  16647208.17643  24013470.4384                   24013472.4104
  -6395865.14847  -4964478.03545  22652307.8134                   22652306.0864
  -8896486.50047  -6916152.94145  22126203.3284                   22126201.1764
 11  8 10 18 30 30.0000000  0  8G24G07G13G19G08G23G28G11
   3974611.60546   3117497.00043  23518951.4774                   23518954.6294
 -13399915.69548 -10439577.06647  20394772.7034                   20394769.5084
   8462510.21147   6600544.05545  21998278.8524                   21998277.4924
    632882.04747    500393.41046  22051285.9774                   22051282.4654
 -16430092.71148 -12784661.35246  21354335.9614                   21354334.3164
  21452709.64846  16713729.86343  24029716.3204                   24029718.2464
  -6461624.25847  -5015718.86345  22639793.9224                   22639791.7074
  -8980279.16847  -6981445.90245  22110257.3834                   22110255.4264
 11  8 10 18 31  0.0000000  0  8G24G07G13G19G08G23G28G11
   3871966.39846   3037513.91044  23499420.2034                   23499421.9104
 -13451232.14148 -10479563.90647  20385007.4224                   20385004.5904
   8530845.44547   6653792.19545  22011282.9144                   22011281.3204
    681390.54347    538192.19546  22060516.8914                   22060513.4844
 -16525783.02048 -12859225.21546  21336126.4224                   21336124.8094
  21538095.84846  16780264.26243  24045965.2814                   24045966.3484
  -6527248.39547  -5066854.53945  22627305.9924                   22627303.7344
  -9063689.69947  -7046441.10245  22094385.8444                   22094382.7424
 11  8 10 18 31 30.0000000  0  8G24G07G13G19G08G23G28G11
   3769428.03547   2957614.06644  23479906.8984                   23479910.3834
 -13502210.14848 -10519287.02747  20375306.5394                   20375303.8984
   8599467.89547   6707264.15245  22024341.2584                   22024340.0704
    730287.68047    576293.82845  22069822.0634                   22069818.1844
 -16621322.17248 -12933671.28946  21317945.9384                   21317943.7544
  21623498.36346  16846811.37143  24062217.4924                   24062218.3954
  -6592735.46547  -5117883.39145  22614844.1804                   22614841.6884
  -9146712.41847  -7111134.11745  22078586.6414                   22078584.4024
 11  8 10 18 32  0.0000000  0  8G24G07G13G19G08G23G28G11
   3666999.91447   2877800.12544  23460416.2814                   23460418.7544
 -13552847.98048 -10558745.07847  20365670.4144                   20365668.0354
   8668375.35247   6760958.18445  22037453.8594                   22037452.5664
    779571.23047    614696.55945  22079200.0474                   22079196.0044
 -16716707.85948 -13007997.78546  21299794.8054                   21299792.4734
  21708915.25046  16913369.63343  24078471.5784                   24078473.3874
  -6658085.48847  -5168805.47345  22602408.7114                   22602406.1684
  -9229344.41447  -7175522.66845  22062862.8284                   22062861.1484
 11  8 10 18 32 30.0000000  0  8G24G07G13G19G08G23G28G11
   3564681.60547   2798071.73844  23440945.1884                   23440947.6604
 -13603146.59448 -10597938.80946  20356098.9774                   20356096.0864
   8737561.01247   6814868.97745  22050619.3444                   22050618.1844
    829234.96147    653395.52045  22088650.5784                   22088646.4924
 -16811940.86748 -13082205.30546  21281672.4774                   21281670.4924
  21794340.17646  16979934.14143  24094727.3364                   24094729.6134
  -6723303.15647  -5219624.39845  22589997.8674                   22589995.3674
  -9311586.21547  -7239607.15245  22047211.9224                   22047210.3284
 11  8 10 18 33  0.0000000  0  7G24G07G13G19G08G28G11
   3462475.82047   2718431.01643  23421495.8914                   23421497.4344
 -13653105.24248 -10636867.63747  20346592.5234                   20346589.4804
   8807021.03947   6868993.57845  22063837.5234                   22063835.7074
    879275.39147    692388.02045  22098173.4384                   22098169.1764
 -16907020.23048 -13156293.12946  21263579.5234                   21263577.2424
  -6788390.27347  -5270341.59045  22577612.0784                   22577609.4144
  -9393436.23047  -7303386.35545  22031636.8204                   22031634.8404
 11  8 10 18 33 30.0000000  0  7G24G07G13G19G08G28G11
   3360387.09047   2638881.45343  23402068.4774                   23402069.6214
 -13702720.51648 -10675528.89547  20337150.7734                   20337148.4694
   8876754.32447   6923331.10945  22077107.2894                   22077106.2584
    929691.35247    731673.14145  22107767.1724                   22107763.3164
 -17001942.25848 -13230258.33646  21245516.3444                   21245513.8634
  -6853345.61747  -5320956.12945  22565252.2814                   22565248.9344
  -9474890.03147  -7366856.82045  22016136.7114                   22016135.0274
 11  8 10 18 34  0.0000000  0  7G24G07G13G19G08G28G11
   3258431.65247   2559435.78144  23382667.0474                   23382669.4614
 -13751977.41048 -10713910.87947  20327777.3364                   20327774.7544
   8946770.89547   6977889.37945  22090430.6564                   22090430.1374
    980493.35947    771259.07845  22117434.3914                   22117430.8054
 -17096691.54348 -13304088.94946  21227486.3674                   21227484.5314
  -6918157.05947  -5371458.53145  22552918.5944                   22552916.0354
  -9555931.83647  -7430006.23845  22000714.7974                   22000713.1804
 11  8 10 18 34 30.0000000  0  7G24G07G13G19G08G28G11
   3156616.62147   2480099.50444  23363292.5864                   23363294.6374
 -13800870.50048 -10752009.39547  20318473.1564                   20318470.5354
   9017071.59047   7032669.02745  22103808.8364                   22103807.9694
   1031682.48447    811146.67645  22127175.2664                   22127171.9454
 -17191261.69148 -13377779.96546  21209490.2194                   21209487.8364
  -6982821.60547  -5421846.44145  22540613.3444                   22540611.1524
  -9636554.97347  -7492829.42645  21985372.9534                   21985370.9104
 11  8 10 18 35  0.0000000  0  7G24G07G13G19G08G28G11
   3054940.25447   2400871.32444  23343943.8594                   23343947.1134
 -13849402.48048 -10789826.52747  20309237.8914                   20309235.0594
   9087648.54347   7087663.94545  22117239.5784                   22117238.4804
   1083251.13747    851329.99245  22136988.8524                   22136984.9224
 -17285655.28548 -13451333.41046  21191527.5394                   21191525.9264
  -7047344.70347  -5472124.16045  22528334.8754                   22528332.7304
  -9716761.40647  -7555327.92245  21970109.8984                   21970108.1994
 11  8 10 18 35 30.0000000  0  7G24G07G13G19G08G28G11
   2953400.93047   2321749.91844  23324621.5944                   23324623.9024
 -13897576.56248 -10827364.76247  20300070.7894                   20300068.1484
   9158494.05147   7142868.13745  22130720.8914                   22130719.7154
   1135191.91447    891803.28145  22146872.7344                   22146869.6484
 -17379875.26248 -13524751.56646  21173598.0394                   21173595.8094
  -7111732.11347  -5522296.13745  22516082.0004                   22516080.4024
  -9796553.69547  -7617503.71145  21954926.0234                   21954924.6454
 11  8 10 18 36  0.0000000  0  7G24G07G13G19G08G28G11
   2851997.74647   2242734.59844  23305325.4844                   23305327.4224
 -13945394.56248 -10864625.56647  20290971.3834                   20290968.9064
   9229601.02747   7198276.06645  22144251.8204                   22144250.9534
   1187497.86347    932561.11345  22156825.8444                   22156822.6914
 -17473923.38748 -13598035.82046  21155701.3444                   21155699.3984
  -7175988.75847  -5572366.20745  22503854.2974                   22503852.3954
  -9875933.09447  -7679357.76245  21939820.7894                   21939818.8484
 11  8 10 18 36 30.0000000  0  7G24G07G13G19G08G28G11
   2750734.26647   2163828.07443  23286055.3364                   23286055.1764
 -13992854.87548 -10901607.61347  20281940.1484                   20281937.3094
   9300967.23847   7253886.00045  22157832.6804                   22157831.5864
   1240166.97347    973601.94545  22166848.6724                   22166845.1214
 -17567796.93448 -13671184.02346  21137837.9144                   21137835.6024
  -7240115.00047  -5622334.66845  22491652.0704                   22491649.2854
  -9954896.75847  -7740887.86745  21924794.2274                   21924793.2464
 11  8 10 18 37  0.0000000  0  7G24G07G13G19G08G28G11
   2649606.17647   2085027.07043  23266810.7504                   23266810.2854
 -14039962.89148 -10938315.16446  20272975.7114                   20272972.8324
   9372581.90247   7309689.52345  22171460.5084                   22171459.5824
   1293188.73047   1014917.55145  22176938.5704                   22176934.6994
 -17661501.10948 -13744200.25846  21120006.4064                   21120004.2504
  -7304119.43447  -5672208.22745  22479471.8054                   22479469.7544
 -10033449.53547  -7802097.79745  21909845.7274                   21909844.4414
 11  8 10 18 37 30.0000000  0  7G24G07G13G19G08G28G11
   2548617.40647   2006334.64844  23247593.6724                   23247595.4024
 -14086716.51247 -10974746.55547  20264078.9844                   20264076.4224
   9444442.55547   7365684.73445  22185135.1884                   22185134.0984
   1346561.05947   1056506.34845  22187094.5634                   22187090.8324
 -17755032.94948 -13817082.19946  21102207.7274                   21102205.7424
  -7368001.67647  -5721986.55545  22467315.3674                   22467313.4924
 -10111587.87147  -7862984.78945  21894977.0634                   21894974.8834
 11  8 10 18 38  0.0000000  0  7G24G07G13G19G08G28G11
   2447770.57447   1927752.87144  23228402.8284                   23228405.5704
 -14133113.93748 -11010900.41047  20255249.6724                   20255247.1054
   9516545.77347   7421868.95345  22198856.2974                   22198855.5004
   1400281.03147   1098366.01245  22197317.8914                   22197313.3444
 -17848390.36748 -13889828.23846  21084442.6644                   21084440.5784
  -7431763.27347  -5771670.89145  22455182.4534                   22455180.2854
 -10189309.79347  -7923547.31245  21880187.3054                   21880184.5984
 11  8 10 18 38 30.0000000  0  7G24G07G13G19G08G28G11
   2347066.83647   1849282.55944  23209240.0164                   23209241.3524
 -14179155.53948 -11046776.97347  20246488.2974                   20246485.7194
   9588886.85247   7478238.50445  22212622.1804                   22212621.0744
   1454343.69547   1140492.73845  22207605.6174                   22207601.5314
 -17941573.21548 -13962438.23446  21066710.6334                   21066708.6564
  -7495406.96547  -5821263.34445  22443071.1804                   22443069.2704
 -10266614.76647  -7983784.93445  21865476.4534                   21865473.5944
 11  8 10 18 39  0.0000000  0  7G24G07G13G19G08G28G11
   2246509.64547   1770926.44944  23190103.6884                   23190105.6914
 -14224838.91447 -11082374.41847  20237795.0554                   20237792.1954
   9661462.90247   7534791.14845  22226433.6884                   22226432.2934
   1508746.87947   1182884.78545  22217957.9454                   22217953.9964
 -18034578.79348 -14034910.09846  21049012.0234                   21049009.8054
  -7558932.84447  -5870764.00845  22430982.9614                   22430980.7734
 -10343499.54747  -8043695.13345  21850845.4144                   21850843.6884
 11  8 10 18 39 30.0000000  0  7G24G07G13G19G08G28G11
   2146102.76647   1692687.46943  23170996.9694                   23170998.4494
 -14270161.82048 -11117690.98446  20229170.4454                   20229167.6174
   9734271.68447   7591525.14545  22240288.5944                   22240287.1724
   1563488.11747   1225540.26645  22228374.9774                   22228371.6564
 -18127404.37148 -14107241.70346  21031348.0474                   21031345.7774
  -7622341.57847  -5920173.39145  22418916.6804                   22418914.2584
 -10419961.36347  -8103275.73845  21836295.4534                   21836293.5204
 11  8 10 18 40  0.0000000  0  7G24G07G13G19G08G28G11
   2045852.43447   1614570.45743  23151920.2424                   23151921.2384
 -14315119.75448 -11152723.13746  20220615.3914                   20220612.6844
   9807313.06647   7648440.41045  22254187.8834                   22254186.8364
   1618567.85247   1268459.48845  22238856.8364                   22238852.8244
 -18220044.51648 -14179428.81646  21013719.1804                   21013717.0124
  -7685630.96947  -5969489.76245  22406872.4534                   22406870.2814
 -10495994.40247  -8162522.21145  21821826.4924                   21821825.0784
 11  8 10 18 40 30.0000000  0  7G24G07G13G19G08G28G11
   1945762.90647   1536578.73444  23132873.6884                   23132875.3794
 -14359709.85248 -11187468.68447  20212130.1954                   20212127.4844
   9880584.91847   7705535.24645  22268131.1174                   22268129.9884
   1673984.12547   1311640.96545  22249401.7504                   22249398.1804
 -18312496.14547 -14251469.04746  20996126.1414                   20996123.9574
  -7748800.78547  -6018712.95745  22394851.8204                   22394850.0984
 -10571595.53947  -8221432.15245  21807440.0554                   21807438.5594
 11  8 10 18 41  0.0000000  0  7G24G07G13G19G08G28G11
   1845835.33646   1458713.27044  23113856.6484                   23113859.8054
 -14403932.16048 -11221927.63347  20203714.9224                   20203711.7154
   9954082.56647   7762806.02345  22282117.6564                   22282116.5554
   1729732.60547   1355081.30945  22260010.5234                   22260006.6214
 -18404758.50048 -14323361.76646  20978569.1564                   20978567.2704
  -7811853.62947  -6067845.02045  22382853.2504                   22382851.1724
 -10646763.57447  -8280004.61345  21793136.3364                   21793133.9384
 11  8 10 18 41 30.0000000  0  7G24G07G13G19G08G28G11
   1746072.57447   1380976.16444  23094873.1094                   23094876.4184
 -14447785.37148 -11256098.97347  20195369.8754                   20195367.0514
  10027802.75847   7820250.21545  22296146.3204                   22296145.1844
   1785809.87947   1398777.84445  22270681.0864                   22270678.3914
 -18496829.89547 -14395105.70746  20961048.5554                   20961046.6294
  -7874790.71947  -6116886.88345  22370877.0314                   22370874.4844
 -10721496.76247  -8338238.23045  21778915.0784                   21778913.5164
 11  8 10 18 42  0.0000000  0  7G24G07G13G19G08G28G11
   3221902.99647   2530974.10944  23375714.7584                   23375716.6174
 -12915844.37148 -10062378.71547  20486888.3444                   20486885.4694
  11677161.93447   9105465.03945  22610008.7274                   22610007.3594
   3417633.54747   2670328.72345  22581207.5474                   22581203.5234
 -17013282.80548 -13239094.98046  21243358.2894                   21243355.9694
  -6362188.66847  -4938235.91045  22658715.3674                   22658712.6954
  -9220368.28147  -7168527.69945  22064569.9534                   22064568.4344
 11  8 10 18 42 30.0000000  0  8G17G24G07G13G19G08G28G11
   9243363.52756   7228551.95753  24464333.8364                   24464336.3014
   3122479.83247   2453501.65244  23356795.1884                   23356796.6804
 -12958953.49248 -10095970.24647  20478684.7894                   20478681.9774
  11751318.28147   9163249.08645  22624120.0944                   22624119.9104
   3474361.13347   2714532.00445  22592001.9454                   22591998.9104
 -17104964.27348 -13310535.08246  21225912.1804                   21225909.7464
  -6424896.00447  -4987098.73845  22646782.9144                   22646780.0354
  -9294223.82047  -7226077.44545  22050515.5634                   22050513.2344
 11  8 10 18 43  0.0000000  0  8G17G24G07G13G19G08G28G11
   9110795.34846   7125252.40643  24439106.5944                   24439109.7034
   3023220.89147   2376157.11343  23337907.0554                   23337907.8134
 -13001698.26248 -10129277.86747  20470550.8834                   20470547.8054
  11825677.56347   9221191.25845  22638270.3444                   22638269.8404
   3531399.07047   2758977.12145  22602856.0474                   22602852.7974
 -17196458.07448 -13381828.93746  21208501.0634                   21208498.8914
  -6487500.21547  -5035881.21145  22634869.5784                   22634867.1454
  -9367647.48447  -7283290.64545  22036543.2504                   22036541.4224
 11  8 10 18 43 30.0000000  0  8G17G24G07G13G19G08G28G11
   8978339.86246   7022040.61744  24413901.7034                   24413903.9884
   2924124.38746   2298939.20343  23319047.8444                   23319050.2814
 -13044082.18748 -10162304.30947  20462485.4454                   20462482.6764
  11900232.30147   9279285.72744  22652457.5704                   22652456.8594
   3588739.91447   2803658.26645  22613767.8914                   22613764.2934
 -17287766.21947 -13452978.13746  21191125.9144                   21191124.3404
  -6550006.86347  -5084587.66045  22622974.4384                   22622972.3204
  -9440641.35947  -7340168.96545  22022653.3914                   22022651.2814
 11  8 10 18 44  0.0000000  0  8G17G24G07G13G19G08G28G11
   8846005.02046   6918922.75844  24388719.0944                   24388721.5394
   2825199.22747   2221854.80144  23300224.0394                   23300224.9884
 -13086097.55548 -10195043.57047  20454490.3984                   20454487.6884
  11974985.12947   9337534.56645  22666682.7344                   22666682.7734
   3646386.80547   2848577.88345  22624738.0314                   22624733.9614
 -17378880.44548 -13523976.22746  21173787.2034                   21173785.5124
  -6612410.95747  -5133214.19945  22611099.9144                   22611097.1254
  -9513197.20347  -7396705.95745  22008846.1024                   22008844.5234
 11  8 10 18 44 30.0000000  0  8G17G24G07G13G19G08G28G11
   8713792.30146   6815900.05544  24363559.0704                   24363561.7894
   2726448.65647   2144906.39144  23281432.7734                   23281434.4384
 -13127743.04348 -10227494.60947  20446565.2894                   20446562.9224
  12049933.02047   9395935.38745  22680945.0234                   22680944.8554
   3704336.83647   2893733.69945  22635765.0084                   22635761.6564
 -17469798.73048 -13594821.63346  21156486.3984                   21156483.9304
  -6674713.45347  -5181761.56245  22599243.7424                   22599241.5664
  -9585312.73847  -7452899.84045  21995122.7114                   21995121.2734
 11  8 10 18 45  0.0000000  0  8G17G24G07G13G19G08G28G11
   8581708.67646   6712977.94944  24338424.9224                   24338426.9924
   2627880.46947   2068100.14144  23262675.6334                   23262676.9264
 -13169011.84448 -10259652.12947  20438712.2664                   20438709.4844
  12125077.65247   9454489.50444  22695244.4924                   22695243.9844
   3762591.80547   2939127.14145  22646850.7974                   22646847.3364
 -17560513.90248 -13665508.77746  21139223.6564                   21139221.4494
  -6736910.12547  -5230226.47745  22587408.0554                   22587405.6254
  -9656980.81647  -7508745.05145  21981485.1024                   21981483.5314
 11  8 10 18 45 30.0000000  0  8G17G24G07G13G19G08G28G11
   8449758.56346   6610159.86344  24313315.6724                   24313318.1254
   2529499.99247   1991440.16844  23243954.0634                   23243955.7194
 -13209900.04748 -10291513.06647  20430931.4304                   20430929.1524
  12200418.19147   9513196.25444  22709581.2194                   22709581.5664
   3821151.19547   2984757.80545  22657994.0944                   22657990.4844
 -17651021.56648 -13736034.22346  21122000.6724                   21121998.2304
  -6798999.87547  -5278608.07045  22575592.7274                   22575590.0704
  -9728196.99647  -7564238.16045  21967933.1414                   21967931.1844
 11  8 10 18 46  0.0000000  0  8G17G24G07G13G19G08G28G11
   8317946.40646   6507449.28543  24288231.8284                   24288233.8014
   2431312.95347   1914930.87144  23225269.6094                   23225270.2934
 -13250403.66848 -10323074.33647  20423224.1644                   20423220.7114
  12275953.96147   9572055.16444  22723955.6804                   22723955.4064
   3880014.94947   3030625.61745  22669195.4924                   22669192.2624
 -17741316.51248 -13806393.90646  21104818.1564                   21104816.0634
  -6860980.84447  -5326904.91045  22563798.1954                   22563796.5274
  -9798956.51647  -7619375.44145  21954467.8834                   21954466.5984
 11  8 10 18 46 30.0000000  0  8G17G24G07G13G19G08G28G11
   8186272.85946   6404846.69544  24263175.1024                   24263177.6254
   2333321.28947   1838573.81643  23206622.5234                   23206622.0204
 -13290522.19548 -10354335.53147  20415589.8834                   20415586.6684
  12351680.79347   9631062.94544  22738366.1174                   22738365.4924
   3939178.67647   3076727.18845  22680454.2114                   22680450.7664
 -17831397.79748 -13876587.11746  21087676.0234                   21087674.1684
  -6922855.26247  -5375118.71945  22552024.1564                   22552021.3874
  -9869258.44947  -7674156.13745  21941089.7974                   21941088.2894
 11  8 10 18 47  0.0000000  0  8G17G24G07G13G19G08G28G11
   8054742.06646   6302355.36343  24238145.0704                   24238148.5314
   2235530.39547   1762373.21944  23188013.7424                   23188014.0784
 -13330251.89848 -10385293.75847  20408029.2894                   20408026.2304
  12427597.79347   9690218.90244  22752812.2194                   22752812.3244
   3998641.88747   3123062.11345  22691770.0234                   22691766.4264
 -17921260.81248 -13946610.23446  21070575.6414                   21070573.6604
  -6984621.42647  -5423248.17245  22540270.3134                   22540267.4494
  -9939098.03947  -7728576.57045  21927799.7974                   21927798.3244
 11  8 10 18 47 30.0000000  0  8G17G24G07G13G19G08G28G11
   7923356.15246   6199976.99643  24213143.0474                   24213146.3594
   2137943.17246   1686331.30944  23169443.1884                   23169444.5514
 -13369591.52748 -10415948.01647  20400543.2734                   20400540.6254
  12503701.50447   9749520.34844  22767294.7814                   22767294.3404
   4058401.78147   3169628.22345  22703141.4224                   22703137.8714
 -18010903.25848 -14016461.47746  21053517.2194                   21053515.1764
  -7046281.00047  -5471294.56245  22528536.7814                   22528534.3364
 -10008473.23047  -7782635.13745  21914598.4384                   21914596.3874
 11  8 10 18 48  0.0000000  0  8G17G24G07G13G19G08G28G11
   7792119.76646   6097715.08644  24188169.9224                   24188172.2894
   2040565.03546   1610452.32044  23150912.6954                   23150914.3954
 -13408536.66048 -10446294.88347  20393132.5004                   20393129.9104
  12579991.76647   9808967.16044  22781812.8204                   22781812.0084
   4118457.80547   3216425.08245  22714570.5084                   22714566.2074
 -18100320.57448 -14086137.30946  21036501.8364                   21036499.7344
  -7107831.89547  -5519256.28545  22516824.3284                   22516821.9734
 -10077379.12147  -7836328.02345  21901486.0784                   21901484.2664
 11  8 10 18 48 30.0000000  0  8G17G24G07G13G19G08G28G11
   7661030.70346   5995567.95344  24163224.5164                   24163226.1094
   1943394.82046   1534735.40644  23132420.4774                   23132422.8554
 -13447090.29748 -10476336.69547  20385795.8364                   20385792.8244
  12656461.09447   9868553.51644  22796364.2344                   22796364.1024
   4178803.02047   3263447.30545  22726053.0704                   22726049.9344
 -18189514.39148 -14155638.97746  21019528.7034                   21019526.5084
  -7169279.20347  -5567137.28545  22505131.1484                   22505128.1954
 -10145818.05147  -7889657.02745  21888462.5394                   21888460.5164
 11  8 10 18 49  0.0000000  0  8G17G24G07G13G19G08G28G11
   7530093.55946   5893539.21544  24138307.8524                   24138309.7934
   1846438.56646   1459185.19944  23113971.2814                   23113972.1954
 -13485247.67648 -10506069.73847  20378534.7114                   20378531.9454
  12733109.20747   9928279.18844  22810950.3754                   22810949.4494
   4239437.40647   3310694.84045  22737591.5084                   22737588.2734
 -18278479.02047 -14224962.05546  21002599.3754                   21002597.2304
  -7230620.84847  -5614935.94545  22493458.2894                   22493455.7584
 -10213784.85247  -7942618.14545  21875528.8054                   21875526.6134
 11  8 10 18 49 30.0000000  0  8G17G24G07G13G19G08G28G11
   7399309.12547   5791629.48844  24113420.2664                   24113422.5354
   1749698.47346   1383803.37544  23095562.0864                   23095563.5044
 -13523008.44148 -10535493.72747  20371348.9064                   20371346.3324
  12809932.21547   9988141.12144  22825568.7114                   22825568.9264
   4300357.28947   3358164.83645  22749184.3524                   22749181.5204
 -18367213.77348 -14294106.01246  20985713.5704                   20985711.7234
  -7291858.64147  -5662653.68745  22481805.2664                   22481802.4454
 -10281278.47347  -7995210.55145  21862685.1564                   21862683.1644
 11  8 10 18 50  0.0000000  0  8G17G24G07G13G19G08G28G11
   7268679.86347   5689840.61744  24088562.1724                   24088563.9964
   1653177.85947   1308592.56644  23077194.9454                   23077195.1724
 -13560370.81248 -10564607.27347  20364239.2814                   20364236.6684
  12886927.12947  10048136.98844  22840221.2734                   22840220.4964
   4361559.78147   3405855.05545  22760830.6564                   22760827.2384
 -18455715.90248 -14363068.68746  20968872.2034                   20968870.3674
  -7352993.38747  -5710291.12945  22470171.6644                   22470169.0474
 -10348296.44147  -8047432.33245  21849932.0634                   21849930.1414
 11  8 10 18 50 30.0000000  0  8G17G24G07G13G19G08G28G11
   7138207.14547   5588173.78144  24063733.8594                   24063735.8914
   1556879.38746   1233554.89544  23058869.6484                   23058870.9734
 -13597333.77048 -10593409.59847  20357205.3674                   20357202.7384
  12964090.41847  10108264.07444  22854904.2974                   22854904.5514
   4423041.89847   3453763.16045  22772530.5944                   22772526.1884
 -18543983.46148 -14431848.59446  20952075.5864                   20952073.4884
  -7414026.30147  -5757849.22745  22458557.3204                   22458554.6644
 -10414836.92647  -8099282.04345  21837269.6644                   21837267.8794
 11  8 10 18 51  0.0000000  0  8G17G24G07G13G19G08G28G11
   7007891.62146   5486629.39844  24038935.0784                   24038937.4024
   1460804.49246   1158691.44944  23040586.8834                   23040589.0744
 -13633897.24248 -10621900.62947  20350247.5704                   20350244.7854
  13041417.47347  10168518.75044  22869619.3754                   22869619.5554
   4484799.03947   3501885.57845  22784283.0554                   22784278.6414
 -18632015.91448 -14500445.29746  20935323.5394                   20935321.5164
  -7474959.70747  -5805329.78145  22446961.7344                   22446959.5824
 -10480899.47747  -8150759.32845  21824698.6724                   21824696.8444
 11  8 10 18 51 30.0000000  0  8G17G24G07G13G19G08G28G11
   6877735.78547   5385209.45744  24014168.0234                   24014169.2664
   1364956.92646   1084005.16444  23022348.2974                   23022349.0164
 -13670059.09848 -10650078.71547  20343365.8834                   20343363.4734
  13118905.92247  10228899.19544  22884365.5164                   22884365.3554
   4546828.78147   3550220.40645  22796086.5084                   22796082.6454
 -18719809.71148 -14568856.03546  20918616.6564                   20918614.1214
  -7535793.99647  -5852733.09445  22435385.4774                   22435383.0784
 -10546481.46947  -8201862.16045  21812218.9144                   21812216.3204
 11  8 10 18 52  0.0000000  0  8G17G24G07G13G19G08G28G11
   6747739.69147   5283913.97344  23989430.1334                   23989431.3054
   1269337.73047   1009496.81344  23004152.4614                   23004153.2274
 -13705819.69548 -10677944.13347  20336561.2894                   20336558.5274
  13196550.66447  10289401.41844  22899140.9774                   22899141.2424
   4609126.75447   3598764.23845  22807941.3754                   22807937.9964
 -18807364.52348 -14637080.55146  20901955.5944                   20901953.4574
  -7596531.67647  -5900061.14145  22423827.8444                   22423824.9344
 -10611582.49247  -8252590.21945  21799830.6094                   21799828.4344
 11  8 10 18 52 30.0000000  0  9G17G24G07G26G13G19G08G28G11
   6617904.07847   5182743.55144  23964723.6564                   23964724.5164
   1173949.35546    935168.23444  22986000.3984                   22986000.7274
 -13741178.75848 -10705496.65247  20329832.8914                   20329829.9694
   9275982.72357   7249697.95753  23971677.2814                   23971676.8984
  13274347.38347  10350022.07844  22913944.7814                   22913945.1254
   4671689.01247   3647514.00045  22819846.3134                   22819842.9454
 -18894679.01248 -14705117.79746  20885340.2894                   20885337.9654
  -7657174.77747  -5947315.47345  22412287.4144                   22412284.4104
 -10676201.78147  -8302942.90245  21787533.9534                   21787531.7704
 11  8 10 18 53  0.0000000  0  9G17G24G07G26G13G19G08G28G11
   6488220.69947   5081691.75044  23940044.6644                   23940046.1024
   1078783.78946    861013.32444  22967890.6094                   22967891.4654
 -13776145.39148 -10732743.39147  20323178.8364                   20323175.6884
   9164672.63747   7162962.90643  23950495.6414                   23950495.6954
  13352282.46947  10410750.55944  22928775.1884                   22928775.6564
   4734502.16447   3696459.28545  22831799.7274                   22831796.2894
 -18981761.39548 -14772974.18046  20868768.9774                   20868766.9454
  -7717734.67247  -5994504.99645  22400763.3204                   22400760.4574
 -10740348.05147  -8352926.98445  21775327.2974                   21775324.8984
 11  8 10 18 53 30.0000000  0  9G17G24G07G26G13G19G08G28G11
   6358689.44147   4980758.50044  23915394.9534                   23915396.4964
    983842.88346    787033.51644  22949823.5704                   22949825.4844
 -13810719.62547 -10759684.37147  20316599.5164                   20316596.7974
   9053769.11747   7076544.64544  23929391.4534                   23929391.7274
  13430351.74247  10471583.58644  22943631.6954                   22943632.1054
   4797561.81647   3745596.62545  22843799.3444                   22843796.6024
 -19068610.92648 -14840649.13346  20852242.1254                   20852240.1994
  -7778213.69147  -6041631.48845  22389253.9924                   22389252.2544
 -10804020.54347  -8402541.90645  21763210.9144                   21763208.6724
 11  8 10 18 54  0.0000000  0  9G17G24G07G26G13G19G08G28G11
   6229313.42247   4879946.21944  23890776.0944                   23890777.4024
    889130.52747    713231.80544  22931800.5554                   22931802.1804
 -13844899.00048 -10786317.66047  20310095.4384                   20310092.3204
   8943275.23447   6990445.56644  23908365.6724                   23908365.3874
  13508552.80147  10532519.30944  22958513.7194                   22958513.2154
   4860866.22347   3794924.69145  22855845.9534                   22855842.7074
 -19155224.03548 -14908139.85546  20835760.0084                   20835757.8404
  -7838611.68447  -6088694.84445  22377760.8834                   22377758.6914
 -10867216.25447  -8451785.31245  21751185.1804                   21751182.5164
 11  8 10 18 54 30.0000000  0  9G17G24G07G26G13G19G08G28G11
   6100100.03147   4779260.66844  23866187.9614                   23866188.9964
    794655.05547    639614.64544  22913823.1334                   22913824.4414
 -13878676.70747 -10812637.96147  20303667.7664                   20303664.8714
   8833199.10247   6904672.00444  23887418.4844                   23887418.6254
  13586888.00447  10593559.56344  22973420.5554                   22973420.3554
   4924417.68047   3844445.27045  22867939.0864                   22867936.3634
 -19241592.88748 -14975440.24646  20819324.7194                   20819322.3794
  -7898924.40647  -6135691.75045  22366283.6884                   22366281.6804
 -10929927.65647  -8500651.31645  21739250.9534                   21739249.0084
 11  8 10 18 55  0.0000000  0  9G17G24G07G26G13G19G08G28G11
   5971051.86747   4678703.84044  23841630.3594                   23841631.2384
    700420.20346    566185.01644  22895890.1024                   22895891.2974
 -13912050.63347 -10838643.63346  20297317.1564                   20297314.3244
   8723543.97347   6819226.49244  23866552.5314                   23866552.4184
  13665354.84047  10654702.37144  22988352.2274                   22988351.7624
   4988214.19147   3894156.79345  22880079.5944                   22880076.1024
 -19327714.48848 -15042547.97346  20802936.3834                   20802934.2504
  -7959151.68747  -6182622.07845  22354822.8204                   22354820.6334
 -10992152.55147  -8549138.22345  21727410.3204                   21727408.4454
 11  8 10 18 55 30.0000000  0  9G17G24G07G26G13G19G08G28G11
   5842174.80946   4578280.35544  23817105.1094                   23817106.6454
    606433.41446    492948.59443  22878004.0314                   22878005.2344
 -13945015.07048 -10864330.22746  20291044.1414                   20291041.2034
   8614316.88747   6734114.52344  23845767.0234                   23845767.0164
  13743954.70747  10715948.89544  23003309.3984                   23003309.4224
   5052257.26647   3944060.43445  22892266.7504                   22892263.3014
 -19413582.04748 -15109457.75046  20786596.3984                   20786594.0474
  -8019289.88747  -6229482.97345  22343379.2034                   22343376.9224
 -11053884.69947  -8597241.18745  21715662.7974                   21715661.1884
 11  8 10 18 56  0.0000000  0  9G17G24G07G26G13G19G08G28G11
   5713469.47347   4477990.68044  23792613.6644                   23792615.2854
    512696.19546    419906.68044  22860167.0634                   22860167.2274
 -13977570.09048 -10889697.77747  20284849.0084                   20284846.2664
   8505518.86347   6649336.88343  23825062.5704                   23825062.9574
  13822682.73847  10777295.22344  23018290.6334                   23018291.0124
   5116542.51647   3994152.80545  22904499.7344                   22904496.4884
 -19499195.03948 -15176169.16046  20770304.5704                   20770302.4344
  -8079341.96947  -6276276.78145  22331951.7114                   22331948.9184
 -11115123.35947  -8644959.60545  21704009.5554                   21704007.4654
 11  8 10 18 56 30.0000000  0  9G17G24G07G26G13G19G08G28G11
   5584937.24647   4377835.89144  23768154.5474                   23768156.3134
    419210.69947    347060.91444  22842377.9144                   22842379.0354
 -14009715.32847 -10914746.02747  20278731.9694                   20278729.1174
   8397151.35246   6564894.73043  23804440.9614                   23804440.5594
  13901535.11747  10838738.46144  23033295.6334                   23033295.8244
   5181066.22747   4044430.97745  22916778.1174                   22916774.6524
 -19584551.58648 -15242680.74246  20754061.8984                   20754059.4414
  -8139309.18047  -6323004.44545  22320540.0474                   22320538.1094
 -11175867.73047  -8692292.86745  21692450.5314                   21692448.2624
 11  8 10 18 57  0.0000000  0  9G17G24G07G26G13G19G08G28G11
   5456582.43847   4277819.32044  23743729.1174                   23743730.5704
    325983.01247    274416.02344  22824637.4614                   22824638.8984
 -14041446.32848 -10939471.48847  20272693.7504                   20272690.8914
   8289220.09446   6480792.50043  23783902.1804                   23783901.3364
  13980511.90247  10900278.63743  23048324.8524                   23048325.2154
   5245828.46147   4094895.01645  22929102.2194                   22929098.1804
 -19669646.44148 -15308988.42246  20737868.7424                   20737866.4104
  -8199189.40247  -6369664.33245  22309145.0864                   22309143.1414
 -11236112.84047  -8739237.09045  21680986.0944                   21680983.8524
 11  8 10 18 57 30.0000000  0  9G17G24G07G26G13G19G08G28G11
   5328406.80547   4177942.39145  23719338.6414                   23719340.0864
    233015.75047    201974.09045  22806946.2664                   22806947.1994
 -14072762.00848 -10963873.32847  20266734.4064                   20266731.7304
   8181727.26246   6397031.93843  23763446.2894                   23763446.0474
  14059609.43847  10961912.90644  23063376.5164                   23063377.0904
   5310825.84447   4145542.29745  22941470.4454                   22941466.8524
 -19754477.56248 -15375090.58646  20721726.2664                   20721724.1294
  -8258983.93447  -6416257.44145  22297766.8754                   22297764.4224
 -11295857.50847  -8785791.36345  21669616.7664                   21669615.0784
 11  8 10 18 58  0.0000000  0  9G17G24G07G26G13G19G08G28G11
   5200413.13747   4078207.23844  23694981.9064                   23694982.9414
    140312.65647    129738.00444  22789305.4064                   22789306.5984
 -14103660.68047 -10987950.23047  20260855.0004                   20260852.0004
   8074676.10246   6313615.46142  23743075.1484                   23743073.9414
  14138825.52747  11023639.55144  23078451.1094                   23078451.5434
   5376056.85547   4196371.60545  22953883.8364                   22953880.2704
 -19839041.62548 -15440984.65246  20705634.0314                   20705631.8014
  -8318692.46547  -6462783.55145  22286404.8444                   22286402.3014
 -11355098.96947  -8831953.53145  21658343.5164                   21658341.5004
 11  8 10 18 58 30.0000000  0  9G17G24G07G26G13G19G08G28G11
   5072602.93447   3978615.03944  23670659.3134                   23670661.3324
     47876.59447     57709.98444  22771714.6564                   22771715.2344
 -14134140.82447 -11011701.00047  20255054.5944                   20255051.8094
   7968068.97346   6230545.02343  23722788.3914                   23722787.0594
  14218156.89847  11085456.01644  23093547.3524                   23093548.0234
   5441518.11747   4247380.33245  22966340.6414                   22966336.8914
 -19923336.17248 -15506668.70346  20689593.1564                   20689591.0864
  -8378316.46547  -6509243.79345  22275058.0634                   22275056.1134
 -11413835.46547  -8877722.22345  21647166.6954                   21647164.0394
 11  8 10 18 59  0.0000000  0  9G17G24G07G26G13G19G08G28G11
   4944980.69947   3879169.30945  23646374.5394                   23646376.3014
    -44286.78547    -14105.55144  22754176.9774                   22754176.7544
 -14164198.28147 -11035122.41047  20249334.7664                   20249332.0204
   7861911.18447   6147824.71143  23702587.6254                   23702587.3554
  14297603.21147  11147362.04744  23108665.6804                   23108667.0004
   5507209.93047   4298568.70345  22978840.9614                   22978838.1174
 -20007356.35548 -15572138.97346  20673604.5004                   20673602.7274
  -8437853.71547  -6555636.43445  22263729.2034                   22263726.5824
 -11472062.53147  -8923093.95745  21636086.5394                   21636083.5274
 11  8 10 18 59 30.0000000  0  9G17G24G07G26G13G19G08G28G11
   4817547.08647   3779870.55944  23622124.2504                   23622125.7234
   -136175.80547    -85707.35244  22736691.2424                   22736690.5824
 -14193833.26647 -11058214.62147  20243695.5864                   20243692.9344
   7756203.89147   6065455.44143  23682472.1094                   23682471.2114
  14377160.34847  11209354.46144  23123804.6804                   23123805.8954
   5573127.67647   4349933.11745  22991385.2584                   22991381.7114
 -20091100.87548 -15637394.44546  20657668.6724                   20657666.5204
  -8497306.46947  -6601963.24245  22252415.9304                   22252412.9924
 -11529780.01247  -8968068.60545  21625103.3674                   21625100.8554
 11  8 10 19  0  0.0000000  0  9G17G24G07G26G13G19G08G28G11
   4690303.25447   3680719.71944  23597910.5864                   23597911.2584
   -227788.16847   -157093.54344  22719258.0554                   22719258.7624
 -14223045.16848 -11080977.16447  20238136.6094                   20238133.7854
   7650948.79347   5983438.53543  23662443.1334                   23662442.5864
  14456824.14847  11271429.95344  23138964.9454                   23138965.6954
   5639268.29347   4401471.22345  23003971.5944                   23003967.7504
 -20174568.08248 -15702433.81646  20641785.1564                   20641783.0164
  -8556676.44547  -6648225.54345  22241117.5474                   22241115.2384
 -11586986.39147  -9012644.98845  21614217.1254                   21614214.7504
 11  8 10 19  0 30.0000000  0  9G17G24G07G26G13G19G08G28G11
   4563251.25447   3581718.29344  23573733.4224                   23573733.5314
   -319120.52347   -228261.53144  22701877.6254                   22701879.1524
 -14251832.68748 -11103409.01247  20232658.6254                   20232656.2704
   7546148.57047   5901776.05143  23642500.6334                   23642500.0394
  14536591.76647  11333586.34044  23154143.9924                   23154145.3444
   5705628.86747   4453180.71945  23016599.3444                   23016596.4184
 -20257755.73848 -15767255.35946  20625954.8834                   20625953.1374
  -8615964.32047  -6694423.85945  22229835.6724                   22229833.2704
 -11643680.34447  -9056822.08645  21603428.5474                   21603426.1254
 11  8 10 19  1  0.0000000  0  9G17G24G07G26G13G19G08G28G11
   4436393.82846   3482868.54344  23549592.4614                   23549594.3364
   -410169.39847   -299208.59844  22684551.3204                   22684552.9064
 -14280193.31648 -11125508.21547  20227261.8134                   20227259.2034
   7441806.66047   5820470.71944  23622644.8594                   23622644.5784
  14616461.27747  11395822.11744  23169343.1484                   23169344.2304
   5772207.40647   4505060.02045  23029269.1804                   23029265.7074
 -20340660.07448 -15831856.13746  20610179.1254                   20610177.0784
  -8675169.45347  -6740557.71145  22218569.0704                   22218566.7384
 -11699858.71947  -9100597.43045  21592738.6254                   21592736.2854
 11  8 10 19  1 30.0000000  0  9G17G24G07G26G13G19G08G28G11
   4309732.57847   3384171.64144  23525490.2194                   23525490.5514
   -500932.03147   -369932.65244  22667280.3134                   22667280.9414
 -14308126.27748 -11147274.16847  20221946.5944                   20221943.6524
   7337924.91447   5739523.96144  23602876.7584                   23602876.5514
  14696429.03147  11458134.43444  23184560.7504                   23184561.6374
   5839000.84047   4557106.83245  23041979.5634                   23041975.8364
 -20423279.30948 -15896234.75446  20594457.1884                   20594454.7234
  -8734293.07447  -6786628.04345  22207318.2974                   22207315.5744
 -11755520.54347  -9143970.25045  21582146.0474                   21582144.0084
 11  8 10 19  2  0.0000000  0  9G17G24G07G26G13G19G08G28G11
   4183271.43447   3285630.65244  23501424.7664                   23501425.9964
   -591402.98047   -440429.46144  22650064.0944                   22650063.9804
 -14335627.62948 -11168703.80547  20216713.0634                   20216710.5204
   7234508.16847   5658939.51644  23583197.0314                   23583197.0664
  14776494.45347  11520522.89544  23199796.7344                   23199797.8404
   5906008.99247   4609320.91045  23054731.1414                   23054727.4844
 -20505608.31248 -15960387.22346  20578790.3134                   20578788.1054
  -8793333.98847  -6832633.91845  22196083.2114                   22196080.6914
 -11810661.58247  -9186937.26245  21571653.2584                   21571651.0744
 11  8 10 19  2 30.0000000  0  9G17G24G07G26G13G19G08G28G11
   4057011.02047   3187246.08244  23477398.6884                   23477399.1214
   -681580.45747   -510697.59444  22632904.4144                   22632903.7704
 -14362697.93748 -11189797.56647  20211562.0234                   20211559.2074
   7131557.67647   5578718.42644  23563606.0394                   23563606.2154
  14856653.32447  11582984.15244  23215050.6484                   23215051.5984
   5973227.80546   4661699.16044  23067522.2344                   23067518.5314
 -20587645.97348 -16024312.66446  20563179.5314                   20563176.9224
  -8852294.02347  -6878576.78545  22184863.5474                   22184860.9264
 -11865281.76647  -9229498.40645  21561258.7664                   21561256.3754
 11  8 10 19  3  0.0000000  0  9G17G24G07G26G13G19G08G28G11
   3930954.46947   3089020.36744  23453410.8284                   23453411.1604
   -771460.01647   -580733.54744  22615799.7114                   22615800.9224
 -14389334.35248 -11210553.23047  20206493.2974                   20206490.5984
   7029077.39547   5498863.68844  23544104.7584                   23544104.8714
  14936903.82047  11645516.79744  23230322.0944                   23230322.9734
   6040655.62146   4714240.28144  23080352.9844                   23080349.7894
 -20669388.43048 -16088008.08646  20547624.3284                   20547621.8054
  -8911172.73447  -6924456.28545  22173659.5554                   22173656.9144
 -11919377.90647  -9271651.23045  21550965.2274                   21550962.6054
 11  8 10 19  3 30.0000000  0  9G17G24G07G26G13G19G08G28G11
   3805106.02347   2990956.81344  23429462.2584                   23429462.1954
   -861036.61747   -650533.45744  22598754.2034                   22598755.3594
 -14415533.80548 -11230968.39847  20201507.6094                   20201504.8524
   6927071.63346   5419378.77043  23524692.8444                   23524693.5474
  15017245.37947  11708120.38743  23245610.3594                   23245611.4224
   6108292.09046   4766943.97345  23093224.0234                   23093220.9654
 -20750831.10948 -16151469.90646  20532126.0164                   20532123.9344
  -8969968.53547  -6970271.18445  22162471.0864                   22162468.3834
 -11972946.15247  -9313392.68745  21540770.8134                   21540769.0704
 11  8 10 19  4  0.0000000  0  9G17G24G07G26G13G19G08G28G11
   3679467.86747   2893057.11344  23405553.3284                   23405554.5944
   -950307.13747   -720094.82045  22581766.0474                   22581768.0944
 -14441294.24647 -11251041.48847  20196605.4454                   20196602.9614
   6825543.14146   5340265.68843  23505372.7584                   23505372.7814
  15097674.90247  11770792.53543  23260916.3364                   23260916.6994
   6176134.85546   4819808.41844  23106133.8754                   23106131.1644
 -20831971.07448 -16214695.84446  20516685.9304                   20516683.5044
  -9028681.50447  -7016021.54345  22151298.0394                   22151295.4304
 -12025984.33247  -9354721.10545  21530677.9844                   21530676.0204
 11  8 10 19  4 30.0000000  0  9G17G24G07G26G13G19G08G28G11
   3554042.79347   2795323.46944  23381686.2194                   23381686.6214
  -1039267.39147   -789414.44544  22564838.3594                   22564838.5704
 -14466613.77748 -11270771.00847  20191787.0004                   20191784.8094
   6724495.18846   5261527.09843  23486143.8594                   23486143.3444
  15178190.72747  11833531.93043  23276237.6414                   23276238.8284
   6244181.88346   4872832.02044  23119083.3834                   23119079.8404
 -20912805.01248 -16277683.32046  20501303.5554                   20501301.3714
  -9087311.90647  -7061707.54745  22140140.8364                   22140138.4024
 -12078490.23447  -9395634.75845  21520686.5234                   21520684.2234
 11  8 10 19  5  0.0000000  0  9G17G24G07G26G13G19G08G28G11
   3428832.55547   2697757.21544  23357858.9304                   23357859.7544
  -1127914.15647   -858489.84044  22547969.3364                   22547968.8404
 -14491490.47748 -11290155.46147  20187053.4694                   20187050.6414
   6623930.89146   5183165.36744  23467007.2274                   23467006.9264
  15258790.12146  11896336.44943  23291575.0234                   23291575.8954
   6312431.28947   4926013.33245  23132070.6174                   23132066.8204
 -20993330.01648 -16340430.07046  20485980.0554                   20485977.7034
  -9145859.78147  -7107329.25845  22128999.4844                   22128997.2384
 -12130461.68447  -9436131.95745  21510796.9844                   21510794.9734
 11  8 10 19  5 30.0000000  0  9G17G24G07G26G13G19G08G28G11
   3303837.43447   2600358.57044  23334073.2664                   23334073.9454
  -1216246.46147   -927320.18044  22531159.9774                   22531159.1484
 -14515925.34848 -11309195.64147  20182403.3914                   20182401.2304
   6523850.39546   5105180.58243  23447962.2274                   23447962.0784
  15339467.94147  11959202.06343  23306928.5004                   23306928.5664
   6380877.83246   4979348.25845  23145095.7114                   23145092.3364
 -21073545.70348 -16402935.79746  20470715.6564                   20470713.3874
  -9204328.00848  -7152888.89545  22117873.6724                   22117870.9534
 -12181899.51247  -9476213.34445  21501008.4224                   21501006.1564
 11  8 10 19  6  0.0000000  0  9G17G24G07G26G13G19G08G28G11
   3179059.17247   2503128.89844  23310328.3204                   23310329.4104
  -1304261.30547   -995903.11744  22514410.8284                   22514411.0704
 -14539916.97748 -11327890.43447  20177838.0554                   20177835.6994
   6424256.09847   5027574.66843  23429011.3134                   23429009.5164
  15420221.60547  12022126.75443  23322295.3754                   23322296.6994
   6449519.24647   5032835.06345  23158157.4304                   23158154.4654
 -21153449.14548 -16465198.21546  20455510.6804                   20455508.1764
  -9262717.16047  -7198386.92645  22106762.5554                   22106759.7154
 -12232801.84847  -9515877.47345  21491322.3364                   21491320.1914
 11  8 10 19  6 30.0000000  0  9G17G24G07G26G13G19G08G28G11
   3054497.05547   2406067.66045  23286625.7424                   23286626.0274
  -1391958.30547  -1064238.36344  22497722.4844                   22497723.3094
 -14563467.06248 -11346241.17247  20173356.8674                   20173354.2584
   6325147.84047   4950347.46943  23410151.1564                   23410150.4224
  15501045.73047  12085106.37943  23337675.7344                   23337676.5664
   6518349.83646   5086469.24245  23171255.3674                   23171252.4734
 -21233040.41848 -16527217.38346  20440364.6884                   20440362.4104
  -9321030.52047  -7243825.88345  22095665.8914                   22095663.0354
 -12283169.81647  -9555125.20745  21481737.6174                   21481735.6844
 11  8 10 19  7  0.0000000  0  9G17G24G07G26G13G19G08G28G11
   2930152.23047   2309175.69545  23262963.2814                   23262963.3834
  -1479335.04347  -1132324.06245  22481095.1724                   22481097.0824
 -14586575.05148 -11364247.39847  20168959.5474                   20168957.2304
   6226527.18447   4873500.24644  23391384.2194                   23391382.9384
  15581936.27047  12148137.74644  23353069.0864                   23353069.7194
   6587366.73447   5140248.58645  23184388.8984                   23184386.0904
 -21312317.94148 -16588992.07046  20425278.5554                   20425276.3014
  -9379269.68747  -7289207.03545  22084582.9304                   22084580.3834
 -12333002.77047  -9593956.04745  21472254.3834                   21472252.4964
 11  8 10 19  7 30.0000000  0  9G17G24G07G26G13G19G08G28G11
   2806025.80147   2212453.94545  23239342.2344                   23239343.2734
  -1566389.75447  -1200158.87945  22464530.2504                   22464531.1724
 -14609240.82448 -11381909.07047  20164646.1724                   20164643.8714
   6128395.38747   4797033.94944  23372709.7734                   23372709.5234
  15662889.36347  12211217.85244  23368473.7664                   23368475.4574
   6656566.12546   5194170.13345  23197557.4924                   23197554.4924
 -21391280.13348 -16650521.05146  20410252.7974                   20410250.5084
  -9437436.13747  -7334531.51645  22073514.4144                   22073511.8954
 -12382300.08248  -9632369.50445  21462873.4694                   21462871.0164
 11  8 10 19  8  0.0000000  0  9G17G24G07G26G13G19G08G28G11
   2682118.05947   2115902.60244  23215763.7424                   23215764.3874
  -1653120.67247  -1267741.33244  22448025.0634                   22448025.5554
 -14631464.21148 -11399226.01247  20160417.3674                   20160414.7704
   6030753.72347   4720949.58644  23354129.9844                   23354128.8914
  15743900.89847  12274343.46544  23383890.1024                   23383891.7114
   6725943.84046   5248230.64545  23210759.3134                   23210756.6174
 -21469925.89848 -16711803.46146  20395286.8674                   20395284.6884
  -9495531.69947  -7379800.77045  22062459.0554                   22062456.5904
 -12431061.48848  -9670365.37145  21453594.1564                   21453592.1174
 11  8 10 19  8 30.0000000  0  9G17G24G07G26G13G19G08G28G11
   4133856.25847   3247127.30145  23492020.1804                   23492020.5554
   -164100.42247   -107465.74244  22731375.5944                   22731376.2974
 -13077822.15248 -10188595.84047  20456065.7034                   20456063.0824
   7509029.06647   5872852.50444  23635436.3674                   23635435.9304
  17400387.29347  13565111.84044  23699109.2034                   23699110.9694
   8370916.72346   6530027.63745  23523787.5004                   23523784.2584
 -19972828.48048 -15545234.03146  20680175.1024                   20680172.7624
  -7978133.83647  -6197412.80945  22351210.3524                   22351207.9534
 -10903862.31647  -8480340.01645  21744210.4694                   21744208.8134
 11  8 10 19  9  0.0000000  0  9G17G24G07G26G13G19G08G28G11
   4010394.23047   3150923.25844  23468525.7194                   23468526.4264
   -250171.49647   -174534.07044  22714997.2344                   22714996.9024
 -13099154.64848 -10205218.59447  20452006.1884                   20452003.4734
   7412377.52347   5797539.67243  23617043.5234                   23617043.5204
  17481510.24647  13628324.27743  23714546.7734                   23714548.1524
   8440646.84447   6584362.73845  23537056.3204                   23537053.8714
 -20050830.38348 -15606014.73446  20665331.4224                   20665329.3674
  -8036086.42647  -6242570.65245  22340182.4384                   22340179.8634
 -10951544.50848  -8517494.94145  21735137.1564                   21735135.1214
 11  8 10 19  9 30.0000000  0  9G17G24G07G26G13G19G08G28G11
   3887158.87547   3054895.84044  23445075.2504                   23445075.3834
   -335907.36747   -241341.19944  22698682.5634                   22698682.5784
 -13120038.83248 -10221491.99247  20448031.8524                   20448029.5434
   7316225.05147   5722615.72744  23598746.3754                   23598746.1054
  17562685.41046  13691577.40243  23729993.2344                   23729995.4494
   8510549.85946   6638832.55544  23550358.6414                   23550355.6174
 -20128505.80948 -15666541.03146  20650550.6484                   20650548.6884
  -8093967.92247  -6287673.10245  22329168.1334                   22329165.2154
 -10998684.11747  -8554227.07445  21726166.7114                   21726165.1134
 11  8 10 19 10  0.0000000  0  9G17G24G07G26G13G19G08G28G11
   3764159.02747   2959051.94544  23421668.6724                   23421668.8324
   -421298.16447   -307879.45344  22682433.1954                   22682433.6054
 -13140466.69148 -10237409.81247  20444144.5164                   20444142.1844
   7220581.13347   5648088.03544  23580546.5394                   23580545.0904
  17643917.19546  13754874.57443  23745450.9844                   23745453.9494
   8580630.39546   6693440.70744  23563694.3914                   23563691.4414
 -20205844.71148 -15726805.10246  20635833.7584                   20635831.4494
  -8151771.83247  -6332715.09445  22318167.8674                   22318165.4264
 -11045272.60947  -8590529.76645  21717301.3444                   21717299.5554
 11  8 10 19 10 30.0000000  0  9G17G24G07G26G13G19G08G28G11
   3641395.20347   2863391.94944  23398307.0314                   23398307.1884
   -506342.31247   -374147.56244  22666249.8444                   22666251.1684
 -13160438.59448 -10252972.34447  20440344.2194                   20440341.7034
   7125446.99247   5573957.60944  23562442.8834                   23562442.1134
  17725201.00447  13818212.35543  23760920.2034                   23760921.6604
   8650884.11347   6748183.82044  23577063.2814                   23577060.4924
 -20282846.24648 -15786806.29746  20621180.8834                   20621178.2424
  -8209499.79348  -6377697.89545  22307183.0944                   22307180.4304
 -11091309.95347  -8626402.98045  21708540.2584                   21708538.4024
 11  8 10 19 11  0.0000000  0  9G17G24G07G26G13G19G08G28G11
   3518871.78947   2767919.28144  23374991.4224                   23374992.3094
   -591034.05947   -440141.05544  22650132.9304                   22650134.1174
 -13179950.61748 -10268176.53547  20436631.5394                   20436628.8364
   7030827.39146   5500228.09844  23544436.4694                   23544436.7584
  17806536.93847  13881590.74643  23776398.1644                   23776398.6374
   8721311.82446   6803062.50444  23590465.3834                   23590462.4804
 -20359505.11748 -15846540.47346  20606593.1804                   20606590.5044
  -8267149.66048  -6422619.84845  22296212.4844                   22296210.2734
 -11136792.24247  -8661843.69945  21699885.2274                   21699883.8014
 11  8 10 19 11 30.0000000  0  9G17G24G07G26G13G19G08G28G11
   3396590.92247   2672635.61745  23351722.5864                   23351722.7504
   -675370.08247   -505857.36344  22634084.3594                   22634084.3984
 -13199001.49648 -10283021.38747  20433005.7194                   20433003.5354
   6936724.63746   5426901.35544  23526529.7274                   23526529.0904
  17887922.61347  13945007.92643  23791885.4534                   23791886.6024
   8791911.55546   6858075.22744  23603900.5554                   23603896.8554
 -20435818.14148 -15906005.17246  20592070.8284                   20592068.7734
  -8324721.77348  -6467481.21945  22285256.9144                   22285254.1954
 -11181717.57847  -8696850.43045  21691336.5554                   21691334.7504
 11  8 10 19 12  0.0000000  0  9G17G24G07G26G13G19G08G28G11
   3274556.41047   2577543.90644  23328499.6174                   23328500.4924
   -759345.78147   -571292.93444  22618104.5944                   22618104.3484
 -13217588.04348 -10297504.42647  20429469.2194                   20429466.5864
   6843143.01246   5353980.66844  23508721.6804                   23508720.8554
  17969356.51647  14008462.68043  23807382.2974                   23807383.2774
   8862681.80546   6913220.84844  23617367.2344                   23617364.2774
 -20511781.28548 -15965197.23046  20577615.6484                   20577613.4574
  -8382215.08248  -6512281.18445  22274316.2894                   22274313.5434
 -11226083.14147  -8731420.96945  21682893.9454                   21682891.7894
 11  8 10 19 12 30.0000000  0  9G17G24G07G26G13G19G08G28G11
   3152765.89846   2482642.34844  23305323.9384                   23305324.3554
   -842962.11747   -636448.48444  22602192.5554                   22602193.2774
 -13235713.13348 -10311627.89547  20426020.0474                   20426017.4224
   6750080.61346   5281464.55143  23491012.1954                   23491011.2894
  18050832.00847  14071949.82843  23822886.2034                   23822888.0984
   8933616.35546   6968494.46944  23630865.3834                   23630863.2504
 -20587396.04348 -16024117.82046  20563226.9384                   20563224.1294
  -8439633.94548  -6557023.13345  22263389.5634                   22263387.4064
 -11269891.48447  -8765557.31245  21674557.4144                   21674555.6484
 11  8 10 19 13  0.0000000  0  9G17G24G07G26G13G19G08G28G11
   3031221.95747   2387932.93445  23282194.9454                   23282195.4304
   -926215.23047   -701320.97345  22586349.8524                   22586351.2504
 -13253375.21548 -10325390.56647  20422658.8134                   20422656.2274
   6657540.90246   5209355.71143  23473402.2734                   23473402.2624
  18132347.04347  14135467.75843  23838398.5784                   23838400.5594
   9004713.39846   7023894.70744  23644395.5164                   23644392.0634
 -20662658.57848 -16082763.94946  20548904.8674                   20548902.3484
  -8496978.18748  -6601706.94145  22252477.4534                   22252474.6374
 -11313140.30547  -8799257.65645  21666326.9924                   21666325.6454
 11  8 10 19 13 30.0000000  0  9G17G24G07G26G13G19G08G28G11
   2909925.52047   2293416.32845  23259113.1804                   23259112.6414
  -1009103.52347   -765909.17645  22570577.1414                   22570577.7074
 -13270574.11748 -10338792.32447  20419386.1804                   20419383.6094
   6565524.41446   5137654.59444  23455892.5474                   23455891.9774
  18213897.88747  14199013.60244  23853917.0864                   23853919.6414
   9075969.21146   7079418.66844  23657954.8834                   23657950.6994
 -20737567.64848 -16141134.64846  20534649.9144                   20534647.7304
  -8554249.34848  -6646333.80545  22241579.1724                   22241576.5274
 -11355829.35547  -8832521.83245  21658203.9454                   21658201.5204
 11  8 10 19 14  0.0000000  0  9G17G24G07G26G13G19G08G28G11
   2788878.35547   2199094.00845  23236078.0474                   23236078.2344
  -1091624.02047   -830210.78145  22554873.7974                   22554874.8524
 -13287308.87548 -10351832.41847  20416201.7274                   20416199.2974
   6474033.46146   5066363.00444  23438482.1484                   23438481.8594
  18295481.88347  14262585.24643  23869442.5234                   23869444.0864
   9147381.43047   7135064.48844  23671544.4304                   23671540.5554
 -20812120.61348 -16199227.86346  20520463.0004                   20520460.7234
  -8611448.02747  -6690904.17245  22230694.0704                   22230691.7814
 -11397957.62948  -8865349.03545  21650187.4844                   21650185.0124
 11  8 10 19 14 30.0000000  0  9G17G24G07G26G13G19G08G28G11
   2668082.29747   2104967.31645  23213091.6804                   23213091.4064
  -1173773.66847   -894223.46544  22539241.0314                   22539241.4734
 -13303578.38348 -10364509.97347  20413105.7034                   20413103.2774
   6383070.28147   4995482.61344  23421172.4924                   23421171.3794
  18377096.32447  14326180.59444  23884973.0314                   23884975.3794
   9218947.54347   7190830.24244  23685163.0864                   23685159.5394
 -20886314.85948 -16257041.57046  20506344.6094                   20506342.5904
  -8668575.04347  -6735418.71545  22219823.4064                   22219821.4574
 -11439524.03948  -8897738.42245  21642277.4384                   21642274.8014
 11  8 10 19 15  0.0000000  0  9G17G24G07G26G13G19G08G28G11
   2547537.54347   2011036.47345  23190152.2734                   23190152.4224
  -1255550.87147   -957945.91444  22523678.6094                   22523678.7384
 -13319382.75848 -10376825.09047  20410098.4694                   20410095.9494
   6292635.85947   4925014.22344  23403963.5394                   23403963.1374
  18458736.89846  14389796.32843  23900508.7894                   23900512.0004
   9290663.89147   7246713.09444  23698810.1094                   23698807.4924
 -20960149.17648 -16314574.79746  20492294.3674                   20492292.1914
  -8725631.51247  -6779878.28945  22208966.2034                   22208963.5594
 -11480528.30548  -8929689.76245  21634474.6564                   21634472.2544
 11  8 10 19 15 30.0000000  0  9G17G24G07G26G13G19G08G28G11
   2427244.78947   1917301.96145  23167261.2734                   23167261.7074
  -1336953.95747  -1021376.81244  22508189.0634                   22508189.3404
 -13334722.37948 -10388778.05547  20407179.0004                   20407176.7424
   6202730.75847   4854958.38744  23386854.9454                   23386854.3324
  18540399.74246  14453429.38743  23916048.4384                   23916051.4924
   9362526.68847   7302710.04745  23712485.0084                   23712482.5634
 -21033622.07048 -16371826.40246  20478312.5234                   20478310.3164
  -8782619.45747  -6824284.47345  22198121.8444                   22198119.2854
 -11520970.48048  -8961203.12145  21626778.5634                   21626776.3484
 11  8 10 19 16  0.0000000  0  9G17G24G07G26G13G19G08G28G11
   2307203.16047   1823763.15245  23144417.5474                   23144418.5354
  -1417982.87147  -1084516.17645  22492770.0004                   22492770.3984
 -13349598.60548 -10400369.94147  20404348.3914                   20404346.1524
   6113354.80146   4785314.81344  23369847.3984                   23369847.0204
  18622079.43846  14517075.54743  23931592.5084                   23931595.4064
   9434531.05547   7358817.30944  23726187.4384                   23726184.5084
 -21106733.16848 -16428796.08246  20464400.3364                   20464397.9844
  -8839542.10947  -6868639.77345  22187289.6724                   22187287.2114
 -11560852.25048  -8992279.80945  21619189.5634                   21619187.5514
 11  8 10 19 16 30.0000000  0  9G17G24G07G26G13G19G08G28G11
   2187417.91847   1730424.12145  23121623.5234                   23121624.1884
  -1498631.59847  -1147359.27344  22477422.6334                   22477423.5394
 -13364007.74248 -10411597.84847  20401606.8444                   20401604.3204
   6024512.87546   4716087.37544  23352941.4224                   23352941.5944
  18703776.36746  14580735.14843  23947139.3754                   23947141.9774
   9506677.51647   7415035.30144  23739915.5784                   23739913.0004
 -21179477.29748 -16485479.81646  20450557.2814                   20450555.1054
  -8896396.67647  -6912942.01645  22176470.4694                   22176467.9224
 -11600169.32848  -9022916.47745  21611707.4924                   21611705.6254
 11  8 10 19 17  0.0000000  0  9G17G24G07G26G13G19G08G28G11
   2067888.53147   1637284.46145  23098878.1024                   23098878.4964
  -1578899.00447  -1209905.25444  22462147.9384                   22462148.6884
 -13377950.63347 -10422462.46147  20398953.3594                   20398950.9804
   5936205.27046   4647276.30944  23336136.9924                   23336136.6844
  18785485.53946  14644404.27043  23962687.7504                   23962690.6414
   9578961.53147   7471360.43844  23753670.9224                   23753668.6524
 -21251854.14548 -16541877.35946  20436784.6334                   20436782.1914
  -8953185.73448  -6957193.21546  22165664.1644                   22165661.5784
 -11638922.41048  -9053113.67245  21604333.1414                   21604330.6564
 11  8 10 19 17 30.0000000  0  9G17G24G07G26G13G19G08G28G11
   1948616.87147   1544345.61345  23076180.8524                   23076181.1414
  -1658782.31247  -1272151.94945  22446946.9694                   22446947.4574
 -13391426.45348 -10432963.11747  20396388.7734                   20396385.9024
   5848433.75447   4578882.96144  23319434.7424                   23319433.4884
  18867204.09446  14708080.73443  23978239.5474                   23978242.2034
   9651380.28947   7527790.57044  23767451.7584                   23767449.8594
 -21323861.08248 -16597986.65246  20423082.1174                   20423079.7114
  -9009909.83247  -7001393.79746  22154869.6954                   22154867.5394
 -11677110.68448  -9082870.73845  21597066.0164                   21597064.1054
 11  8 10 19 18  0.0000000  0  9G17G24G07G26G13G19G08G28G11
   1829603.36347   1451607.93045  23053533.3524                   23053533.5944
  -1738280.09847  -1334098.23045  22431819.0864                   22431819.7934
 -13404435.54348 -10443100.07447  20393913.2424                   20393910.7664
   5761199.44147   4510908.21144  23302834.5164                   23302833.6024
  18948928.83646  14771761.99643  23993790.8984                   23993793.5084
   9723930.67247   7584323.27344  23781257.9384                   23781255.5394
 -21395496.48448 -16653806.43747  20409450.2734                   20409447.8404
  -9066570.65248  -7045545.06246  22144087.8674                   22144085.3444
 -11714734.19948  -9112187.74645  21589906.6884                   21589904.2274
 11  8 10 19 18 30.0000000  0  9G17G24G07G26G13G19G08G28G11
   1710850.61747   1359073.44945  23030935.6884                   23030935.2624
  -1817388.30147  -1395740.93445  22416764.9614                   22416765.5354
 -13416975.89148 -10452871.78947  20391527.0004                   20391524.2664
   5674504.97746   4443354.12144  23286336.7734                   23286336.3554
  19030657.61746  14835446.44543  24009343.9304                   24009346.2114
   9796610.94147   7640957.20744  23795088.9614                   23795086.0594
 -21466756.76248 -16709333.92246  20395890.1094                   20395888.1724
  -9123167.75048  -7089646.67245  22133317.3594                   22133315.0354
 -11751791.02347  -9141063.16846  21582855.1804                   21582852.6524
 11  8 10 19 19  0.0000000  0  9G17G24G07G26G13G19G08G28G11
   1592359.02347   1266742.43845  23008387.2734                   23008387.1294
  -1896105.54347  -1457078.99245  22401786.3984                   22401786.3524
 -13429047.82847 -10462278.51647  20389229.5314                   20389227.0704
   5588351.19547   4376221.34444  23269942.1564                   23269941.7234
  19112386.14147  14899130.69943  24024896.3204                   24024898.6994
   9869417.28146   7697689.36744  23808943.1644                   23808939.6484
 -21537640.73848 -16764568.18746  20382400.8284                   20382399.0664
  -9179702.87147  -7133699.99246  22122559.5314                   22122556.8134
 -11788281.41848  -9169497.22345  21575910.9614                   21575909.1134
 11  8 10 19 19 30.0000000  0  9G17G24G07G26G13G19G08G28G11
   1474130.96147   1174616.78145  22985889.1564                   22985888.8794
  -1974428.93747  -1518110.14844  22386881.0554                   22386880.7544
 -13440650.19547 -10471319.33647  20387021.9454                   20387019.5824
   5502740.44946   4309511.70344  23253650.7814                   23253650.4224
  19194112.27346  14962813.08243  24040448.3134                   24040451.1374
   9942348.10246   7754518.53144  23822821.5084                   23822818.6644
 -21608145.56648 -16819507.01646  20368984.3444                   20368982.0904
  -9236176.14147  -7177705.12545  22111812.6644                   22111810.0314
 -11824204.07048  -9197488.87545  21569075.3284                   21569072.8954
 11  8 10 19 20  0.0000000  0  9G17G24G07G26G13G19G08G28G11
   1356167.49247   1082697.30145  22963441.6174                   22963440.9774
  -2052356.05147  -1578832.53145  22372052.5704                   22372052.3634
 -13451782.72748 -10479994.04347  20384903.4454                   20384900.6764
   5417673.94147   4243226.14844  23237463.2114                   23237463.1604
  19275832.72346  15026491.02343  24056000.2274                   24056002.6764
  10015400.18046   7811442.16044  23836722.7504                   23836719.5664
 -21678269.09048 -16874148.71546  20355640.2894                   20355638.4104
  -9292588.23447  -7221662.58245  22101077.5634                   22101075.4104
 -11859558.50848  -9225037.77346  21562347.7504                   21562345.8164
 11  8 10 19 20 30.0000000  0  9G17G24G07G26G13G19G08G28G11
   1238470.38347    990985.35945  22941044.0004                   22941043.7544
  -2129883.74247  -1639243.65245  22357298.7194                   22357299.2464
 -13462444.09047 -10488301.61347  20382874.7274                   20382872.3364
   5333154.14847   4177366.60244  23221379.9774                   23221379.4224
  19357545.16446  15090162.73843  24071549.7814                   24071552.3244
  10088571.34447   7868458.59844  23850647.2114                   23850643.4384
 -21748008.68048 -16928491.24646  20342369.3444                   20342366.9264
  -9348939.35948  -7265572.52745  22090354.4144                   22090352.2234
 -11894343.44948  -9252142.90245  21555728.1414                   21555725.9184
 11  8 10 19 21  0.0000000  0  9G17G24G07G26G13G19G08G28G11
   1121041.71547    899482.62545  22918697.8284                   22918698.1294
  -2207009.18047  -1699341.34445  22342622.7734                   22342622.3444
 -13472633.46547 -10496241.40247  20380935.6644                   20380933.5084
   5249183.18847   4111934.70344  23205400.5704                   23205400.2814
  19439247.34446  15153826.43843  24087096.9924                   24087099.9414
  10161859.48447   7925566.21144  23864593.1024                   23864589.6524
 -21817361.35947 -16982532.29346  20329171.9224                   20329170.2464
  -9405229.91847  -7309435.28146  22079642.9844                   22079640.0594
 -11928557.66048  -9278803.31245  21549217.4774                   21549215.3164
 11  8 10 19 21 30.0000000  0  9G17G24G07G26G13G19G08G28G11
   1003880.76647    808188.47345  22896403.0944                   22896402.4654
  -2283731.89547  -1759125.20344  22328022.5084                   22328022.5394
 -13482352.21548 -10503814.48047  20379086.6174                   20379084.0004
   5165760.23447   4046929.85544  23189526.1334                   23189525.6054
  19520933.89846  15217477.93043  24102642.0084                   24102645.3284
  10235259.75047   7982761.18844  23878561.6414                   23878558.4454
 -21886327.13348 -17036271.85946  20316048.2274                   20316046.1644
  -9461462.92247  -7353253.19545  22068942.0234                   22068939.2194
 -11962202.73448  -9305020.24245  21542814.8594                   21542812.6174
 11  8 10 19 22  0.0000000  0  9G17G24G07G26G13G19G08G28G11
    886987.25847    717102.72745  22874158.7344                   22874158.4384
  -2360051.00447  -1818594.58645  22313499.3204                   22313499.6524
 -13491601.76648 -10511021.94547  20377326.1174                   20377323.8954
   5082885.57447   3982352.25444  23173755.0864                   23173754.4964
  19602600.27346  15281113.69943  24118182.0164                   24118186.5824
  10308768.00047   8040040.29744  23892549.7034                   23892546.5594
 -21954905.47348 -17089709.52046  20302998.2504                   20302995.7974
  -9517640.64847  -7397028.02346  22058251.3674                   22058249.1374
 -11995279.90247  -9330794.64545  21536520.1024                   21536518.2304
 11  8 10 19 22 30.0000000  0  9G17G24G07G26G13G19G08G28G11
    770363.76247    626227.37945  22851965.8134                   22851966.2074
  -2435962.93747  -1877746.66045  22299053.9694                   22299054.2194
 -13500380.12948 -10517862.24247  20375656.0944                   20375653.2814
   5000561.79347   3918203.87944  23158089.3594                   23158088.7464
  19684244.89546  15344732.39543  24133719.2194                   24133723.2664
  10382382.79747   8097402.44544  23906557.6094                   23906554.7034
 -22023092.35248 -17142842.15246  20290022.7664                   20290020.6524
  -9573762.25448  -7440759.11745  22047571.8754                   22047569.2114
 -12027787.25848  -9356125.03545  21530334.5704                   21530332.4414
 11  8 10 19 23  0.0000000  0  9G17G24G07G26G13G19G08G28G11
    654009.05547    535561.50045  22829824.5944                   22829824.4924
  -2511467.83647  -1936581.57445  22284686.0634                   22284686.2074
 -13508689.34848 -10524336.98447  20374074.6724                   20374072.0634
   4918787.91847   3854484.01244  23142528.2034                   23142527.6644
  19765861.68846  15408329.62543  24149251.0864                   24149254.4414
  10456098.99647   8154843.60544  23920585.6804                   23920582.0204
 -22090888.95348 -17195670.67246  20277121.8524                   20277119.5204
  -9629831.06248  -7484449.07845  22036902.5234                   22036899.9064
 -12059726.68048  -9381012.87945  21524256.7274                   21524253.5864
